<?xml version="1.0" encoding="UTF-8" standalone="no" ?>
<gpx xmlns="http://www.topografix.com/GPX/1/1" xmlns:xsi="http://www.w3.org/2001/XMLSchema-instance" xsi:schemaLocation="http://www.topografix.com/GPX/1/1 http://www.topografix.com/GPX/1/1/gpx.xsd" version="1.1" creator="VisuGPX - https://www.visugpx.com">
  <metadata>
    <name>Boucle St Maximin-Rougier-Tourves</name>
    <desc><![CDATA[Boucle d'une quarantaine de km au départ de St Maximin la Ste Baume, passant par Rougier, les anciennes carrieres de bauxite de Mazaugues, le Caramy, Tourves, retour St Maximin. Un peu de route, mais sur des portions avec très peu de voitures. Quelques portions de chemin bien caillouteuses, mais parcours globalement sans difficultés. ]]></desc>
  </metadata>
  <trk>
    <name><![CDATA[2020-10-11 08:45]]></name>
    <extensions>
      <line xmlns="http://www.topografix.com/GPX/gpx_style/0/2">
        <color>0000FF</color>
        <width>4</width>
      </line>
    </extensions>
    <trkseg>
      <trkpt lat="43.44407" lon="5.86093">
        <ele>267.67</ele>
        <time>2020-10-11T06:46:06Z</time>
      </trkpt>
      <trkpt lat="43.44401" lon="5.86068">
        <ele>270.74</ele>
        <time>2020-10-11T06:53:28Z</time>
      </trkpt>
      <trkpt lat="43.44399" lon="5.86043">
        <ele>271.36</ele>
        <time>2020-10-11T06:53:39Z</time>
      </trkpt>
      <trkpt lat="43.44406" lon="5.8602">
        <ele>271.79</ele>
        <time>2020-10-11T06:53:46Z</time>
      </trkpt>
      <trkpt lat="43.44412" lon="5.85994">
        <ele>272.6</ele>
        <time>2020-10-11T06:53:53Z</time>
      </trkpt>
      <trkpt lat="43.44423" lon="5.85968">
        <ele>270.19</ele>
        <time>2020-10-11T06:54:20Z</time>
      </trkpt>
      <trkpt lat="43.44425" lon="5.85942">
        <ele>270.22</ele>
        <time>2020-10-11T06:54:29Z</time>
      </trkpt>
      <trkpt lat="43.44409" lon="5.8593">
        <ele>271.34</ele>
        <time>2020-10-11T06:54:37Z</time>
      </trkpt>
      <trkpt lat="43.4439" lon="5.85923">
        <ele>274.04</ele>
        <time>2020-10-11T06:54:44Z</time>
      </trkpt>
      <trkpt lat="43.44373" lon="5.85915">
        <ele>274.79</ele>
        <time>2020-10-11T06:54:50Z</time>
      </trkpt>
      <trkpt lat="43.44354" lon="5.85909">
        <ele>275.42</ele>
        <time>2020-10-11T06:54:56Z</time>
      </trkpt>
      <trkpt lat="43.44335" lon="5.85902">
        <ele>275.65</ele>
        <time>2020-10-11T06:55:02Z</time>
      </trkpt>
      <trkpt lat="43.44318" lon="5.85896">
        <ele>276.32</ele>
        <time>2020-10-11T06:55:08Z</time>
      </trkpt>
      <trkpt lat="43.44298" lon="5.85889">
        <ele>277.23</ele>
        <time>2020-10-11T06:55:15Z</time>
      </trkpt>
      <trkpt lat="43.44281" lon="5.85881">
        <ele>277.63</ele>
        <time>2020-10-11T06:55:21Z</time>
      </trkpt>
      <trkpt lat="43.44261" lon="5.85874">
        <ele>278.34</ele>
        <time>2020-10-11T06:55:28Z</time>
      </trkpt>
      <trkpt lat="43.44242" lon="5.85867">
        <ele>279.17</ele>
        <time>2020-10-11T06:55:35Z</time>
      </trkpt>
      <trkpt lat="43.44222" lon="5.85859">
        <ele>279.75</ele>
        <time>2020-10-11T06:55:42Z</time>
      </trkpt>
      <trkpt lat="43.44204" lon="5.85853">
        <ele>280.24</ele>
        <time>2020-10-11T06:55:48Z</time>
      </trkpt>
      <trkpt lat="43.44185" lon="5.85845">
        <ele>281.12</ele>
        <time>2020-10-11T06:55:55Z</time>
      </trkpt>
      <trkpt lat="43.44167" lon="5.85839">
        <ele>281.15</ele>
        <time>2020-10-11T06:56:01Z</time>
      </trkpt>
      <trkpt lat="43.44147" lon="5.8583">
        <ele>281.36</ele>
        <time>2020-10-11T06:56:08Z</time>
      </trkpt>
      <trkpt lat="43.44128" lon="5.85823">
        <ele>282.04</ele>
        <time>2020-10-11T06:56:15Z</time>
      </trkpt>
      <trkpt lat="43.44108" lon="5.85816">
        <ele>282.74</ele>
        <time>2020-10-11T06:56:22Z</time>
      </trkpt>
      <trkpt lat="43.4409" lon="5.85809">
        <ele>283.92</ele>
        <time>2020-10-11T06:56:30Z</time>
      </trkpt>
      <trkpt lat="43.44071" lon="5.85802">
        <ele>285.04</ele>
        <time>2020-10-11T06:56:38Z</time>
      </trkpt>
      <trkpt lat="43.44053" lon="5.85795">
        <ele>286.14</ele>
        <time>2020-10-11T06:56:46Z</time>
      </trkpt>
      <trkpt lat="43.44034" lon="5.85788">
        <ele>287.24</ele>
        <time>2020-10-11T06:56:55Z</time>
      </trkpt>
      <trkpt lat="43.44017" lon="5.85781">
        <ele>288.33</ele>
        <time>2020-10-11T06:57:03Z</time>
      </trkpt>
      <trkpt lat="43.43998" lon="5.85774">
        <ele>289.52</ele>
        <time>2020-10-11T06:57:12Z</time>
      </trkpt>
      <trkpt lat="43.4398" lon="5.85767">
        <ele>290.24</ele>
        <time>2020-10-11T06:57:20Z</time>
      </trkpt>
      <trkpt lat="43.43962" lon="5.85759">
        <ele>291.02</ele>
        <time>2020-10-11T06:57:29Z</time>
      </trkpt>
      <trkpt lat="43.43943" lon="5.85753">
        <ele>293.1</ele>
        <time>2020-10-11T06:57:40Z</time>
      </trkpt>
      <trkpt lat="43.43925" lon="5.85747">
        <ele>295.62</ele>
        <time>2020-10-11T06:57:49Z</time>
      </trkpt>
      <trkpt lat="43.43906" lon="5.85739">
        <ele>295.44</ele>
        <time>2020-10-11T06:57:58Z</time>
      </trkpt>
      <trkpt lat="43.43889" lon="5.85733">
        <ele>296.54</ele>
        <time>2020-10-11T06:58:07Z</time>
      </trkpt>
      <trkpt lat="43.43871" lon="5.85727">
        <ele>297.24</ele>
        <time>2020-10-11T06:58:15Z</time>
      </trkpt>
      <trkpt lat="43.43853" lon="5.85718">
        <ele>298.26</ele>
        <time>2020-10-11T06:58:23Z</time>
      </trkpt>
      <trkpt lat="43.43836" lon="5.85709">
        <ele>297.97</ele>
        <time>2020-10-11T06:58:31Z</time>
      </trkpt>
      <trkpt lat="43.43818" lon="5.857">
        <ele>298.74</ele>
        <time>2020-10-11T06:58:40Z</time>
      </trkpt>
      <trkpt lat="43.43799" lon="5.85698">
        <ele>298.75</ele>
        <time>2020-10-11T06:58:48Z</time>
      </trkpt>
      <trkpt lat="43.43781" lon="5.85694">
        <ele>299.73</ele>
        <time>2020-10-11T06:58:55Z</time>
      </trkpt>
      <trkpt lat="43.43761" lon="5.85693">
        <ele>299.69</ele>
        <time>2020-10-11T06:59:02Z</time>
      </trkpt>
      <trkpt lat="43.43742" lon="5.85699">
        <ele>299.17</ele>
        <time>2020-10-11T06:59:07Z</time>
      </trkpt>
      <trkpt lat="43.43724" lon="5.85682">
        <ele>299.17</ele>
        <time>2020-10-11T06:59:13Z</time>
      </trkpt>
      <trkpt lat="43.43711" lon="5.85663">
        <ele>299</ele>
        <time>2020-10-11T06:59:19Z</time>
      </trkpt>
      <trkpt lat="43.43698" lon="5.85646">
        <ele>299.72</ele>
        <time>2020-10-11T06:59:25Z</time>
      </trkpt>
      <trkpt lat="43.43685" lon="5.85627">
        <ele>299.55</ele>
        <time>2020-10-11T06:59:33Z</time>
      </trkpt>
      <trkpt lat="43.43671" lon="5.85611">
        <ele>299.67</ele>
        <time>2020-10-11T06:59:39Z</time>
      </trkpt>
      <trkpt lat="43.43656" lon="5.85592">
        <ele>299.43</ele>
        <time>2020-10-11T06:59:45Z</time>
      </trkpt>
      <trkpt lat="43.43638" lon="5.85575">
        <ele>299.77</ele>
        <time>2020-10-11T06:59:51Z</time>
      </trkpt>
      <trkpt lat="43.43621" lon="5.8556">
        <ele>299.97</ele>
        <time>2020-10-11T06:59:57Z</time>
      </trkpt>
      <trkpt lat="43.43608" lon="5.85542">
        <ele>299.79</ele>
        <time>2020-10-11T07:00:03Z</time>
      </trkpt>
      <trkpt lat="43.43593" lon="5.85527">
        <ele>300.58</ele>
        <time>2020-10-11T07:00:10Z</time>
      </trkpt>
      <trkpt lat="43.43578" lon="5.85542">
        <ele>300.77</ele>
        <time>2020-10-11T07:00:16Z</time>
      </trkpt>
      <trkpt lat="43.4356" lon="5.85551">
        <ele>300.6</ele>
        <time>2020-10-11T07:00:22Z</time>
      </trkpt>
      <trkpt lat="43.43542" lon="5.85552">
        <ele>300.85</ele>
        <time>2020-10-11T07:00:27Z</time>
      </trkpt>
      <trkpt lat="43.43521" lon="5.85546">
        <ele>300.23</ele>
        <time>2020-10-11T07:00:32Z</time>
      </trkpt>
      <trkpt lat="43.43502" lon="5.85538">
        <ele>299.36</ele>
        <time>2020-10-11T07:00:36Z</time>
      </trkpt>
      <trkpt lat="43.43481" lon="5.85528">
        <ele>298.66</ele>
        <time>2020-10-11T07:00:40Z</time>
      </trkpt>
      <trkpt lat="43.43463" lon="5.8552">
        <ele>297.3</ele>
        <time>2020-10-11T07:00:43Z</time>
      </trkpt>
      <trkpt lat="43.43445" lon="5.85512">
        <ele>295.99</ele>
        <time>2020-10-11T07:00:46Z</time>
      </trkpt>
      <trkpt lat="43.43426" lon="5.85504">
        <ele>294.27</ele>
        <time>2020-10-11T07:00:49Z</time>
      </trkpt>
      <trkpt lat="43.43407" lon="5.85496">
        <ele>292.81</ele>
        <time>2020-10-11T07:00:52Z</time>
      </trkpt>
      <trkpt lat="43.43389" lon="5.85487">
        <ele>291.55</ele>
        <time>2020-10-11T07:00:55Z</time>
      </trkpt>
      <trkpt lat="43.43371" lon="5.85479">
        <ele>290.57</ele>
        <time>2020-10-11T07:00:58Z</time>
      </trkpt>
      <trkpt lat="43.43349" lon="5.85469">
        <ele>290.11</ele>
        <time>2020-10-11T07:01:02Z</time>
      </trkpt>
      <trkpt lat="43.43326" lon="5.85458">
        <ele>288.57</ele>
        <time>2020-10-11T07:01:06Z</time>
      </trkpt>
      <trkpt lat="43.43308" lon="5.85451">
        <ele>287.68</ele>
        <time>2020-10-11T07:01:09Z</time>
      </trkpt>
      <trkpt lat="43.4329" lon="5.85444">
        <ele>287.12</ele>
        <time>2020-10-11T07:01:12Z</time>
      </trkpt>
      <trkpt lat="43.43269" lon="5.85436">
        <ele>285.76</ele>
        <time>2020-10-11T07:01:15Z</time>
      </trkpt>
      <trkpt lat="43.43249" lon="5.85429">
        <ele>285.39</ele>
        <time>2020-10-11T07:01:18Z</time>
      </trkpt>
      <trkpt lat="43.43232" lon="5.85423">
        <ele>285.29</ele>
        <time>2020-10-11T07:01:21Z</time>
      </trkpt>
      <trkpt lat="43.4321" lon="5.85414">
        <ele>284.88</ele>
        <time>2020-10-11T07:01:25Z</time>
      </trkpt>
      <trkpt lat="43.43191" lon="5.85405">
        <ele>284.95</ele>
        <time>2020-10-11T07:01:29Z</time>
      </trkpt>
      <trkpt lat="43.43174" lon="5.85395">
        <ele>285.24</ele>
        <time>2020-10-11T07:01:33Z</time>
      </trkpt>
      <trkpt lat="43.43155" lon="5.85383">
        <ele>285.64</ele>
        <time>2020-10-11T07:01:38Z</time>
      </trkpt>
      <trkpt lat="43.43139" lon="5.85371">
        <ele>286.3</ele>
        <time>2020-10-11T07:01:43Z</time>
      </trkpt>
      <trkpt lat="43.43118" lon="5.8537">
        <ele>286.64</ele>
        <time>2020-10-11T07:01:50Z</time>
      </trkpt>
      <trkpt lat="43.43101" lon="5.8539">
        <ele>286.67</ele>
        <time>2020-10-11T07:01:55Z</time>
      </trkpt>
      <trkpt lat="43.4309" lon="5.85409">
        <ele>287.53</ele>
        <time>2020-10-11T07:01:59Z</time>
      </trkpt>
      <trkpt lat="43.43078" lon="5.85429">
        <ele>288.4</ele>
        <time>2020-10-11T07:02:03Z</time>
      </trkpt>
      <trkpt lat="43.43067" lon="5.85448">
        <ele>289.59</ele>
        <time>2020-10-11T07:02:07Z</time>
      </trkpt>
      <trkpt lat="43.43054" lon="5.85469">
        <ele>289.9</ele>
        <time>2020-10-11T07:02:11Z</time>
      </trkpt>
      <trkpt lat="43.43042" lon="5.85487">
        <ele>291.2</ele>
        <time>2020-10-11T07:02:15Z</time>
      </trkpt>
      <trkpt lat="43.43028" lon="5.8551">
        <ele>292.62</ele>
        <time>2020-10-11T07:02:20Z</time>
      </trkpt>
      <trkpt lat="43.43014" lon="5.85529">
        <ele>293.74</ele>
        <time>2020-10-11T07:02:25Z</time>
      </trkpt>
      <trkpt lat="43.42998" lon="5.85548">
        <ele>296.07</ele>
        <time>2020-10-11T07:02:31Z</time>
      </trkpt>
      <trkpt lat="43.42981" lon="5.85564">
        <ele>298.86</ele>
        <time>2020-10-11T07:02:37Z</time>
      </trkpt>
      <trkpt lat="43.42965" lon="5.85581">
        <ele>301.96</ele>
        <time>2020-10-11T07:02:43Z</time>
      </trkpt>
      <trkpt lat="43.42949" lon="5.85595">
        <ele>303.25</ele>
        <time>2020-10-11T07:02:48Z</time>
      </trkpt>
      <trkpt lat="43.4293" lon="5.85609">
        <ele>302.37</ele>
        <time>2020-10-11T07:02:53Z</time>
      </trkpt>
      <trkpt lat="43.42911" lon="5.85624">
        <ele>302.01</ele>
        <time>2020-10-11T07:02:57Z</time>
      </trkpt>
      <trkpt lat="43.42895" lon="5.85641">
        <ele>301.22</ele>
        <time>2020-10-11T07:03:00Z</time>
      </trkpt>
      <trkpt lat="43.42882" lon="5.85664">
        <ele>300.23</ele>
        <time>2020-10-11T07:03:03Z</time>
      </trkpt>
      <trkpt lat="43.4287" lon="5.85684">
        <ele>298.74</ele>
        <time>2020-10-11T07:03:06Z</time>
      </trkpt>
      <trkpt lat="43.42855" lon="5.85709">
        <ele>297.49</ele>
        <time>2020-10-11T07:03:10Z</time>
      </trkpt>
      <trkpt lat="43.42842" lon="5.8573">
        <ele>291.85</ele>
        <time>2020-10-11T07:03:15Z</time>
      </trkpt>
      <trkpt lat="43.42822" lon="5.85726">
        <ele>288.16</ele>
        <time>2020-10-11T07:03:20Z</time>
      </trkpt>
      <trkpt lat="43.42804" lon="5.85723">
        <ele>286.52</ele>
        <time>2020-10-11T07:03:24Z</time>
      </trkpt>
      <trkpt lat="43.42784" lon="5.8572">
        <ele>286.32</ele>
        <time>2020-10-11T07:03:28Z</time>
      </trkpt>
      <trkpt lat="43.42764" lon="5.85717">
        <ele>286.09</ele>
        <time>2020-10-11T07:03:32Z</time>
      </trkpt>
      <trkpt lat="43.42745" lon="5.85714">
        <ele>286.05</ele>
        <time>2020-10-11T07:03:36Z</time>
      </trkpt>
      <trkpt lat="43.42727" lon="5.85711">
        <ele>285.93</ele>
        <time>2020-10-11T07:03:40Z</time>
      </trkpt>
      <trkpt lat="43.42706" lon="5.8571">
        <ele>286.4</ele>
        <time>2020-10-11T07:03:45Z</time>
      </trkpt>
      <trkpt lat="43.42683" lon="5.85713">
        <ele>284.9</ele>
        <time>2020-10-11T07:03:50Z</time>
      </trkpt>
      <trkpt lat="43.42665" lon="5.85715">
        <ele>284.07</ele>
        <time>2020-10-11T07:03:53Z</time>
      </trkpt>
      <trkpt lat="43.42646" lon="5.85719">
        <ele>283.9</ele>
        <time>2020-10-11T07:03:56Z</time>
      </trkpt>
      <trkpt lat="43.42628" lon="5.85721">
        <ele>284.13</ele>
        <time>2020-10-11T07:03:59Z</time>
      </trkpt>
      <trkpt lat="43.42609" lon="5.85724">
        <ele>285.79</ele>
        <time>2020-10-11T07:04:03Z</time>
      </trkpt>
      <trkpt lat="43.42588" lon="5.8573">
        <ele>287.72</ele>
        <time>2020-10-11T07:04:09Z</time>
      </trkpt>
      <trkpt lat="43.42568" lon="5.85736">
        <ele>289.59</ele>
        <time>2020-10-11T07:04:15Z</time>
      </trkpt>
      <trkpt lat="43.42547" lon="5.85748">
        <ele>290.68</ele>
        <time>2020-10-11T07:04:22Z</time>
      </trkpt>
      <trkpt lat="43.42526" lon="5.85759">
        <ele>291.8</ele>
        <time>2020-10-11T07:04:27Z</time>
      </trkpt>
      <trkpt lat="43.42505" lon="5.85769">
        <ele>292.15</ele>
        <time>2020-10-11T07:04:31Z</time>
      </trkpt>
      <trkpt lat="43.42488" lon="5.85781">
        <ele>291.25</ele>
        <time>2020-10-11T07:04:35Z</time>
      </trkpt>
      <trkpt lat="43.42469" lon="5.8579">
        <ele>289.77</ele>
        <time>2020-10-11T07:04:39Z</time>
      </trkpt>
      <trkpt lat="43.42449" lon="5.85802">
        <ele>289.04</ele>
        <time>2020-10-11T07:04:44Z</time>
      </trkpt>
      <trkpt lat="43.42432" lon="5.85814">
        <ele>288.68</ele>
        <time>2020-10-11T07:04:48Z</time>
      </trkpt>
      <trkpt lat="43.42416" lon="5.85825">
        <ele>289.3</ele>
        <time>2020-10-11T07:04:54Z</time>
      </trkpt>
      <trkpt lat="43.42399" lon="5.85834">
        <ele>291.41</ele>
        <time>2020-10-11T07:05:00Z</time>
      </trkpt>
      <trkpt lat="43.4238" lon="5.85845">
        <ele>293.53</ele>
        <time>2020-10-11T07:05:07Z</time>
      </trkpt>
      <trkpt lat="43.42363" lon="5.85857">
        <ele>293.88</ele>
        <time>2020-10-11T07:05:13Z</time>
      </trkpt>
      <trkpt lat="43.42346" lon="5.85866">
        <ele>294.11</ele>
        <time>2020-10-11T07:05:19Z</time>
      </trkpt>
      <trkpt lat="43.42329" lon="5.85875">
        <ele>293.94</ele>
        <time>2020-10-11T07:05:24Z</time>
      </trkpt>
      <trkpt lat="43.42308" lon="5.85885">
        <ele>293.36</ele>
        <time>2020-10-11T07:05:29Z</time>
      </trkpt>
      <trkpt lat="43.42291" lon="5.85895">
        <ele>291.98</ele>
        <time>2020-10-11T07:05:33Z</time>
      </trkpt>
      <trkpt lat="43.42272" lon="5.85907">
        <ele>288.93</ele>
        <time>2020-10-11T07:05:38Z</time>
      </trkpt>
      <trkpt lat="43.42252" lon="5.85906">
        <ele>288.83</ele>
        <time>2020-10-11T07:05:43Z</time>
      </trkpt>
      <trkpt lat="43.42233" lon="5.85915">
        <ele>288.56</ele>
        <time>2020-10-11T07:05:48Z</time>
      </trkpt>
      <trkpt lat="43.42215" lon="5.85919">
        <ele>288.71</ele>
        <time>2020-10-11T07:05:53Z</time>
      </trkpt>
      <trkpt lat="43.42197" lon="5.8592">
        <ele>288.17</ele>
        <time>2020-10-11T07:05:58Z</time>
      </trkpt>
      <trkpt lat="43.42176" lon="5.8592">
        <ele>287.53</ele>
        <time>2020-10-11T07:06:03Z</time>
      </trkpt>
      <trkpt lat="43.42157" lon="5.85918">
        <ele>286.22</ele>
        <time>2020-10-11T07:06:08Z</time>
      </trkpt>
      <trkpt lat="43.42137" lon="5.85915">
        <ele>285.71</ele>
        <time>2020-10-11T07:06:12Z</time>
      </trkpt>
      <trkpt lat="43.42116" lon="5.85907">
        <ele>286.45</ele>
        <time>2020-10-11T07:06:16Z</time>
      </trkpt>
      <trkpt lat="43.42096" lon="5.85899">
        <ele>286.38</ele>
        <time>2020-10-11T07:06:21Z</time>
      </trkpt>
      <trkpt lat="43.42077" lon="5.85893">
        <ele>287.72</ele>
        <time>2020-10-11T07:06:27Z</time>
      </trkpt>
      <trkpt lat="43.42058" lon="5.85886">
        <ele>286.31</ele>
        <time>2020-10-11T07:06:32Z</time>
      </trkpt>
      <trkpt lat="43.42039" lon="5.8588">
        <ele>285.31</ele>
        <time>2020-10-11T07:06:36Z</time>
      </trkpt>
      <trkpt lat="43.4202" lon="5.85873">
        <ele>285.76</ele>
        <time>2020-10-11T07:06:40Z</time>
      </trkpt>
      <trkpt lat="43.42001" lon="5.85866">
        <ele>285.77</ele>
        <time>2020-10-11T07:06:46Z</time>
      </trkpt>
      <trkpt lat="43.41982" lon="5.85858">
        <ele>286.54</ele>
        <time>2020-10-11T07:06:54Z</time>
      </trkpt>
      <trkpt lat="43.41967" lon="5.85874">
        <ele>287.68</ele>
        <time>2020-10-11T07:07:02Z</time>
      </trkpt>
      <trkpt lat="43.41955" lon="5.85893">
        <ele>289.35</ele>
        <time>2020-10-11T07:07:08Z</time>
      </trkpt>
      <trkpt lat="43.41944" lon="5.85919">
        <ele>293.22</ele>
        <time>2020-10-11T07:07:14Z</time>
      </trkpt>
      <trkpt lat="43.41936" lon="5.85946">
        <ele>300.26</ele>
        <time>2020-10-11T07:07:21Z</time>
      </trkpt>
      <trkpt lat="43.41928" lon="5.85971">
        <ele>306.85</ele>
        <time>2020-10-11T07:07:27Z</time>
      </trkpt>
      <trkpt lat="43.41921" lon="5.85995">
        <ele>313.06</ele>
        <time>2020-10-11T07:07:32Z</time>
      </trkpt>
      <trkpt lat="43.41913" lon="5.86027">
        <ele>319.94</ele>
        <time>2020-10-11T07:07:37Z</time>
      </trkpt>
      <trkpt lat="43.41906" lon="5.86056">
        <ele>325.97</ele>
        <time>2020-10-11T07:07:42Z</time>
      </trkpt>
      <trkpt lat="43.419" lon="5.86082">
        <ele>330.71</ele>
        <time>2020-10-11T07:07:47Z</time>
      </trkpt>
      <trkpt lat="43.41901" lon="5.86109">
        <ele>332.48</ele>
        <time>2020-10-11T07:07:53Z</time>
      </trkpt>
      <trkpt lat="43.41883" lon="5.86121">
        <ele>337.97</ele>
        <time>2020-10-11T07:08:00Z</time>
      </trkpt>
      <trkpt lat="43.41863" lon="5.8613">
        <ele>341.19</ele>
        <time>2020-10-11T07:08:06Z</time>
      </trkpt>
      <trkpt lat="43.41843" lon="5.86136">
        <ele>342.95</ele>
        <time>2020-10-11T07:08:10Z</time>
      </trkpt>
      <trkpt lat="43.41819" lon="5.86139">
        <ele>343.78</ele>
        <time>2020-10-11T07:08:13Z</time>
      </trkpt>
      <trkpt lat="43.418" lon="5.86134">
        <ele>343.74</ele>
        <time>2020-10-11T07:08:17Z</time>
      </trkpt>
      <trkpt lat="43.41781" lon="5.86125">
        <ele>342.64</ele>
        <time>2020-10-11T07:08:22Z</time>
      </trkpt>
      <trkpt lat="43.41762" lon="5.86131">
        <ele>327.71</ele>
        <time>2020-10-11T07:08:29Z</time>
      </trkpt>
      <trkpt lat="43.41744" lon="5.86118">
        <ele>321.03</ele>
        <time>2020-10-11T07:08:34Z</time>
      </trkpt>
      <trkpt lat="43.41727" lon="5.8611">
        <ele>315.81</ele>
        <time>2020-10-11T07:08:38Z</time>
      </trkpt>
      <trkpt lat="43.41708" lon="5.86101">
        <ele>312.19</ele>
        <time>2020-10-11T07:08:42Z</time>
      </trkpt>
      <trkpt lat="43.4169" lon="5.86096">
        <ele>309.26</ele>
        <time>2020-10-11T07:08:46Z</time>
      </trkpt>
      <trkpt lat="43.41668" lon="5.86102">
        <ele>304.43</ele>
        <time>2020-10-11T07:08:50Z</time>
      </trkpt>
      <trkpt lat="43.41656" lon="5.86123">
        <ele>299.83</ele>
        <time>2020-10-11T07:08:54Z</time>
      </trkpt>
      <trkpt lat="43.41646" lon="5.86149">
        <ele>292.81</ele>
        <time>2020-10-11T07:09:00Z</time>
      </trkpt>
      <trkpt lat="43.4163" lon="5.8613">
        <ele>283.1</ele>
        <time>2020-10-11T07:09:12Z</time>
      </trkpt>
      <trkpt lat="43.41625" lon="5.86102">
        <ele>279.99</ele>
        <time>2020-10-11T07:09:17Z</time>
      </trkpt>
      <trkpt lat="43.41626" lon="5.86072">
        <ele>278.15</ele>
        <time>2020-10-11T07:09:21Z</time>
      </trkpt>
      <trkpt lat="43.41635" lon="5.86042">
        <ele>276.85</ele>
        <time>2020-10-11T07:09:25Z</time>
      </trkpt>
      <trkpt lat="43.41646" lon="5.86016">
        <ele>275.53</ele>
        <time>2020-10-11T07:09:29Z</time>
      </trkpt>
      <trkpt lat="43.41657" lon="5.85995">
        <ele>275.09</ele>
        <time>2020-10-11T07:09:33Z</time>
      </trkpt>
      <trkpt lat="43.41673" lon="5.85977">
        <ele>271.51</ele>
        <time>2020-10-11T07:09:39Z</time>
      </trkpt>
      <trkpt lat="43.41684" lon="5.85952">
        <ele>267.87</ele>
        <time>2020-10-11T07:09:44Z</time>
      </trkpt>
      <trkpt lat="43.41685" lon="5.85926">
        <ele>266.5</ele>
        <time>2020-10-11T07:09:49Z</time>
      </trkpt>
      <trkpt lat="43.41677" lon="5.85901">
        <ele>263.41</ele>
        <time>2020-10-11T07:09:56Z</time>
      </trkpt>
      <trkpt lat="43.41663" lon="5.8588">
        <ele>261</ele>
        <time>2020-10-11T07:10:02Z</time>
      </trkpt>
      <trkpt lat="43.41643" lon="5.8588">
        <ele>260.73</ele>
        <time>2020-10-11T07:10:08Z</time>
      </trkpt>
      <trkpt lat="43.41625" lon="5.85889">
        <ele>263.4</ele>
        <time>2020-10-11T07:10:20Z</time>
      </trkpt>
      <trkpt lat="43.41608" lon="5.85902">
        <ele>265.92</ele>
        <time>2020-10-11T07:10:28Z</time>
      </trkpt>
      <trkpt lat="43.41594" lon="5.85918">
        <ele>267.43</ele>
        <time>2020-10-11T07:10:36Z</time>
      </trkpt>
      <trkpt lat="43.41584" lon="5.85942">
        <ele>270.66</ele>
        <time>2020-10-11T07:10:45Z</time>
      </trkpt>
      <trkpt lat="43.4158" lon="5.85967">
        <ele>276.62</ele>
        <time>2020-10-11T07:10:58Z</time>
      </trkpt>
      <trkpt lat="43.41563" lon="5.85979">
        <ele>277</ele>
        <time>2020-10-11T07:11:21Z</time>
      </trkpt>
      <trkpt lat="43.41545" lon="5.85969">
        <ele>277.01</ele>
        <time>2020-10-11T07:11:32Z</time>
      </trkpt>
      <trkpt lat="43.41528" lon="5.85956">
        <ele>278.12</ele>
        <time>2020-10-11T07:11:45Z</time>
      </trkpt>
      <trkpt lat="43.41509" lon="5.8595">
        <ele>279.34</ele>
        <time>2020-10-11T07:11:54Z</time>
      </trkpt>
      <trkpt lat="43.41491" lon="5.85941">
        <ele>279.79</ele>
        <time>2020-10-11T07:12:03Z</time>
      </trkpt>
      <trkpt lat="43.41473" lon="5.85933">
        <ele>281.07</ele>
        <time>2020-10-11T07:12:14Z</time>
      </trkpt>
      <trkpt lat="43.41456" lon="5.85922">
        <ele>280.39</ele>
        <time>2020-10-11T07:12:26Z</time>
      </trkpt>
      <trkpt lat="43.41438" lon="5.85917">
        <ele>281.83</ele>
        <time>2020-10-11T07:12:38Z</time>
      </trkpt>
      <trkpt lat="43.41422" lon="5.85931">
        <ele>282.82</ele>
        <time>2020-10-11T07:12:49Z</time>
      </trkpt>
      <trkpt lat="43.41425" lon="5.85956">
        <ele>286.3</ele>
        <time>2020-10-11T07:13:06Z</time>
      </trkpt>
      <trkpt lat="43.41435" lon="5.85978">
        <ele>291.62</ele>
        <time>2020-10-11T07:13:34Z</time>
      </trkpt>
      <trkpt lat="43.41421" lon="5.85994">
        <ele>292.17</ele>
        <time>2020-10-11T07:13:48Z</time>
      </trkpt>
      <trkpt lat="43.41402" lon="5.85997">
        <ele>292.39</ele>
        <time>2020-10-11T07:13:56Z</time>
      </trkpt>
      <trkpt lat="43.41382" lon="5.85993">
        <ele>292.35</ele>
        <time>2020-10-11T07:14:03Z</time>
      </trkpt>
      <trkpt lat="43.41362" lon="5.85991">
        <ele>289.61</ele>
        <time>2020-10-11T07:14:09Z</time>
      </trkpt>
      <trkpt lat="43.41343" lon="5.85985">
        <ele>288.32</ele>
        <time>2020-10-11T07:14:15Z</time>
      </trkpt>
      <trkpt lat="43.41323" lon="5.8598">
        <ele>287.79</ele>
        <time>2020-10-11T07:14:21Z</time>
      </trkpt>
      <trkpt lat="43.41303" lon="5.85974">
        <ele>286.41</ele>
        <time>2020-10-11T07:14:27Z</time>
      </trkpt>
      <trkpt lat="43.41282" lon="5.85967">
        <ele>285.52</ele>
        <time>2020-10-11T07:14:33Z</time>
      </trkpt>
      <trkpt lat="43.41263" lon="5.85961">
        <ele>285.17</ele>
        <time>2020-10-11T07:14:38Z</time>
      </trkpt>
      <trkpt lat="43.41245" lon="5.85957">
        <ele>285.78</ele>
        <time>2020-10-11T07:14:43Z</time>
      </trkpt>
      <trkpt lat="43.41226" lon="5.85951">
        <ele>285.54</ele>
        <time>2020-10-11T07:14:48Z</time>
      </trkpt>
      <trkpt lat="43.41205" lon="5.85944">
        <ele>286</ele>
        <time>2020-10-11T07:14:54Z</time>
      </trkpt>
      <trkpt lat="43.41187" lon="5.85938">
        <ele>286.38</ele>
        <time>2020-10-11T07:14:59Z</time>
      </trkpt>
      <trkpt lat="43.41168" lon="5.85931">
        <ele>285.89</ele>
        <time>2020-10-11T07:15:04Z</time>
      </trkpt>
      <trkpt lat="43.41149" lon="5.85925">
        <ele>285.68</ele>
        <time>2020-10-11T07:15:09Z</time>
      </trkpt>
      <trkpt lat="43.41129" lon="5.85919">
        <ele>285.85</ele>
        <time>2020-10-11T07:15:14Z</time>
      </trkpt>
      <trkpt lat="43.4111" lon="5.85912">
        <ele>285.98</ele>
        <time>2020-10-11T07:15:19Z</time>
      </trkpt>
      <trkpt lat="43.41091" lon="5.85906">
        <ele>286.14</ele>
        <time>2020-10-11T07:15:24Z</time>
      </trkpt>
      <trkpt lat="43.41073" lon="5.85899">
        <ele>285.73</ele>
        <time>2020-10-11T07:15:29Z</time>
      </trkpt>
      <trkpt lat="43.41054" lon="5.85892">
        <ele>285.76</ele>
        <time>2020-10-11T07:15:34Z</time>
      </trkpt>
      <trkpt lat="43.41033" lon="5.85886">
        <ele>285.83</ele>
        <time>2020-10-11T07:15:39Z</time>
      </trkpt>
      <trkpt lat="43.41012" lon="5.85883">
        <ele>285.75</ele>
        <time>2020-10-11T07:15:44Z</time>
      </trkpt>
      <trkpt lat="43.40992" lon="5.85882">
        <ele>284.96</ele>
        <time>2020-10-11T07:15:49Z</time>
      </trkpt>
      <trkpt lat="43.40974" lon="5.85882">
        <ele>284.81</ele>
        <time>2020-10-11T07:15:54Z</time>
      </trkpt>
      <trkpt lat="43.40954" lon="5.85886">
        <ele>286.01</ele>
        <time>2020-10-11T07:16:00Z</time>
      </trkpt>
      <trkpt lat="43.40934" lon="5.85892">
        <ele>287</ele>
        <time>2020-10-11T07:16:06Z</time>
      </trkpt>
      <trkpt lat="43.40917" lon="5.85901">
        <ele>287.92</ele>
        <time>2020-10-11T07:16:11Z</time>
      </trkpt>
      <trkpt lat="43.40897" lon="5.85913">
        <ele>288.13</ele>
        <time>2020-10-11T07:16:16Z</time>
      </trkpt>
      <trkpt lat="43.40879" lon="5.85927">
        <ele>288.94</ele>
        <time>2020-10-11T07:16:21Z</time>
      </trkpt>
      <trkpt lat="43.40862" lon="5.85943">
        <ele>288.62</ele>
        <time>2020-10-11T07:16:26Z</time>
      </trkpt>
      <trkpt lat="43.40847" lon="5.85958">
        <ele>287.57</ele>
        <time>2020-10-11T07:16:31Z</time>
      </trkpt>
      <trkpt lat="43.40831" lon="5.85975">
        <ele>285.49</ele>
        <time>2020-10-11T07:16:37Z</time>
      </trkpt>
      <trkpt lat="43.40814" lon="5.85987">
        <ele>285.23</ele>
        <time>2020-10-11T07:16:43Z</time>
      </trkpt>
      <trkpt lat="43.40793" lon="5.8599">
        <ele>285.47</ele>
        <time>2020-10-11T07:16:49Z</time>
      </trkpt>
      <trkpt lat="43.40776" lon="5.8598">
        <ele>285.01</ele>
        <time>2020-10-11T07:16:53Z</time>
      </trkpt>
      <trkpt lat="43.40757" lon="5.85966">
        <ele>285.72</ele>
        <time>2020-10-11T07:16:58Z</time>
      </trkpt>
      <trkpt lat="43.4074" lon="5.85953">
        <ele>286.7</ele>
        <time>2020-10-11T07:17:04Z</time>
      </trkpt>
      <trkpt lat="43.40723" lon="5.85942">
        <ele>289.47</ele>
        <time>2020-10-11T07:17:12Z</time>
      </trkpt>
      <trkpt lat="43.40705" lon="5.85935">
        <ele>292.77</ele>
        <time>2020-10-11T07:17:19Z</time>
      </trkpt>
      <trkpt lat="43.40688" lon="5.85925">
        <ele>296.8</ele>
        <time>2020-10-11T07:17:27Z</time>
      </trkpt>
      <trkpt lat="43.40668" lon="5.85919">
        <ele>300.88</ele>
        <time>2020-10-11T07:17:35Z</time>
      </trkpt>
      <trkpt lat="43.40652" lon="5.85902">
        <ele>303.76</ele>
        <time>2020-10-11T07:17:41Z</time>
      </trkpt>
      <trkpt lat="43.40632" lon="5.85902">
        <ele>305.97</ele>
        <time>2020-10-11T07:17:48Z</time>
      </trkpt>
      <trkpt lat="43.40614" lon="5.85906">
        <ele>309.36</ele>
        <time>2020-10-11T07:17:55Z</time>
      </trkpt>
      <trkpt lat="43.40596" lon="5.85901">
        <ele>311.64</ele>
        <time>2020-10-11T07:17:59Z</time>
      </trkpt>
      <trkpt lat="43.40578" lon="5.85895">
        <ele>313.99</ele>
        <time>2020-10-11T07:18:04Z</time>
      </trkpt>
      <trkpt lat="43.4056" lon="5.85892">
        <ele>315.84</ele>
        <time>2020-10-11T07:18:08Z</time>
      </trkpt>
      <trkpt lat="43.40536" lon="5.85896">
        <ele>317.19</ele>
        <time>2020-10-11T07:18:13Z</time>
      </trkpt>
      <trkpt lat="43.40512" lon="5.85898">
        <ele>315.57</ele>
        <time>2020-10-11T07:18:16Z</time>
      </trkpt>
      <trkpt lat="43.40492" lon="5.85883">
        <ele>314.62</ele>
        <time>2020-10-11T07:18:19Z</time>
      </trkpt>
      <trkpt lat="43.40475" lon="5.85876">
        <ele>313.75</ele>
        <time>2020-10-11T07:18:22Z</time>
      </trkpt>
      <trkpt lat="43.40451" lon="5.85875">
        <ele>310.21</ele>
        <time>2020-10-11T07:18:25Z</time>
      </trkpt>
      <trkpt lat="43.40432" lon="5.85868">
        <ele>307.5</ele>
        <time>2020-10-11T07:18:28Z</time>
      </trkpt>
      <trkpt lat="43.40412" lon="5.85861">
        <ele>302.33</ele>
        <time>2020-10-11T07:18:32Z</time>
      </trkpt>
      <trkpt lat="43.40393" lon="5.85858">
        <ele>297.41</ele>
        <time>2020-10-11T07:18:35Z</time>
      </trkpt>
      <trkpt lat="43.40373" lon="5.85852">
        <ele>293.92</ele>
        <time>2020-10-11T07:18:39Z</time>
      </trkpt>
      <trkpt lat="43.40352" lon="5.85845">
        <ele>291.35</ele>
        <time>2020-10-11T07:18:43Z</time>
      </trkpt>
      <trkpt lat="43.40332" lon="5.8584">
        <ele>288.93</ele>
        <time>2020-10-11T07:18:47Z</time>
      </trkpt>
      <trkpt lat="43.40313" lon="5.85838">
        <ele>287.59</ele>
        <time>2020-10-11T07:18:53Z</time>
      </trkpt>
      <trkpt lat="43.40294" lon="5.85839">
        <ele>286.59</ele>
        <time>2020-10-11T07:18:59Z</time>
      </trkpt>
      <trkpt lat="43.40272" lon="5.85847">
        <ele>283.35</ele>
        <time>2020-10-11T07:19:04Z</time>
      </trkpt>
      <trkpt lat="43.40254" lon="5.85855">
        <ele>281.13</ele>
        <time>2020-10-11T07:19:09Z</time>
      </trkpt>
      <trkpt lat="43.40235" lon="5.85867">
        <ele>279.67</ele>
        <time>2020-10-11T07:19:15Z</time>
      </trkpt>
      <trkpt lat="43.40217" lon="5.85876">
        <ele>278.32</ele>
        <time>2020-10-11T07:19:19Z</time>
      </trkpt>
      <trkpt lat="43.40197" lon="5.85889">
        <ele>279.54</ele>
        <time>2020-10-11T07:19:24Z</time>
      </trkpt>
      <trkpt lat="43.4018" lon="5.859">
        <ele>281.75</ele>
        <time>2020-10-11T07:19:29Z</time>
      </trkpt>
      <trkpt lat="43.40161" lon="5.85911">
        <ele>283.73</ele>
        <time>2020-10-11T07:19:34Z</time>
      </trkpt>
      <trkpt lat="43.40143" lon="5.85921">
        <ele>285.59</ele>
        <time>2020-10-11T07:19:39Z</time>
      </trkpt>
      <trkpt lat="43.40126" lon="5.85928">
        <ele>288.65</ele>
        <time>2020-10-11T07:19:44Z</time>
      </trkpt>
      <trkpt lat="43.40105" lon="5.85938">
        <ele>290.68</ele>
        <time>2020-10-11T07:19:49Z</time>
      </trkpt>
      <trkpt lat="43.40088" lon="5.85947">
        <ele>293.69</ele>
        <time>2020-10-11T07:19:53Z</time>
      </trkpt>
      <trkpt lat="43.40072" lon="5.85959">
        <ele>295.48</ele>
        <time>2020-10-11T07:19:57Z</time>
      </trkpt>
      <trkpt lat="43.40055" lon="5.8597">
        <ele>295.87</ele>
        <time>2020-10-11T07:20:01Z</time>
      </trkpt>
      <trkpt lat="43.40035" lon="5.85983">
        <ele>295.91</ele>
        <time>2020-10-11T07:20:07Z</time>
      </trkpt>
      <trkpt lat="43.40018" lon="5.85994">
        <ele>295.93</ele>
        <time>2020-10-11T07:20:11Z</time>
      </trkpt>
      <trkpt lat="43.39999" lon="5.86009">
        <ele>293.47</ele>
        <time>2020-10-11T07:20:16Z</time>
      </trkpt>
      <trkpt lat="43.39983" lon="5.86021">
        <ele>292.3</ele>
        <time>2020-10-11T07:20:20Z</time>
      </trkpt>
      <trkpt lat="43.39968" lon="5.86036">
        <ele>291.49</ele>
        <time>2020-10-11T07:20:26Z</time>
      </trkpt>
      <trkpt lat="43.39951" lon="5.86046">
        <ele>289.46</ele>
        <time>2020-10-11T07:20:31Z</time>
      </trkpt>
      <trkpt lat="43.39932" lon="5.86053">
        <ele>291.52</ele>
        <time>2020-10-11T07:20:40Z</time>
      </trkpt>
      <trkpt lat="43.39913" lon="5.86049">
        <ele>291.4</ele>
        <time>2020-10-11T07:20:47Z</time>
      </trkpt>
      <trkpt lat="43.39894" lon="5.8604">
        <ele>291.99</ele>
        <time>2020-10-11T07:20:53Z</time>
      </trkpt>
      <trkpt lat="43.39874" lon="5.86039">
        <ele>296.24</ele>
        <time>2020-10-11T07:21:00Z</time>
      </trkpt>
      <trkpt lat="43.39856" lon="5.86035">
        <ele>299.52</ele>
        <time>2020-10-11T07:21:07Z</time>
      </trkpt>
      <trkpt lat="43.39837" lon="5.86036">
        <ele>301.28</ele>
        <time>2020-10-11T07:21:13Z</time>
      </trkpt>
      <trkpt lat="43.39815" lon="5.8604">
        <ele>302.51</ele>
        <time>2020-10-11T07:21:18Z</time>
      </trkpt>
      <trkpt lat="43.39795" lon="5.8604">
        <ele>304.67</ele>
        <time>2020-10-11T07:21:23Z</time>
      </trkpt>
      <trkpt lat="43.39775" lon="5.86038">
        <ele>305.79</ele>
        <time>2020-10-11T07:21:29Z</time>
      </trkpt>
      <trkpt lat="43.39757" lon="5.8603">
        <ele>305.59</ele>
        <time>2020-10-11T07:21:34Z</time>
      </trkpt>
      <trkpt lat="43.39737" lon="5.86032">
        <ele>303.43</ele>
        <time>2020-10-11T07:21:36Z</time>
      </trkpt>
      <trkpt lat="43.39717" lon="5.86025">
        <ele>303.22</ele>
        <time>2020-10-11T07:21:41Z</time>
      </trkpt>
      <trkpt lat="43.39699" lon="5.86016">
        <ele>305.4</ele>
        <time>2020-10-11T07:21:50Z</time>
      </trkpt>
      <trkpt lat="43.39681" lon="5.86012">
        <ele>307.76</ele>
        <time>2020-10-11T07:21:56Z</time>
      </trkpt>
      <trkpt lat="43.39662" lon="5.86014">
        <ele>306.99</ele>
        <time>2020-10-11T07:21:59Z</time>
      </trkpt>
      <trkpt lat="43.39643" lon="5.86014">
        <ele>308.03</ele>
        <time>2020-10-11T07:22:05Z</time>
      </trkpt>
      <trkpt lat="43.39624" lon="5.86014">
        <ele>309.41</ele>
        <time>2020-10-11T07:22:13Z</time>
      </trkpt>
      <trkpt lat="43.39605" lon="5.86026">
        <ele>312.18</ele>
        <time>2020-10-11T07:22:20Z</time>
      </trkpt>
      <trkpt lat="43.39588" lon="5.86041">
        <ele>315.63</ele>
        <time>2020-10-11T07:22:26Z</time>
      </trkpt>
      <trkpt lat="43.39572" lon="5.86056">
        <ele>317.53</ele>
        <time>2020-10-11T07:22:33Z</time>
      </trkpt>
      <trkpt lat="43.39555" lon="5.86067">
        <ele>319.59</ele>
        <time>2020-10-11T07:22:39Z</time>
      </trkpt>
      <trkpt lat="43.39539" lon="5.86079">
        <ele>321.88</ele>
        <time>2020-10-11T07:22:45Z</time>
      </trkpt>
      <trkpt lat="43.39522" lon="5.86093">
        <ele>323.35</ele>
        <time>2020-10-11T07:22:51Z</time>
      </trkpt>
      <trkpt lat="43.39504" lon="5.86101">
        <ele>324.88</ele>
        <time>2020-10-11T07:22:58Z</time>
      </trkpt>
      <trkpt lat="43.39486" lon="5.86102">
        <ele>324.61</ele>
        <time>2020-10-11T07:23:04Z</time>
      </trkpt>
      <trkpt lat="43.39466" lon="5.86094">
        <ele>322.8</ele>
        <time>2020-10-11T07:23:10Z</time>
      </trkpt>
      <trkpt lat="43.39448" lon="5.86085">
        <ele>320.45</ele>
        <time>2020-10-11T07:23:15Z</time>
      </trkpt>
      <trkpt lat="43.39435" lon="5.86068">
        <ele>318.79</ele>
        <time>2020-10-11T07:23:20Z</time>
      </trkpt>
      <trkpt lat="43.39425" lon="5.86044">
        <ele>318.88</ele>
        <time>2020-10-11T07:23:26Z</time>
      </trkpt>
      <trkpt lat="43.39416" lon="5.8602">
        <ele>319.18</ele>
        <time>2020-10-11T07:23:32Z</time>
      </trkpt>
      <trkpt lat="43.3941" lon="5.85994">
        <ele>320.62</ele>
        <time>2020-10-11T07:23:39Z</time>
      </trkpt>
      <trkpt lat="43.39405" lon="5.85969">
        <ele>321.72</ele>
        <time>2020-10-11T07:23:46Z</time>
      </trkpt>
      <trkpt lat="43.39401" lon="5.8594">
        <ele>323.5</ele>
        <time>2020-10-11T07:23:53Z</time>
      </trkpt>
      <trkpt lat="43.394" lon="5.85915">
        <ele>325.39</ele>
        <time>2020-10-11T07:23:59Z</time>
      </trkpt>
      <trkpt lat="43.394" lon="5.85887">
        <ele>327.57</ele>
        <time>2020-10-11T07:24:05Z</time>
      </trkpt>
      <trkpt lat="43.39403" lon="5.8586">
        <ele>328.73</ele>
        <time>2020-10-11T07:24:11Z</time>
      </trkpt>
      <trkpt lat="43.39404" lon="5.85833">
        <ele>330.02</ele>
        <time>2020-10-11T07:24:17Z</time>
      </trkpt>
      <trkpt lat="43.39406" lon="5.85806">
        <ele>330.88</ele>
        <time>2020-10-11T07:24:23Z</time>
      </trkpt>
      <trkpt lat="43.39407" lon="5.85779">
        <ele>332.06</ele>
        <time>2020-10-11T07:24:29Z</time>
      </trkpt>
      <trkpt lat="43.39405" lon="5.8575">
        <ele>333.78</ele>
        <time>2020-10-11T07:24:35Z</time>
      </trkpt>
      <trkpt lat="43.39404" lon="5.85723">
        <ele>334.74</ele>
        <time>2020-10-11T07:24:41Z</time>
      </trkpt>
      <trkpt lat="43.39403" lon="5.85695">
        <ele>335.48</ele>
        <time>2020-10-11T07:24:47Z</time>
      </trkpt>
      <trkpt lat="43.394" lon="5.85668">
        <ele>336.13</ele>
        <time>2020-10-11T07:24:53Z</time>
      </trkpt>
      <trkpt lat="43.39399" lon="5.85641">
        <ele>336.46</ele>
        <time>2020-10-11T07:24:59Z</time>
      </trkpt>
      <trkpt lat="43.39393" lon="5.85612">
        <ele>334.6</ele>
        <time>2020-10-11T07:25:04Z</time>
      </trkpt>
      <trkpt lat="43.39385" lon="5.85587">
        <ele>332.86</ele>
        <time>2020-10-11T07:25:09Z</time>
      </trkpt>
      <trkpt lat="43.39375" lon="5.85562">
        <ele>331.28</ele>
        <time>2020-10-11T07:25:15Z</time>
      </trkpt>
      <trkpt lat="43.39362" lon="5.85545">
        <ele>330.9</ele>
        <time>2020-10-11T07:25:21Z</time>
      </trkpt>
      <trkpt lat="43.39349" lon="5.85525">
        <ele>327.44</ele>
        <time>2020-10-11T07:25:27Z</time>
      </trkpt>
      <trkpt lat="43.39335" lon="5.85504">
        <ele>319.61</ele>
        <time>2020-10-11T07:25:35Z</time>
      </trkpt>
      <trkpt lat="43.39324" lon="5.85477">
        <ele>313.74</ele>
        <time>2020-10-11T07:25:41Z</time>
      </trkpt>
      <trkpt lat="43.39312" lon="5.85454">
        <ele>312.45</ele>
        <time>2020-10-11T07:25:47Z</time>
      </trkpt>
      <trkpt lat="43.39303" lon="5.85432">
        <ele>310.6</ele>
        <time>2020-10-11T07:25:53Z</time>
      </trkpt>
      <trkpt lat="43.39294" lon="5.85408">
        <ele>309.97</ele>
        <time>2020-10-11T07:26:00Z</time>
      </trkpt>
      <trkpt lat="43.39286" lon="5.85381">
        <ele>311.03</ele>
        <time>2020-10-11T07:26:06Z</time>
      </trkpt>
      <trkpt lat="43.39279" lon="5.85354">
        <ele>311.65</ele>
        <time>2020-10-11T07:26:12Z</time>
      </trkpt>
      <trkpt lat="43.39275" lon="5.8533">
        <ele>312.42</ele>
        <time>2020-10-11T07:26:17Z</time>
      </trkpt>
      <trkpt lat="43.39272" lon="5.85301">
        <ele>312.85</ele>
        <time>2020-10-11T07:26:23Z</time>
      </trkpt>
      <trkpt lat="43.39268" lon="5.85274">
        <ele>314.12</ele>
        <time>2020-10-11T07:26:30Z</time>
      </trkpt>
      <trkpt lat="43.39267" lon="5.85247">
        <ele>316.27</ele>
        <time>2020-10-11T07:26:37Z</time>
      </trkpt>
      <trkpt lat="43.39267" lon="5.85217">
        <ele>318.18</ele>
        <time>2020-10-11T07:26:43Z</time>
      </trkpt>
      <trkpt lat="43.39266" lon="5.85189">
        <ele>319.51</ele>
        <time>2020-10-11T07:26:48Z</time>
      </trkpt>
      <trkpt lat="43.39269" lon="5.8516">
        <ele>320.34</ele>
        <time>2020-10-11T07:26:53Z</time>
      </trkpt>
      <trkpt lat="43.39267" lon="5.85132">
        <ele>321.32</ele>
        <time>2020-10-11T07:26:58Z</time>
      </trkpt>
      <trkpt lat="43.3925" lon="5.85119">
        <ele>323</ele>
        <time>2020-10-11T07:27:04Z</time>
      </trkpt>
      <trkpt lat="43.39228" lon="5.85117">
        <ele>324.59</ele>
        <time>2020-10-11T07:27:10Z</time>
      </trkpt>
      <trkpt lat="43.3921" lon="5.85115">
        <ele>326.49</ele>
        <time>2020-10-11T07:27:16Z</time>
      </trkpt>
      <trkpt lat="43.39191" lon="5.85117">
        <ele>329.79</ele>
        <time>2020-10-11T07:27:26Z</time>
      </trkpt>
      <trkpt lat="43.39173" lon="5.85118">
        <ele>330.94</ele>
        <time>2020-10-11T07:27:32Z</time>
      </trkpt>
      <trkpt lat="43.39155" lon="5.85115">
        <ele>330.34</ele>
        <time>2020-10-11T07:27:35Z</time>
      </trkpt>
      <trkpt lat="43.39136" lon="5.85116">
        <ele>331.08</ele>
        <time>2020-10-11T07:27:43Z</time>
      </trkpt>
      <trkpt lat="43.39118" lon="5.85122">
        <ele>330.25</ele>
        <time>2020-10-11T07:27:53Z</time>
      </trkpt>
      <trkpt lat="43.391" lon="5.85128">
        <ele>331.81</ele>
        <time>2020-10-11T07:28:01Z</time>
      </trkpt>
      <trkpt lat="43.39081" lon="5.85131">
        <ele>332.82</ele>
        <time>2020-10-11T07:28:09Z</time>
      </trkpt>
      <trkpt lat="43.39063" lon="5.85131">
        <ele>334.18</ele>
        <time>2020-10-11T07:28:18Z</time>
      </trkpt>
      <trkpt lat="43.39044" lon="5.85133">
        <ele>333.95</ele>
        <time>2020-10-11T07:28:28Z</time>
      </trkpt>
      <trkpt lat="43.39025" lon="5.85132">
        <ele>335.4</ele>
        <time>2020-10-11T07:28:38Z</time>
      </trkpt>
      <trkpt lat="43.39007" lon="5.85131">
        <ele>337.34</ele>
        <time>2020-10-11T07:28:47Z</time>
      </trkpt>
      <trkpt lat="43.38989" lon="5.85129">
        <ele>337.67</ele>
        <time>2020-10-11T07:28:55Z</time>
      </trkpt>
      <trkpt lat="43.3897" lon="5.85127">
        <ele>338.94</ele>
        <time>2020-10-11T07:29:05Z</time>
      </trkpt>
      <trkpt lat="43.38952" lon="5.8512">
        <ele>340.52</ele>
        <time>2020-10-11T07:29:15Z</time>
      </trkpt>
      <trkpt lat="43.38932" lon="5.85118">
        <ele>339.91</ele>
        <time>2020-10-11T07:29:25Z</time>
      </trkpt>
      <trkpt lat="43.38914" lon="5.8512">
        <ele>340.54</ele>
        <time>2020-10-11T07:29:36Z</time>
      </trkpt>
      <trkpt lat="43.38896" lon="5.85122">
        <ele>341.58</ele>
        <time>2020-10-11T07:29:47Z</time>
      </trkpt>
      <trkpt lat="43.38878" lon="5.85127">
        <ele>345.77</ele>
        <time>2020-10-11T07:29:59Z</time>
      </trkpt>
      <trkpt lat="43.38861" lon="5.85134">
        <ele>348.52</ele>
        <time>2020-10-11T07:30:09Z</time>
      </trkpt>
      <trkpt lat="43.38848" lon="5.85153">
        <ele>350.32</ele>
        <time>2020-10-11T07:30:20Z</time>
      </trkpt>
      <trkpt lat="43.38849" lon="5.8518">
        <ele>351.58</ele>
        <time>2020-10-11T07:30:30Z</time>
      </trkpt>
      <trkpt lat="43.38844" lon="5.85204">
        <ele>352.62</ele>
        <time>2020-10-11T07:30:40Z</time>
      </trkpt>
      <trkpt lat="43.38841" lon="5.85229">
        <ele>353.84</ele>
        <time>2020-10-11T07:30:50Z</time>
      </trkpt>
      <trkpt lat="43.3884" lon="5.85254">
        <ele>356.82</ele>
        <time>2020-10-11T07:31:00Z</time>
      </trkpt>
      <trkpt lat="43.3884" lon="5.85281">
        <ele>357.52</ele>
        <time>2020-10-11T07:31:09Z</time>
      </trkpt>
      <trkpt lat="43.3884" lon="5.85306">
        <ele>358.04</ele>
        <time>2020-10-11T07:31:18Z</time>
      </trkpt>
      <trkpt lat="43.38836" lon="5.85332">
        <ele>360.74</ele>
        <time>2020-10-11T07:31:31Z</time>
      </trkpt>
      <trkpt lat="43.3883" lon="5.85357">
        <ele>362.66</ele>
        <time>2020-10-11T07:31:40Z</time>
      </trkpt>
      <trkpt lat="43.38822" lon="5.85381">
        <ele>367.54</ele>
        <time>2020-10-11T07:31:51Z</time>
      </trkpt>
      <trkpt lat="43.38809" lon="5.85402">
        <ele>369.89</ele>
        <time>2020-10-11T07:32:01Z</time>
      </trkpt>
      <trkpt lat="43.38794" lon="5.85419">
        <ele>369.14</ele>
        <time>2020-10-11T07:32:11Z</time>
      </trkpt>
      <trkpt lat="43.3878" lon="5.85437">
        <ele>371.29</ele>
        <time>2020-10-11T07:32:22Z</time>
      </trkpt>
      <trkpt lat="43.38764" lon="5.85452">
        <ele>374.16</ele>
        <time>2020-10-11T07:32:34Z</time>
      </trkpt>
      <trkpt lat="43.38747" lon="5.85462">
        <ele>375.35</ele>
        <time>2020-10-11T07:32:42Z</time>
      </trkpt>
      <trkpt lat="43.38728" lon="5.8547">
        <ele>376.8</ele>
        <time>2020-10-11T07:32:51Z</time>
      </trkpt>
      <trkpt lat="43.38709" lon="5.85478">
        <ele>375.27</ele>
        <time>2020-10-11T07:33:01Z</time>
      </trkpt>
      <trkpt lat="43.3869" lon="5.85484">
        <ele>377.13</ele>
        <time>2020-10-11T07:33:11Z</time>
      </trkpt>
      <trkpt lat="43.38672" lon="5.8549">
        <ele>379.8</ele>
        <time>2020-10-11T07:33:22Z</time>
      </trkpt>
      <trkpt lat="43.38655" lon="5.85501">
        <ele>382.73</ele>
        <time>2020-10-11T07:33:33Z</time>
      </trkpt>
      <trkpt lat="43.38637" lon="5.85512">
        <ele>385.47</ele>
        <time>2020-10-11T07:33:43Z</time>
      </trkpt>
      <trkpt lat="43.38619" lon="5.85524">
        <ele>386.12</ele>
        <time>2020-10-11T07:33:51Z</time>
      </trkpt>
      <trkpt lat="43.38604" lon="5.8554">
        <ele>388.73</ele>
        <time>2020-10-11T07:34:01Z</time>
      </trkpt>
      <trkpt lat="43.38592" lon="5.85559">
        <ele>391.79</ele>
        <time>2020-10-11T07:34:10Z</time>
      </trkpt>
      <trkpt lat="43.38578" lon="5.85575">
        <ele>394.2</ele>
        <time>2020-10-11T07:34:21Z</time>
      </trkpt>
      <trkpt lat="43.3856" lon="5.85589">
        <ele>395.27</ele>
        <time>2020-10-11T07:34:31Z</time>
      </trkpt>
      <trkpt lat="43.38543" lon="5.85603">
        <ele>397.11</ele>
        <time>2020-10-11T07:34:41Z</time>
      </trkpt>
      <trkpt lat="43.38524" lon="5.85611">
        <ele>395.99</ele>
        <time>2020-10-11T07:34:48Z</time>
      </trkpt>
      <trkpt lat="43.38506" lon="5.85622">
        <ele>394.93</ele>
        <time>2020-10-11T07:34:55Z</time>
      </trkpt>
      <trkpt lat="43.38488" lon="5.85635">
        <ele>394.87</ele>
        <time>2020-10-11T07:35:03Z</time>
      </trkpt>
      <trkpt lat="43.38468" lon="5.85635">
        <ele>396.53</ele>
        <time>2020-10-11T07:35:12Z</time>
      </trkpt>
      <trkpt lat="43.38449" lon="5.8563">
        <ele>395.33</ele>
        <time>2020-10-11T07:35:21Z</time>
      </trkpt>
      <trkpt lat="43.3843" lon="5.85625">
        <ele>395.62</ele>
        <time>2020-10-11T07:35:29Z</time>
      </trkpt>
      <trkpt lat="43.38412" lon="5.85621">
        <ele>396.96</ele>
        <time>2020-10-11T07:35:38Z</time>
      </trkpt>
      <trkpt lat="43.38393" lon="5.85616">
        <ele>397.84</ele>
        <time>2020-10-11T07:35:47Z</time>
      </trkpt>
      <trkpt lat="43.38374" lon="5.85605">
        <ele>399.38</ele>
        <time>2020-10-11T07:35:55Z</time>
      </trkpt>
      <trkpt lat="43.38355" lon="5.85605">
        <ele>403.29</ele>
        <time>2020-10-11T07:36:06Z</time>
      </trkpt>
      <trkpt lat="43.38337" lon="5.85612">
        <ele>406.19</ele>
        <time>2020-10-11T07:36:17Z</time>
      </trkpt>
      <trkpt lat="43.38319" lon="5.85618">
        <ele>409.57</ele>
        <time>2020-10-11T07:36:25Z</time>
      </trkpt>
      <trkpt lat="43.38301" lon="5.85624">
        <ele>412.07</ele>
        <time>2020-10-11T07:36:33Z</time>
      </trkpt>
      <trkpt lat="43.38284" lon="5.85635">
        <ele>415.35</ele>
        <time>2020-10-11T07:36:43Z</time>
      </trkpt>
      <trkpt lat="43.38267" lon="5.85648">
        <ele>415.93</ele>
        <time>2020-10-11T07:36:50Z</time>
      </trkpt>
      <trkpt lat="43.38258" lon="5.8567">
        <ele>413.52</ele>
        <time>2020-10-11T07:36:59Z</time>
      </trkpt>
      <trkpt lat="43.38252" lon="5.85694">
        <ele>412.87</ele>
        <time>2020-10-11T07:37:08Z</time>
      </trkpt>
      <trkpt lat="43.38245" lon="5.85719">
        <ele>413.81</ele>
        <time>2020-10-11T07:37:17Z</time>
      </trkpt>
      <trkpt lat="43.38234" lon="5.85739">
        <ele>414.92</ele>
        <time>2020-10-11T07:37:26Z</time>
      </trkpt>
      <trkpt lat="43.38228" lon="5.85763">
        <ele>415.36</ele>
        <time>2020-10-11T07:37:35Z</time>
      </trkpt>
      <trkpt lat="43.38219" lon="5.85786">
        <ele>415.85</ele>
        <time>2020-10-11T07:37:44Z</time>
      </trkpt>
      <trkpt lat="43.3821" lon="5.85808">
        <ele>418.14</ele>
        <time>2020-10-11T07:37:53Z</time>
      </trkpt>
      <trkpt lat="43.38203" lon="5.85832">
        <ele>420.85</ele>
        <time>2020-10-11T07:38:03Z</time>
      </trkpt>
      <trkpt lat="43.38195" lon="5.85856">
        <ele>423.68</ele>
        <time>2020-10-11T07:38:13Z</time>
      </trkpt>
      <trkpt lat="43.38185" lon="5.85879">
        <ele>425.72</ele>
        <time>2020-10-11T07:38:23Z</time>
      </trkpt>
      <trkpt lat="43.38171" lon="5.85899">
        <ele>427.51</ele>
        <time>2020-10-11T07:38:33Z</time>
      </trkpt>
      <trkpt lat="43.38157" lon="5.85917">
        <ele>429.44</ele>
        <time>2020-10-11T07:38:43Z</time>
      </trkpt>
      <trkpt lat="43.38144" lon="5.85936">
        <ele>431.51</ele>
        <time>2020-10-11T07:38:53Z</time>
      </trkpt>
      <trkpt lat="43.38131" lon="5.85955">
        <ele>434.29</ele>
        <time>2020-10-11T07:39:02Z</time>
      </trkpt>
      <trkpt lat="43.38114" lon="5.85967">
        <ele>437.97</ele>
        <time>2020-10-11T07:39:14Z</time>
      </trkpt>
      <trkpt lat="43.38097" lon="5.8598">
        <ele>441.02</ele>
        <time>2020-10-11T07:39:23Z</time>
      </trkpt>
      <trkpt lat="43.38081" lon="5.85993">
        <ele>444.29</ele>
        <time>2020-10-11T07:39:33Z</time>
      </trkpt>
      <trkpt lat="43.38063" lon="5.85999">
        <ele>446.34</ele>
        <time>2020-10-11T07:39:42Z</time>
      </trkpt>
      <trkpt lat="43.38044" lon="5.86003">
        <ele>447.9</ele>
        <time>2020-10-11T07:39:52Z</time>
      </trkpt>
      <trkpt lat="43.38024" lon="5.86004">
        <ele>448.74</ele>
        <time>2020-10-11T07:40:01Z</time>
      </trkpt>
      <trkpt lat="43.38004" lon="5.86006">
        <ele>450.65</ele>
        <time>2020-10-11T07:40:12Z</time>
      </trkpt>
      <trkpt lat="43.37985" lon="5.86009">
        <ele>451.66</ele>
        <time>2020-10-11T07:40:22Z</time>
      </trkpt>
      <trkpt lat="43.37966" lon="5.86015">
        <ele>452.74</ele>
        <time>2020-10-11T07:40:32Z</time>
      </trkpt>
      <trkpt lat="43.37947" lon="5.86014">
        <ele>453.86</ele>
        <time>2020-10-11T07:40:42Z</time>
      </trkpt>
      <trkpt lat="43.37928" lon="5.86006">
        <ele>454.5</ele>
        <time>2020-10-11T07:40:52Z</time>
      </trkpt>
      <trkpt lat="43.37912" lon="5.85994">
        <ele>453.9</ele>
        <time>2020-10-11T07:41:01Z</time>
      </trkpt>
      <trkpt lat="43.37898" lon="5.85978">
        <ele>453.98</ele>
        <time>2020-10-11T07:41:10Z</time>
      </trkpt>
      <trkpt lat="43.37883" lon="5.8596">
        <ele>453.29</ele>
        <time>2020-10-11T07:41:20Z</time>
      </trkpt>
      <trkpt lat="43.37868" lon="5.85942">
        <ele>451.46</ele>
        <time>2020-10-11T07:41:30Z</time>
      </trkpt>
      <trkpt lat="43.3786" lon="5.85921">
        <ele>450.72</ele>
        <time>2020-10-11T07:41:39Z</time>
      </trkpt>
      <trkpt lat="43.3785" lon="5.85899">
        <ele>452.72</ele>
        <time>2020-10-11T07:41:50Z</time>
      </trkpt>
      <trkpt lat="43.37841" lon="5.85876">
        <ele>453.58</ele>
        <time>2020-10-11T07:42:00Z</time>
      </trkpt>
      <trkpt lat="43.37829" lon="5.85856">
        <ele>454.54</ele>
        <time>2020-10-11T07:42:09Z</time>
      </trkpt>
      <trkpt lat="43.37818" lon="5.85836">
        <ele>456.42</ele>
        <time>2020-10-11T07:42:20Z</time>
      </trkpt>
      <trkpt lat="43.37807" lon="5.85815">
        <ele>458.22</ele>
        <time>2020-10-11T07:42:31Z</time>
      </trkpt>
      <trkpt lat="43.37799" lon="5.8579">
        <ele>460.52</ele>
        <time>2020-10-11T07:42:42Z</time>
      </trkpt>
      <trkpt lat="43.37791" lon="5.85767">
        <ele>461.93</ele>
        <time>2020-10-11T07:42:52Z</time>
      </trkpt>
      <trkpt lat="43.37785" lon="5.8574">
        <ele>463.8</ele>
        <time>2020-10-11T07:43:03Z</time>
      </trkpt>
      <trkpt lat="43.37781" lon="5.85714">
        <ele>464.55</ele>
        <time>2020-10-11T07:43:12Z</time>
      </trkpt>
      <trkpt lat="43.37772" lon="5.85691">
        <ele>466.56</ele>
        <time>2020-10-11T07:43:22Z</time>
      </trkpt>
      <trkpt lat="43.37762" lon="5.8567">
        <ele>468.02</ele>
        <time>2020-10-11T07:43:32Z</time>
      </trkpt>
      <trkpt lat="43.37748" lon="5.85652">
        <ele>469.9</ele>
        <time>2020-10-11T07:43:41Z</time>
      </trkpt>
      <trkpt lat="43.37731" lon="5.85639">
        <ele>472.54</ele>
        <time>2020-10-11T07:43:52Z</time>
      </trkpt>
      <trkpt lat="43.37714" lon="5.85631">
        <ele>470.62</ele>
        <time>2020-10-11T07:44:00Z</time>
      </trkpt>
      <trkpt lat="43.37695" lon="5.85634">
        <ele>470.75</ele>
        <time>2020-10-11T07:44:09Z</time>
      </trkpt>
      <trkpt lat="43.37676" lon="5.8564">
        <ele>470.19</ele>
        <time>2020-10-11T07:44:16Z</time>
      </trkpt>
      <trkpt lat="43.37657" lon="5.85646">
        <ele>470.57</ele>
        <time>2020-10-11T07:44:23Z</time>
      </trkpt>
      <trkpt lat="43.37639" lon="5.85648">
        <ele>468.83</ele>
        <time>2020-10-11T07:44:29Z</time>
      </trkpt>
      <trkpt lat="43.3762" lon="5.85652">
        <ele>468.58</ele>
        <time>2020-10-11T07:44:36Z</time>
      </trkpt>
      <trkpt lat="43.37602" lon="5.85661">
        <ele>469.53</ele>
        <time>2020-10-11T07:44:43Z</time>
      </trkpt>
      <trkpt lat="43.37585" lon="5.85673">
        <ele>471.51</ele>
        <time>2020-10-11T07:44:50Z</time>
      </trkpt>
      <trkpt lat="43.3757" lon="5.85688">
        <ele>471.79</ele>
        <time>2020-10-11T07:44:56Z</time>
      </trkpt>
      <trkpt lat="43.37554" lon="5.85705">
        <ele>472.28</ele>
        <time>2020-10-11T07:45:03Z</time>
      </trkpt>
      <trkpt lat="43.37538" lon="5.85723">
        <ele>472.26</ele>
        <time>2020-10-11T07:45:11Z</time>
      </trkpt>
      <trkpt lat="43.37528" lon="5.85745">
        <ele>472.33</ele>
        <time>2020-10-11T07:45:18Z</time>
      </trkpt>
      <trkpt lat="43.37515" lon="5.85765">
        <ele>472.43</ele>
        <time>2020-10-11T07:45:26Z</time>
      </trkpt>
      <trkpt lat="43.37498" lon="5.85777">
        <ele>474.78</ele>
        <time>2020-10-11T07:45:36Z</time>
      </trkpt>
      <trkpt lat="43.3748" lon="5.85783">
        <ele>475.9</ele>
        <time>2020-10-11T07:45:46Z</time>
      </trkpt>
      <trkpt lat="43.37461" lon="5.85779">
        <ele>477.46</ele>
        <time>2020-10-11T07:45:54Z</time>
      </trkpt>
      <trkpt lat="43.37442" lon="5.85768">
        <ele>478.89</ele>
        <time>2020-10-11T07:46:02Z</time>
      </trkpt>
      <trkpt lat="43.37427" lon="5.85754">
        <ele>479.55</ele>
        <time>2020-10-11T07:46:10Z</time>
      </trkpt>
      <trkpt lat="43.37412" lon="5.85741">
        <ele>478.76</ele>
        <time>2020-10-11T07:46:18Z</time>
      </trkpt>
      <trkpt lat="43.37394" lon="5.85728">
        <ele>478.18</ele>
        <time>2020-10-11T07:46:26Z</time>
      </trkpt>
      <trkpt lat="43.37376" lon="5.85715">
        <ele>478.64</ele>
        <time>2020-10-11T07:46:34Z</time>
      </trkpt>
      <trkpt lat="43.3736" lon="5.85701">
        <ele>480.76</ele>
        <time>2020-10-11T07:46:42Z</time>
      </trkpt>
      <trkpt lat="43.37344" lon="5.85685">
        <ele>482.81</ele>
        <time>2020-10-11T07:46:50Z</time>
      </trkpt>
      <trkpt lat="43.37329" lon="5.85668">
        <ele>485.05</ele>
        <time>2020-10-11T07:46:58Z</time>
      </trkpt>
      <trkpt lat="43.37314" lon="5.85651">
        <ele>486.4</ele>
        <time>2020-10-11T07:47:06Z</time>
      </trkpt>
      <trkpt lat="43.37301" lon="5.85631">
        <ele>486.58</ele>
        <time>2020-10-11T07:47:13Z</time>
      </trkpt>
      <trkpt lat="43.3729" lon="5.85611">
        <ele>485.23</ele>
        <time>2020-10-11T07:47:20Z</time>
      </trkpt>
      <trkpt lat="43.37277" lon="5.8559">
        <ele>485.49</ele>
        <time>2020-10-11T07:47:28Z</time>
      </trkpt>
      <trkpt lat="43.37264" lon="5.85571">
        <ele>486.42</ele>
        <time>2020-10-11T07:47:36Z</time>
      </trkpt>
      <trkpt lat="43.37253" lon="5.85551">
        <ele>487.05</ele>
        <time>2020-10-11T07:47:43Z</time>
      </trkpt>
      <trkpt lat="43.37238" lon="5.85537">
        <ele>489.42</ele>
        <time>2020-10-11T07:47:59Z</time>
      </trkpt>
      <trkpt lat="43.37219" lon="5.85534">
        <ele>492.87</ele>
        <time>2020-10-11T07:48:10Z</time>
      </trkpt>
      <trkpt lat="43.37203" lon="5.85525">
        <ele>496.27</ele>
        <time>2020-10-11T07:48:19Z</time>
      </trkpt>
      <trkpt lat="43.37184" lon="5.85519">
        <ele>498.82</ele>
        <time>2020-10-11T07:48:29Z</time>
      </trkpt>
      <trkpt lat="43.37168" lon="5.85509">
        <ele>500.52</ele>
        <time>2020-10-11T07:48:37Z</time>
      </trkpt>
      <trkpt lat="43.37152" lon="5.85498">
        <ele>501.4</ele>
        <time>2020-10-11T07:48:44Z</time>
      </trkpt>
      <trkpt lat="43.37133" lon="5.8549">
        <ele>502.57</ele>
        <time>2020-10-11T07:48:51Z</time>
      </trkpt>
      <trkpt lat="43.37115" lon="5.85477">
        <ele>501.61</ele>
        <time>2020-10-11T07:48:57Z</time>
      </trkpt>
      <trkpt lat="43.37097" lon="5.85465">
        <ele>500.92</ele>
        <time>2020-10-11T07:49:04Z</time>
      </trkpt>
      <trkpt lat="43.37081" lon="5.85451">
        <ele>499.73</ele>
        <time>2020-10-11T07:49:10Z</time>
      </trkpt>
      <trkpt lat="43.37063" lon="5.85435">
        <ele>497.43</ele>
        <time>2020-10-11T07:49:17Z</time>
      </trkpt>
      <trkpt lat="43.37045" lon="5.85422">
        <ele>496.54</ele>
        <time>2020-10-11T07:49:23Z</time>
      </trkpt>
      <trkpt lat="43.37027" lon="5.85417">
        <ele>497.44</ele>
        <time>2020-10-11T07:49:29Z</time>
      </trkpt>
      <trkpt lat="43.37008" lon="5.85404">
        <ele>497.1</ele>
        <time>2020-10-11T07:49:36Z</time>
      </trkpt>
      <trkpt lat="43.36992" lon="5.85392">
        <ele>496.16</ele>
        <time>2020-10-11T07:49:43Z</time>
      </trkpt>
      <trkpt lat="43.36976" lon="5.85381">
        <ele>497.97</ele>
        <time>2020-10-11T07:49:52Z</time>
      </trkpt>
      <trkpt lat="43.36962" lon="5.85363">
        <ele>498.6</ele>
        <time>2020-10-11T07:50:00Z</time>
      </trkpt>
      <trkpt lat="43.36945" lon="5.85355">
        <ele>502.45</ele>
        <time>2020-10-11T07:50:11Z</time>
      </trkpt>
      <trkpt lat="43.3692" lon="5.85351">
        <ele>500.15</ele>
        <time>2020-10-11T07:50:59Z</time>
      </trkpt>
      <trkpt lat="43.36902" lon="5.85341">
        <ele>496.89</ele>
        <time>2020-10-11T07:54:14Z</time>
      </trkpt>
      <trkpt lat="43.36885" lon="5.85332">
        <ele>496</ele>
        <time>2020-10-11T07:54:22Z</time>
      </trkpt>
      <trkpt lat="43.36872" lon="5.85313">
        <ele>494.5</ele>
        <time>2020-10-11T07:54:30Z</time>
      </trkpt>
      <trkpt lat="43.36858" lon="5.85289">
        <ele>493.03</ele>
        <time>2020-10-11T07:54:37Z</time>
      </trkpt>
      <trkpt lat="43.36846" lon="5.8527">
        <ele>490.97</ele>
        <time>2020-10-11T07:54:42Z</time>
      </trkpt>
      <trkpt lat="43.36831" lon="5.85252">
        <ele>489.07</ele>
        <time>2020-10-11T07:54:47Z</time>
      </trkpt>
      <trkpt lat="43.36813" lon="5.85235">
        <ele>487.54</ele>
        <time>2020-10-11T07:54:52Z</time>
      </trkpt>
      <trkpt lat="43.36791" lon="5.8523">
        <ele>486.6</ele>
        <time>2020-10-11T07:54:57Z</time>
      </trkpt>
      <trkpt lat="43.36774" lon="5.85225">
        <ele>485.64</ele>
        <time>2020-10-11T07:55:01Z</time>
      </trkpt>
      <trkpt lat="43.36757" lon="5.85215">
        <ele>484.7</ele>
        <time>2020-10-11T07:55:05Z</time>
      </trkpt>
      <trkpt lat="43.36739" lon="5.85204">
        <ele>483.04</ele>
        <time>2020-10-11T07:55:10Z</time>
      </trkpt>
      <trkpt lat="43.36723" lon="5.85192">
        <ele>482.72</ele>
        <time>2020-10-11T07:55:20Z</time>
      </trkpt>
      <trkpt lat="43.36707" lon="5.85179">
        <ele>484.32</ele>
        <time>2020-10-11T07:55:38Z</time>
      </trkpt>
      <trkpt lat="43.36695" lon="5.85159">
        <ele>486.84</ele>
        <time>2020-10-11T07:55:54Z</time>
      </trkpt>
      <trkpt lat="43.36684" lon="5.85139">
        <ele>490.96</ele>
        <time>2020-10-11T07:56:13Z</time>
      </trkpt>
      <trkpt lat="43.36673" lon="5.85119">
        <ele>495.1</ele>
        <time>2020-10-11T07:56:32Z</time>
      </trkpt>
      <trkpt lat="43.3666" lon="5.851">
        <ele>498.32</ele>
        <time>2020-10-11T07:56:51Z</time>
      </trkpt>
      <trkpt lat="43.36646" lon="5.85083">
        <ele>503.23</ele>
        <time>2020-10-11T07:57:12Z</time>
      </trkpt>
      <trkpt lat="43.36633" lon="5.85064">
        <ele>506.12</ele>
        <time>2020-10-11T07:57:29Z</time>
      </trkpt>
      <trkpt lat="43.36619" lon="5.85047">
        <ele>509.65</ele>
        <time>2020-10-11T07:57:51Z</time>
      </trkpt>
      <trkpt lat="43.36603" lon="5.85033">
        <ele>511.03</ele>
        <time>2020-10-11T07:58:04Z</time>
      </trkpt>
      <trkpt lat="43.36585" lon="5.85027">
        <ele>513.12</ele>
        <time>2020-10-11T07:58:17Z</time>
      </trkpt>
      <trkpt lat="43.36567" lon="5.85031">
        <ele>515.82</ele>
        <time>2020-10-11T07:58:28Z</time>
      </trkpt>
      <trkpt lat="43.36547" lon="5.85038">
        <ele>510.62</ele>
        <time>2020-10-11T08:00:25Z</time>
      </trkpt>
      <trkpt lat="43.36529" lon="5.85052">
        <ele>511.76</ele>
        <time>2020-10-11T08:00:32Z</time>
      </trkpt>
      <trkpt lat="43.36508" lon="5.85062">
        <ele>512.19</ele>
        <time>2020-10-11T08:00:38Z</time>
      </trkpt>
      <trkpt lat="43.36488" lon="5.8507">
        <ele>511.65</ele>
        <time>2020-10-11T08:00:43Z</time>
      </trkpt>
      <trkpt lat="43.3647" lon="5.85079">
        <ele>511.85</ele>
        <time>2020-10-11T08:00:49Z</time>
      </trkpt>
      <trkpt lat="43.3645" lon="5.85087">
        <ele>512.6</ele>
        <time>2020-10-11T08:00:55Z</time>
      </trkpt>
      <trkpt lat="43.36429" lon="5.85091">
        <ele>513.38</ele>
        <time>2020-10-11T08:01:01Z</time>
      </trkpt>
      <trkpt lat="43.36409" lon="5.85087">
        <ele>513.65</ele>
        <time>2020-10-11T08:01:07Z</time>
      </trkpt>
      <trkpt lat="43.36387" lon="5.85086">
        <ele>512.06</ele>
        <time>2020-10-11T08:01:13Z</time>
      </trkpt>
      <trkpt lat="43.36367" lon="5.85094">
        <ele>508.05</ele>
        <time>2020-10-11T08:01:17Z</time>
      </trkpt>
      <trkpt lat="43.36357" lon="5.85116">
        <ele>504.4</ele>
        <time>2020-10-11T08:01:22Z</time>
      </trkpt>
      <trkpt lat="43.36353" lon="5.85143">
        <ele>502.56</ele>
        <time>2020-10-11T08:01:26Z</time>
      </trkpt>
      <trkpt lat="43.36354" lon="5.85168">
        <ele>501.22</ele>
        <time>2020-10-11T08:01:30Z</time>
      </trkpt>
      <trkpt lat="43.36354" lon="5.85195">
        <ele>500.04</ele>
        <time>2020-10-11T08:01:36Z</time>
      </trkpt>
      <trkpt lat="43.36353" lon="5.85222">
        <ele>499.32</ele>
        <time>2020-10-11T08:01:41Z</time>
      </trkpt>
      <trkpt lat="43.36351" lon="5.85249">
        <ele>498.24</ele>
        <time>2020-10-11T08:01:46Z</time>
      </trkpt>
      <trkpt lat="43.36347" lon="5.85276">
        <ele>494.9</ele>
        <time>2020-10-11T08:01:52Z</time>
      </trkpt>
      <trkpt lat="43.36349" lon="5.85301">
        <ele>493.79</ele>
        <time>2020-10-11T08:01:58Z</time>
      </trkpt>
      <trkpt lat="43.36356" lon="5.85327">
        <ele>493.25</ele>
        <time>2020-10-11T08:02:04Z</time>
      </trkpt>
      <trkpt lat="43.36369" lon="5.85349">
        <ele>492.07</ele>
        <time>2020-10-11T08:02:10Z</time>
      </trkpt>
      <trkpt lat="43.36374" lon="5.85377">
        <ele>490.22</ele>
        <time>2020-10-11T08:02:15Z</time>
      </trkpt>
      <trkpt lat="43.36382" lon="5.85401">
        <ele>486.68</ele>
        <time>2020-10-11T08:02:20Z</time>
      </trkpt>
      <trkpt lat="43.36387" lon="5.85426">
        <ele>484.02</ele>
        <time>2020-10-11T08:02:26Z</time>
      </trkpt>
      <trkpt lat="43.36393" lon="5.85453">
        <ele>482.1</ele>
        <time>2020-10-11T08:02:31Z</time>
      </trkpt>
      <trkpt lat="43.364" lon="5.85479">
        <ele>480.53</ele>
        <time>2020-10-11T08:02:36Z</time>
      </trkpt>
      <trkpt lat="43.36407" lon="5.85503">
        <ele>478.29</ele>
        <time>2020-10-11T08:02:42Z</time>
      </trkpt>
      <trkpt lat="43.364" lon="5.85529">
        <ele>477.51</ele>
        <time>2020-10-11T08:02:49Z</time>
      </trkpt>
      <trkpt lat="43.36405" lon="5.85553">
        <ele>476.38</ele>
        <time>2020-10-11T08:02:54Z</time>
      </trkpt>
      <trkpt lat="43.36406" lon="5.85581">
        <ele>475.32</ele>
        <time>2020-10-11T08:03:00Z</time>
      </trkpt>
      <trkpt lat="43.3641" lon="5.85607">
        <ele>472.96</ele>
        <time>2020-10-11T08:03:06Z</time>
      </trkpt>
      <trkpt lat="43.36419" lon="5.8563">
        <ele>471.09</ele>
        <time>2020-10-11T08:03:11Z</time>
      </trkpt>
      <trkpt lat="43.3643" lon="5.85653">
        <ele>469.89</ele>
        <time>2020-10-11T08:03:16Z</time>
      </trkpt>
      <trkpt lat="43.36439" lon="5.85676">
        <ele>468.25</ele>
        <time>2020-10-11T08:03:21Z</time>
      </trkpt>
      <trkpt lat="43.3645" lon="5.85698">
        <ele>466.16</ele>
        <time>2020-10-11T08:03:27Z</time>
      </trkpt>
      <trkpt lat="43.36459" lon="5.85719">
        <ele>464.49</ele>
        <time>2020-10-11T08:03:32Z</time>
      </trkpt>
      <trkpt lat="43.36467" lon="5.85745">
        <ele>463.55</ele>
        <time>2020-10-11T08:03:38Z</time>
      </trkpt>
      <trkpt lat="43.36478" lon="5.85769">
        <ele>461.8</ele>
        <time>2020-10-11T08:03:45Z</time>
      </trkpt>
      <trkpt lat="43.36482" lon="5.85796">
        <ele>459.39</ele>
        <time>2020-10-11T08:03:50Z</time>
      </trkpt>
      <trkpt lat="43.36485" lon="5.85823">
        <ele>456.93</ele>
        <time>2020-10-11T08:03:56Z</time>
      </trkpt>
      <trkpt lat="43.36471" lon="5.85846">
        <ele>455.3</ele>
        <time>2020-10-11T08:04:01Z</time>
      </trkpt>
      <trkpt lat="43.36452" lon="5.85848">
        <ele>456.72</ele>
        <time>2020-10-11T08:04:06Z</time>
      </trkpt>
      <trkpt lat="43.36434" lon="5.85851">
        <ele>457.22</ele>
        <time>2020-10-11T08:04:10Z</time>
      </trkpt>
      <trkpt lat="43.36415" lon="5.85848">
        <ele>458.31</ele>
        <time>2020-10-11T08:04:15Z</time>
      </trkpt>
      <trkpt lat="43.36398" lon="5.85854">
        <ele>460.28</ele>
        <time>2020-10-11T08:04:23Z</time>
      </trkpt>
      <trkpt lat="43.36376" lon="5.85857">
        <ele>462.12</ele>
        <time>2020-10-11T08:04:31Z</time>
      </trkpt>
      <trkpt lat="43.36355" lon="5.85864">
        <ele>462.03</ele>
        <time>2020-10-11T08:04:36Z</time>
      </trkpt>
      <trkpt lat="43.36335" lon="5.85876">
        <ele>456.92</ele>
        <time>2020-10-11T08:04:42Z</time>
      </trkpt>
      <trkpt lat="43.36315" lon="5.85883">
        <ele>453.37</ele>
        <time>2020-10-11T08:04:48Z</time>
      </trkpt>
      <trkpt lat="43.36295" lon="5.85886">
        <ele>449.42</ele>
        <time>2020-10-11T08:04:55Z</time>
      </trkpt>
      <trkpt lat="43.36278" lon="5.85896">
        <ele>447.59</ele>
        <time>2020-10-11T08:05:00Z</time>
      </trkpt>
      <trkpt lat="43.36266" lon="5.85918">
        <ele>445.73</ele>
        <time>2020-10-11T08:05:05Z</time>
      </trkpt>
      <trkpt lat="43.36254" lon="5.85941">
        <ele>443.62</ele>
        <time>2020-10-11T08:05:10Z</time>
      </trkpt>
      <trkpt lat="43.36245" lon="5.85965">
        <ele>444.59</ele>
        <time>2020-10-11T08:05:15Z</time>
      </trkpt>
      <trkpt lat="43.36233" lon="5.85987">
        <ele>444.44</ele>
        <time>2020-10-11T08:05:21Z</time>
      </trkpt>
      <trkpt lat="43.36222" lon="5.86009">
        <ele>447.09</ele>
        <time>2020-10-11T08:05:28Z</time>
      </trkpt>
      <trkpt lat="43.3621" lon="5.8603">
        <ele>448.07</ele>
        <time>2020-10-11T08:05:36Z</time>
      </trkpt>
      <trkpt lat="43.36199" lon="5.86056">
        <ele>448.69</ele>
        <time>2020-10-11T08:05:42Z</time>
      </trkpt>
      <trkpt lat="43.36191" lon="5.86079">
        <ele>448.71</ele>
        <time>2020-10-11T08:05:46Z</time>
      </trkpt>
      <trkpt lat="43.36187" lon="5.86109">
        <ele>447.82</ele>
        <time>2020-10-11T08:05:52Z</time>
      </trkpt>
      <trkpt lat="43.36189" lon="5.86137">
        <ele>444.62</ele>
        <time>2020-10-11T08:05:57Z</time>
      </trkpt>
      <trkpt lat="43.36186" lon="5.86165">
        <ele>440.94</ele>
        <time>2020-10-11T08:06:03Z</time>
      </trkpt>
      <trkpt lat="43.36175" lon="5.8619">
        <ele>439.52</ele>
        <time>2020-10-11T08:06:08Z</time>
      </trkpt>
      <trkpt lat="43.36164" lon="5.86211">
        <ele>437.75</ele>
        <time>2020-10-11T08:06:13Z</time>
      </trkpt>
      <trkpt lat="43.3617" lon="5.86239">
        <ele>433.35</ele>
        <time>2020-10-11T08:06:19Z</time>
      </trkpt>
      <trkpt lat="43.36164" lon="5.86267">
        <ele>430.11</ele>
        <time>2020-10-11T08:06:24Z</time>
      </trkpt>
      <trkpt lat="43.36155" lon="5.86292">
        <ele>427.59</ele>
        <time>2020-10-11T08:06:28Z</time>
      </trkpt>
      <trkpt lat="43.36144" lon="5.86313">
        <ele>425.91</ele>
        <time>2020-10-11T08:06:32Z</time>
      </trkpt>
      <trkpt lat="43.3613" lon="5.86329">
        <ele>424.9</ele>
        <time>2020-10-11T08:06:36Z</time>
      </trkpt>
      <trkpt lat="43.36115" lon="5.86347">
        <ele>422.88</ele>
        <time>2020-10-11T08:06:41Z</time>
      </trkpt>
      <trkpt lat="43.36119" lon="5.86377">
        <ele>419.05</ele>
        <time>2020-10-11T08:06:46Z</time>
      </trkpt>
      <trkpt lat="43.36122" lon="5.86406">
        <ele>415.76</ele>
        <time>2020-10-11T08:06:50Z</time>
      </trkpt>
      <trkpt lat="43.36116" lon="5.8643">
        <ele>412.64</ele>
        <time>2020-10-11T08:06:54Z</time>
      </trkpt>
      <trkpt lat="43.36104" lon="5.86453">
        <ele>409.46</ele>
        <time>2020-10-11T08:06:58Z</time>
      </trkpt>
      <trkpt lat="43.361" lon="5.86477">
        <ele>404.77</ele>
        <time>2020-10-11T08:07:03Z</time>
      </trkpt>
      <trkpt lat="43.36093" lon="5.86501">
        <ele>403.01</ele>
        <time>2020-10-11T08:07:07Z</time>
      </trkpt>
      <trkpt lat="43.36088" lon="5.86527">
        <ele>400.7</ele>
        <time>2020-10-11T08:07:11Z</time>
      </trkpt>
      <trkpt lat="43.36082" lon="5.86554">
        <ele>398.12</ele>
        <time>2020-10-11T08:07:17Z</time>
      </trkpt>
      <trkpt lat="43.36075" lon="5.86582">
        <ele>396.91</ele>
        <time>2020-10-11T08:07:23Z</time>
      </trkpt>
      <trkpt lat="43.36069" lon="5.86608">
        <ele>394.94</ele>
        <time>2020-10-11T08:07:28Z</time>
      </trkpt>
      <trkpt lat="43.36072" lon="5.86636">
        <ele>391.02</ele>
        <time>2020-10-11T08:07:33Z</time>
      </trkpt>
      <trkpt lat="43.3608" lon="5.86664">
        <ele>387.78</ele>
        <time>2020-10-11T08:07:39Z</time>
      </trkpt>
      <trkpt lat="43.36087" lon="5.86688">
        <ele>386.74</ele>
        <time>2020-10-11T08:07:43Z</time>
      </trkpt>
      <trkpt lat="43.36098" lon="5.86708">
        <ele>386.3</ele>
        <time>2020-10-11T08:07:47Z</time>
      </trkpt>
      <trkpt lat="43.36111" lon="5.86726">
        <ele>385.97</ele>
        <time>2020-10-11T08:07:51Z</time>
      </trkpt>
      <trkpt lat="43.36125" lon="5.86744">
        <ele>385.89</ele>
        <time>2020-10-11T08:07:56Z</time>
      </trkpt>
      <trkpt lat="43.36137" lon="5.86762">
        <ele>386.41</ele>
        <time>2020-10-11T08:08:07Z</time>
      </trkpt>
      <trkpt lat="43.36151" lon="5.86782">
        <ele>387.26</ele>
        <time>2020-10-11T08:08:15Z</time>
      </trkpt>
      <trkpt lat="43.36164" lon="5.86802">
        <ele>388.22</ele>
        <time>2020-10-11T08:08:21Z</time>
      </trkpt>
      <trkpt lat="43.3618" lon="5.8682">
        <ele>389.34</ele>
        <time>2020-10-11T08:08:27Z</time>
      </trkpt>
      <trkpt lat="43.36192" lon="5.86842">
        <ele>390.78</ele>
        <time>2020-10-11T08:08:33Z</time>
      </trkpt>
      <trkpt lat="43.36202" lon="5.86868">
        <ele>391.03</ele>
        <time>2020-10-11T08:08:39Z</time>
      </trkpt>
      <trkpt lat="43.36217" lon="5.8689">
        <ele>390.3</ele>
        <time>2020-10-11T08:08:44Z</time>
      </trkpt>
      <trkpt lat="43.36233" lon="5.86909">
        <ele>390.24</ele>
        <time>2020-10-11T08:08:50Z</time>
      </trkpt>
      <trkpt lat="43.36248" lon="5.86924">
        <ele>391.1</ele>
        <time>2020-10-11T08:08:56Z</time>
      </trkpt>
      <trkpt lat="43.3626" lon="5.86947">
        <ele>392.87</ele>
        <time>2020-10-11T08:09:02Z</time>
      </trkpt>
      <trkpt lat="43.36271" lon="5.86967">
        <ele>394.31</ele>
        <time>2020-10-11T08:09:07Z</time>
      </trkpt>
      <trkpt lat="43.36284" lon="5.86989">
        <ele>396.45</ele>
        <time>2020-10-11T08:09:12Z</time>
      </trkpt>
      <trkpt lat="43.363" lon="5.87005">
        <ele>397.12</ele>
        <time>2020-10-11T08:09:16Z</time>
      </trkpt>
      <trkpt lat="43.3632" lon="5.87021">
        <ele>398.2</ele>
        <time>2020-10-11T08:09:21Z</time>
      </trkpt>
      <trkpt lat="43.36338" lon="5.87032">
        <ele>399.37</ele>
        <time>2020-10-11T08:09:25Z</time>
      </trkpt>
      <trkpt lat="43.36353" lon="5.87046">
        <ele>399.16</ele>
        <time>2020-10-11T08:09:29Z</time>
      </trkpt>
      <trkpt lat="43.3637" lon="5.87055">
        <ele>397.83</ele>
        <time>2020-10-11T08:09:33Z</time>
      </trkpt>
      <trkpt lat="43.3639" lon="5.87064">
        <ele>394.24</ele>
        <time>2020-10-11T08:09:37Z</time>
      </trkpt>
      <trkpt lat="43.3641" lon="5.87082">
        <ele>391.42</ele>
        <time>2020-10-11T08:09:41Z</time>
      </trkpt>
      <trkpt lat="43.36424" lon="5.87099">
        <ele>389.35</ele>
        <time>2020-10-11T08:09:45Z</time>
      </trkpt>
      <trkpt lat="43.3644" lon="5.87114">
        <ele>388.12</ele>
        <time>2020-10-11T08:09:50Z</time>
      </trkpt>
      <trkpt lat="43.36456" lon="5.87127">
        <ele>387.48</ele>
        <time>2020-10-11T08:09:54Z</time>
      </trkpt>
      <trkpt lat="43.36472" lon="5.87145">
        <ele>386.77</ele>
        <time>2020-10-11T08:09:59Z</time>
      </trkpt>
      <trkpt lat="43.36487" lon="5.87167">
        <ele>386.75</ele>
        <time>2020-10-11T08:10:04Z</time>
      </trkpt>
      <trkpt lat="43.36499" lon="5.87189">
        <ele>386.98</ele>
        <time>2020-10-11T08:10:09Z</time>
      </trkpt>
      <trkpt lat="43.36508" lon="5.87212">
        <ele>387.03</ele>
        <time>2020-10-11T08:10:14Z</time>
      </trkpt>
      <trkpt lat="43.36523" lon="5.87229">
        <ele>385.97</ele>
        <time>2020-10-11T08:10:20Z</time>
      </trkpt>
      <trkpt lat="43.36539" lon="5.87245">
        <ele>385.44</ele>
        <time>2020-10-11T08:10:26Z</time>
      </trkpt>
      <trkpt lat="43.36547" lon="5.87269">
        <ele>385.19</ele>
        <time>2020-10-11T08:10:31Z</time>
      </trkpt>
      <trkpt lat="43.36556" lon="5.87291">
        <ele>385.33</ele>
        <time>2020-10-11T08:10:36Z</time>
      </trkpt>
      <trkpt lat="43.36562" lon="5.87316">
        <ele>384.12</ele>
        <time>2020-10-11T08:10:41Z</time>
      </trkpt>
      <trkpt lat="43.36569" lon="5.8734">
        <ele>381.47</ele>
        <time>2020-10-11T08:10:46Z</time>
      </trkpt>
      <trkpt lat="43.36579" lon="5.87367">
        <ele>379.48</ele>
        <time>2020-10-11T08:10:51Z</time>
      </trkpt>
      <trkpt lat="43.36591" lon="5.87386">
        <ele>377.95</ele>
        <time>2020-10-11T08:10:55Z</time>
      </trkpt>
      <trkpt lat="43.36605" lon="5.87402">
        <ele>378.28</ele>
        <time>2020-10-11T08:10:59Z</time>
      </trkpt>
      <trkpt lat="43.36611" lon="5.87427">
        <ele>378.72</ele>
        <time>2020-10-11T08:11:04Z</time>
      </trkpt>
      <trkpt lat="43.36611" lon="5.87454">
        <ele>378.37</ele>
        <time>2020-10-11T08:11:10Z</time>
      </trkpt>
      <trkpt lat="43.36615" lon="5.87478">
        <ele>377.77</ele>
        <time>2020-10-11T08:11:15Z</time>
      </trkpt>
      <trkpt lat="43.36619" lon="5.87503">
        <ele>377.48</ele>
        <time>2020-10-11T08:11:20Z</time>
      </trkpt>
      <trkpt lat="43.36623" lon="5.87532">
        <ele>377.27</ele>
        <time>2020-10-11T08:11:25Z</time>
      </trkpt>
      <trkpt lat="43.36628" lon="5.87556">
        <ele>376.91</ele>
        <time>2020-10-11T08:11:29Z</time>
      </trkpt>
      <trkpt lat="43.36629" lon="5.87587">
        <ele>376.16</ele>
        <time>2020-10-11T08:11:34Z</time>
      </trkpt>
      <trkpt lat="43.3663" lon="5.87616">
        <ele>375.12</ele>
        <time>2020-10-11T08:11:39Z</time>
      </trkpt>
      <trkpt lat="43.36634" lon="5.87643">
        <ele>374.2</ele>
        <time>2020-10-11T08:11:44Z</time>
      </trkpt>
      <trkpt lat="43.36638" lon="5.87671">
        <ele>373.76</ele>
        <time>2020-10-11T08:11:49Z</time>
      </trkpt>
      <trkpt lat="43.36633" lon="5.87695">
        <ele>372.96</ele>
        <time>2020-10-11T08:11:54Z</time>
      </trkpt>
      <trkpt lat="43.36627" lon="5.87723">
        <ele>373.3</ele>
        <time>2020-10-11T08:12:00Z</time>
      </trkpt>
      <trkpt lat="43.36622" lon="5.87753">
        <ele>371.74</ele>
        <time>2020-10-11T08:12:05Z</time>
      </trkpt>
      <trkpt lat="43.36614" lon="5.87778">
        <ele>371.23</ele>
        <time>2020-10-11T08:12:10Z</time>
      </trkpt>
      <trkpt lat="43.36594" lon="5.87783">
        <ele>370.3</ele>
        <time>2020-10-11T08:12:16Z</time>
      </trkpt>
      <trkpt lat="43.36576" lon="5.87791">
        <ele>368.66</ele>
        <time>2020-10-11T08:12:22Z</time>
      </trkpt>
      <trkpt lat="43.36555" lon="5.87797">
        <ele>368.35</ele>
        <time>2020-10-11T08:12:28Z</time>
      </trkpt>
      <trkpt lat="43.3654" lon="5.8781">
        <ele>368.37</ele>
        <time>2020-10-11T08:12:34Z</time>
      </trkpt>
      <trkpt lat="43.36527" lon="5.87832">
        <ele>368.44</ele>
        <time>2020-10-11T08:12:40Z</time>
      </trkpt>
      <trkpt lat="43.36513" lon="5.87853">
        <ele>369.79</ele>
        <time>2020-10-11T08:12:46Z</time>
      </trkpt>
      <trkpt lat="43.36499" lon="5.87874">
        <ele>371.05</ele>
        <time>2020-10-11T08:12:52Z</time>
      </trkpt>
      <trkpt lat="43.36482" lon="5.8789">
        <ele>372.44</ele>
        <time>2020-10-11T08:12:59Z</time>
      </trkpt>
      <trkpt lat="43.36473" lon="5.87913">
        <ele>373.03</ele>
        <time>2020-10-11T08:13:06Z</time>
      </trkpt>
      <trkpt lat="43.36477" lon="5.87939">
        <ele>374.22</ele>
        <time>2020-10-11T08:13:12Z</time>
      </trkpt>
      <trkpt lat="43.36478" lon="5.87968">
        <ele>374.75</ele>
        <time>2020-10-11T08:13:18Z</time>
      </trkpt>
      <trkpt lat="43.36482" lon="5.87992">
        <ele>374.19</ele>
        <time>2020-10-11T08:13:23Z</time>
      </trkpt>
      <trkpt lat="43.36487" lon="5.88019">
        <ele>373.83</ele>
        <time>2020-10-11T08:13:29Z</time>
      </trkpt>
      <trkpt lat="43.36494" lon="5.88045">
        <ele>373.58</ele>
        <time>2020-10-11T08:13:34Z</time>
      </trkpt>
      <trkpt lat="43.365" lon="5.88071">
        <ele>374.62</ele>
        <time>2020-10-11T08:13:39Z</time>
      </trkpt>
      <trkpt lat="43.36505" lon="5.88096">
        <ele>375.42</ele>
        <time>2020-10-11T08:13:44Z</time>
      </trkpt>
      <trkpt lat="43.36512" lon="5.8812">
        <ele>375.9</ele>
        <time>2020-10-11T08:13:49Z</time>
      </trkpt>
      <trkpt lat="43.36522" lon="5.88146">
        <ele>375.87</ele>
        <time>2020-10-11T08:13:54Z</time>
      </trkpt>
      <trkpt lat="43.36533" lon="5.88172">
        <ele>375.63</ele>
        <time>2020-10-11T08:13:59Z</time>
      </trkpt>
      <trkpt lat="43.36542" lon="5.88195">
        <ele>376.09</ele>
        <time>2020-10-11T08:14:04Z</time>
      </trkpt>
      <trkpt lat="43.36543" lon="5.88225">
        <ele>375.77</ele>
        <time>2020-10-11T08:14:09Z</time>
      </trkpt>
      <trkpt lat="43.36539" lon="5.88249">
        <ele>375.26</ele>
        <time>2020-10-11T08:14:16Z</time>
      </trkpt>
      <trkpt lat="43.36546" lon="5.88273">
        <ele>373.7</ele>
        <time>2020-10-11T08:14:23Z</time>
      </trkpt>
      <trkpt lat="43.36546" lon="5.88302">
        <ele>372.75</ele>
        <time>2020-10-11T08:14:29Z</time>
      </trkpt>
      <trkpt lat="43.36544" lon="5.88328">
        <ele>370.76</ele>
        <time>2020-10-11T08:14:34Z</time>
      </trkpt>
      <trkpt lat="43.36544" lon="5.88354">
        <ele>370.37</ele>
        <time>2020-10-11T08:14:40Z</time>
      </trkpt>
      <trkpt lat="43.36547" lon="5.88379">
        <ele>369.65</ele>
        <time>2020-10-11T08:14:46Z</time>
      </trkpt>
      <trkpt lat="43.36553" lon="5.88405">
        <ele>368.38</ele>
        <time>2020-10-11T08:14:52Z</time>
      </trkpt>
      <trkpt lat="43.3656" lon="5.8843">
        <ele>367.82</ele>
        <time>2020-10-11T08:14:57Z</time>
      </trkpt>
      <trkpt lat="43.36568" lon="5.88459">
        <ele>367.49</ele>
        <time>2020-10-11T08:15:02Z</time>
      </trkpt>
      <trkpt lat="43.36577" lon="5.8848">
        <ele>367.47</ele>
        <time>2020-10-11T08:15:06Z</time>
      </trkpt>
      <trkpt lat="43.3659" lon="5.88498">
        <ele>367.57</ele>
        <time>2020-10-11T08:15:13Z</time>
      </trkpt>
      <trkpt lat="43.36599" lon="5.88522">
        <ele>369.26</ele>
        <time>2020-10-11T08:15:23Z</time>
      </trkpt>
      <trkpt lat="43.36601" lon="5.88547">
        <ele>368.78</ele>
        <time>2020-10-11T08:15:27Z</time>
      </trkpt>
      <trkpt lat="43.36598" lon="5.88577">
        <ele>367.58</ele>
        <time>2020-10-11T08:15:32Z</time>
      </trkpt>
      <trkpt lat="43.36592" lon="5.88605">
        <ele>366.51</ele>
        <time>2020-10-11T08:15:37Z</time>
      </trkpt>
      <trkpt lat="43.36581" lon="5.88627">
        <ele>366.99</ele>
        <time>2020-10-11T08:15:41Z</time>
      </trkpt>
      <trkpt lat="43.36573" lon="5.88649">
        <ele>367.73</ele>
        <time>2020-10-11T08:15:52Z</time>
      </trkpt>
      <trkpt lat="43.36571" lon="5.88675">
        <ele>368.44</ele>
        <time>2020-10-11T08:16:06Z</time>
      </trkpt>
      <trkpt lat="43.36569" lon="5.88702">
        <ele>369.74</ele>
        <time>2020-10-11T08:16:14Z</time>
      </trkpt>
      <trkpt lat="43.36562" lon="5.88726">
        <ele>370.54</ele>
        <time>2020-10-11T08:16:20Z</time>
      </trkpt>
      <trkpt lat="43.36554" lon="5.88751">
        <ele>369.49</ele>
        <time>2020-10-11T08:16:24Z</time>
      </trkpt>
      <trkpt lat="43.36544" lon="5.88776">
        <ele>369.21</ele>
        <time>2020-10-11T08:16:28Z</time>
      </trkpt>
      <trkpt lat="43.36535" lon="5.88803">
        <ele>368.49</ele>
        <time>2020-10-11T08:16:32Z</time>
      </trkpt>
      <trkpt lat="43.36525" lon="5.88829">
        <ele>366.97</ele>
        <time>2020-10-11T08:16:36Z</time>
      </trkpt>
      <trkpt lat="43.36513" lon="5.88853">
        <ele>364.85</ele>
        <time>2020-10-11T08:16:40Z</time>
      </trkpt>
      <trkpt lat="43.36495" lon="5.88871">
        <ele>363.5</ele>
        <time>2020-10-11T08:16:44Z</time>
      </trkpt>
      <trkpt lat="43.36481" lon="5.88899">
        <ele>361.02</ele>
        <time>2020-10-11T08:16:48Z</time>
      </trkpt>
      <trkpt lat="43.36471" lon="5.88922">
        <ele>358.86</ele>
        <time>2020-10-11T08:16:51Z</time>
      </trkpt>
      <trkpt lat="43.36463" lon="5.88944">
        <ele>357.35</ele>
        <time>2020-10-11T08:16:54Z</time>
      </trkpt>
      <trkpt lat="43.3646" lon="5.88976">
        <ele>355.49</ele>
        <time>2020-10-11T08:16:58Z</time>
      </trkpt>
      <trkpt lat="43.36456" lon="5.89009">
        <ele>354.72</ele>
        <time>2020-10-11T08:17:02Z</time>
      </trkpt>
      <trkpt lat="43.36455" lon="5.89039">
        <ele>353.59</ele>
        <time>2020-10-11T08:17:05Z</time>
      </trkpt>
      <trkpt lat="43.36453" lon="5.89067">
        <ele>352.48</ele>
        <time>2020-10-11T08:17:08Z</time>
      </trkpt>
      <trkpt lat="43.3645" lon="5.89095">
        <ele>351.19</ele>
        <time>2020-10-11T08:17:11Z</time>
      </trkpt>
      <trkpt lat="43.36447" lon="5.89127">
        <ele>350.44</ele>
        <time>2020-10-11T08:17:15Z</time>
      </trkpt>
      <trkpt lat="43.36446" lon="5.89152">
        <ele>349.36</ele>
        <time>2020-10-11T08:17:18Z</time>
      </trkpt>
      <trkpt lat="43.36442" lon="5.89177">
        <ele>348.18</ele>
        <time>2020-10-11T08:17:21Z</time>
      </trkpt>
      <trkpt lat="43.3644" lon="5.89207">
        <ele>346.6</ele>
        <time>2020-10-11T08:17:25Z</time>
      </trkpt>
      <trkpt lat="43.36432" lon="5.89234">
        <ele>345.27</ele>
        <time>2020-10-11T08:17:30Z</time>
      </trkpt>
      <trkpt lat="43.36422" lon="5.89255">
        <ele>343.98</ele>
        <time>2020-10-11T08:17:34Z</time>
      </trkpt>
      <trkpt lat="43.36412" lon="5.89279">
        <ele>342.64</ele>
        <time>2020-10-11T08:17:38Z</time>
      </trkpt>
      <trkpt lat="43.36401" lon="5.89302">
        <ele>342.57</ele>
        <time>2020-10-11T08:17:42Z</time>
      </trkpt>
      <trkpt lat="43.36396" lon="5.8933">
        <ele>342.07</ele>
        <time>2020-10-11T08:17:46Z</time>
      </trkpt>
      <trkpt lat="43.36391" lon="5.89358">
        <ele>341.29</ele>
        <time>2020-10-11T08:17:50Z</time>
      </trkpt>
      <trkpt lat="43.36389" lon="5.89389">
        <ele>340.68</ele>
        <time>2020-10-11T08:17:54Z</time>
      </trkpt>
      <trkpt lat="43.36385" lon="5.89421">
        <ele>339.46</ele>
        <time>2020-10-11T08:17:58Z</time>
      </trkpt>
      <trkpt lat="43.36382" lon="5.89447">
        <ele>337.77</ele>
        <time>2020-10-11T08:18:01Z</time>
      </trkpt>
      <trkpt lat="43.36377" lon="5.89472">
        <ele>336.67</ele>
        <time>2020-10-11T08:18:04Z</time>
      </trkpt>
      <trkpt lat="43.36376" lon="5.89503">
        <ele>335.41</ele>
        <time>2020-10-11T08:18:08Z</time>
      </trkpt>
      <trkpt lat="43.36375" lon="5.89534">
        <ele>333.57</ele>
        <time>2020-10-11T08:18:12Z</time>
      </trkpt>
      <trkpt lat="43.36373" lon="5.89566">
        <ele>333.47</ele>
        <time>2020-10-11T08:18:16Z</time>
      </trkpt>
      <trkpt lat="43.36368" lon="5.89592">
        <ele>332.52</ele>
        <time>2020-10-11T08:18:19Z</time>
      </trkpt>
      <trkpt lat="43.36363" lon="5.89624">
        <ele>332.32</ele>
        <time>2020-10-11T08:18:23Z</time>
      </trkpt>
      <trkpt lat="43.36362" lon="5.8965">
        <ele>331.35</ele>
        <time>2020-10-11T08:18:26Z</time>
      </trkpt>
      <trkpt lat="43.36361" lon="5.89683">
        <ele>329.95</ele>
        <time>2020-10-11T08:18:30Z</time>
      </trkpt>
      <trkpt lat="43.3636" lon="5.89715">
        <ele>328.57</ele>
        <time>2020-10-11T08:18:34Z</time>
      </trkpt>
      <trkpt lat="43.36358" lon="5.89747">
        <ele>327.78</ele>
        <time>2020-10-11T08:18:38Z</time>
      </trkpt>
      <trkpt lat="43.36356" lon="5.89778">
        <ele>327.54</ele>
        <time>2020-10-11T08:18:42Z</time>
      </trkpt>
      <trkpt lat="43.36359" lon="5.89809">
        <ele>326.68</ele>
        <time>2020-10-11T08:18:46Z</time>
      </trkpt>
      <trkpt lat="43.3636" lon="5.89836">
        <ele>326.27</ele>
        <time>2020-10-11T08:18:50Z</time>
      </trkpt>
      <trkpt lat="43.36364" lon="5.89862">
        <ele>325.62</ele>
        <time>2020-10-11T08:18:54Z</time>
      </trkpt>
      <trkpt lat="43.3637" lon="5.89888">
        <ele>324.86</ele>
        <time>2020-10-11T08:18:58Z</time>
      </trkpt>
      <trkpt lat="43.36375" lon="5.89917">
        <ele>324.51</ele>
        <time>2020-10-11T08:19:03Z</time>
      </trkpt>
      <trkpt lat="43.3638" lon="5.89944">
        <ele>325.34</ele>
        <time>2020-10-11T08:19:08Z</time>
      </trkpt>
      <trkpt lat="43.36381" lon="5.8997">
        <ele>324.77</ele>
        <time>2020-10-11T08:19:12Z</time>
      </trkpt>
      <trkpt lat="43.36393" lon="5.89994">
        <ele>325.1</ele>
        <time>2020-10-11T08:19:17Z</time>
      </trkpt>
      <trkpt lat="43.36403" lon="5.90019">
        <ele>325.75</ele>
        <time>2020-10-11T08:19:22Z</time>
      </trkpt>
      <trkpt lat="43.36402" lon="5.90049">
        <ele>326.06</ele>
        <time>2020-10-11T08:19:27Z</time>
      </trkpt>
      <trkpt lat="43.36404" lon="5.90081">
        <ele>324.68</ele>
        <time>2020-10-11T08:19:31Z</time>
      </trkpt>
      <trkpt lat="43.36403" lon="5.90111">
        <ele>323.73</ele>
        <time>2020-10-11T08:19:35Z</time>
      </trkpt>
      <trkpt lat="43.364" lon="5.90137">
        <ele>323.69</ele>
        <time>2020-10-11T08:19:39Z</time>
      </trkpt>
      <trkpt lat="43.36402" lon="5.90167">
        <ele>322.66</ele>
        <time>2020-10-11T08:19:44Z</time>
      </trkpt>
      <trkpt lat="43.36399" lon="5.90196">
        <ele>322.3</ele>
        <time>2020-10-11T08:19:49Z</time>
      </trkpt>
      <trkpt lat="43.36397" lon="5.90221">
        <ele>322.07</ele>
        <time>2020-10-11T08:19:53Z</time>
      </trkpt>
      <trkpt lat="43.36392" lon="5.90249">
        <ele>322.66</ele>
        <time>2020-10-11T08:19:58Z</time>
      </trkpt>
      <trkpt lat="43.36384" lon="5.90273">
        <ele>323.8</ele>
        <time>2020-10-11T08:20:03Z</time>
      </trkpt>
      <trkpt lat="43.3638" lon="5.90297">
        <ele>324.19</ele>
        <time>2020-10-11T08:20:07Z</time>
      </trkpt>
      <trkpt lat="43.3638" lon="5.90325">
        <ele>323.78</ele>
        <time>2020-10-11T08:20:11Z</time>
      </trkpt>
      <trkpt lat="43.36378" lon="5.90352">
        <ele>322.59</ele>
        <time>2020-10-11T08:20:15Z</time>
      </trkpt>
      <trkpt lat="43.36373" lon="5.90377">
        <ele>322.94</ele>
        <time>2020-10-11T08:20:19Z</time>
      </trkpt>
      <trkpt lat="43.36371" lon="5.90405">
        <ele>322.15</ele>
        <time>2020-10-11T08:20:23Z</time>
      </trkpt>
      <trkpt lat="43.36375" lon="5.90433">
        <ele>321.69</ele>
        <time>2020-10-11T08:20:27Z</time>
      </trkpt>
      <trkpt lat="43.36383" lon="5.90458">
        <ele>321.67</ele>
        <time>2020-10-11T08:20:31Z</time>
      </trkpt>
      <trkpt lat="43.3639" lon="5.90483">
        <ele>321.2</ele>
        <time>2020-10-11T08:20:35Z</time>
      </trkpt>
      <trkpt lat="43.36394" lon="5.90509">
        <ele>320.14</ele>
        <time>2020-10-11T08:20:39Z</time>
      </trkpt>
      <trkpt lat="43.36395" lon="5.90535">
        <ele>318.67</ele>
        <time>2020-10-11T08:20:45Z</time>
      </trkpt>
      <trkpt lat="43.36395" lon="5.90562">
        <ele>319.52</ele>
        <time>2020-10-11T08:20:54Z</time>
      </trkpt>
      <trkpt lat="43.36379" lon="5.90574">
        <ele>321.31</ele>
        <time>2020-10-11T08:21:00Z</time>
      </trkpt>
      <trkpt lat="43.36363" lon="5.90591">
        <ele>322.64</ele>
        <time>2020-10-11T08:21:06Z</time>
      </trkpt>
      <trkpt lat="43.36355" lon="5.90617">
        <ele>323.72</ele>
        <time>2020-10-11T08:21:11Z</time>
      </trkpt>
      <trkpt lat="43.36352" lon="5.90647">
        <ele>325.23</ele>
        <time>2020-10-11T08:21:16Z</time>
      </trkpt>
      <trkpt lat="43.36356" lon="5.90676">
        <ele>326.28</ele>
        <time>2020-10-11T08:21:21Z</time>
      </trkpt>
      <trkpt lat="43.36368" lon="5.90699">
        <ele>327.12</ele>
        <time>2020-10-11T08:21:25Z</time>
      </trkpt>
      <trkpt lat="43.36379" lon="5.90721">
        <ele>327.82</ele>
        <time>2020-10-11T08:21:29Z</time>
      </trkpt>
      <trkpt lat="43.36389" lon="5.90742">
        <ele>327.02</ele>
        <time>2020-10-11T08:21:34Z</time>
      </trkpt>
      <trkpt lat="43.36402" lon="5.90761">
        <ele>326.5</ele>
        <time>2020-10-11T08:21:42Z</time>
      </trkpt>
      <trkpt lat="43.36416" lon="5.90783">
        <ele>325.54</ele>
        <time>2020-10-11T08:21:50Z</time>
      </trkpt>
      <trkpt lat="43.3643" lon="5.90799">
        <ele>325.88</ele>
        <time>2020-10-11T08:21:55Z</time>
      </trkpt>
      <trkpt lat="43.36441" lon="5.90823">
        <ele>325.69</ele>
        <time>2020-10-11T08:22:01Z</time>
      </trkpt>
      <trkpt lat="43.36447" lon="5.90848">
        <ele>325.39</ele>
        <time>2020-10-11T08:22:07Z</time>
      </trkpt>
      <trkpt lat="43.36452" lon="5.90876">
        <ele>324.55</ele>
        <time>2020-10-11T08:22:14Z</time>
      </trkpt>
      <trkpt lat="43.36449" lon="5.90903">
        <ele>323.52</ele>
        <time>2020-10-11T08:22:20Z</time>
      </trkpt>
      <trkpt lat="43.3645" lon="5.90929">
        <ele>321.69</ele>
        <time>2020-10-11T08:22:25Z</time>
      </trkpt>
      <trkpt lat="43.36452" lon="5.90954">
        <ele>319.71</ele>
        <time>2020-10-11T08:22:30Z</time>
      </trkpt>
      <trkpt lat="43.36464" lon="5.90974">
        <ele>320.92</ele>
        <time>2020-10-11T08:22:38Z</time>
      </trkpt>
      <trkpt lat="43.36471" lon="5.91">
        <ele>321.6</ele>
        <time>2020-10-11T08:22:46Z</time>
      </trkpt>
      <trkpt lat="43.36478" lon="5.91023">
        <ele>320.97</ele>
        <time>2020-10-11T08:22:53Z</time>
      </trkpt>
      <trkpt lat="43.36486" lon="5.91048">
        <ele>321.47</ele>
        <time>2020-10-11T08:23:00Z</time>
      </trkpt>
      <trkpt lat="43.36489" lon="5.91075">
        <ele>319.98</ele>
        <time>2020-10-11T08:23:05Z</time>
      </trkpt>
      <trkpt lat="43.36499" lon="5.91103">
        <ele>319.67</ele>
        <time>2020-10-11T08:23:10Z</time>
      </trkpt>
      <trkpt lat="43.36501" lon="5.91132">
        <ele>320.04</ele>
        <time>2020-10-11T08:23:15Z</time>
      </trkpt>
      <trkpt lat="43.36497" lon="5.91158">
        <ele>320.34</ele>
        <time>2020-10-11T08:23:20Z</time>
      </trkpt>
      <trkpt lat="43.36501" lon="5.91188">
        <ele>321.04</ele>
        <time>2020-10-11T08:23:25Z</time>
      </trkpt>
      <trkpt lat="43.36504" lon="5.91218">
        <ele>321.19</ele>
        <time>2020-10-11T08:23:30Z</time>
      </trkpt>
      <trkpt lat="43.36511" lon="5.91242">
        <ele>320.59</ele>
        <time>2020-10-11T08:23:35Z</time>
      </trkpt>
      <trkpt lat="43.36508" lon="5.91268">
        <ele>320.06</ele>
        <time>2020-10-11T08:23:43Z</time>
      </trkpt>
      <trkpt lat="43.36504" lon="5.91294">
        <ele>321.22</ele>
        <time>2020-10-11T08:23:52Z</time>
      </trkpt>
      <trkpt lat="43.36491" lon="5.91314">
        <ele>320.62</ele>
        <time>2020-10-11T08:24:01Z</time>
      </trkpt>
      <trkpt lat="43.36476" lon="5.91334">
        <ele>320.36</ele>
        <time>2020-10-11T08:24:10Z</time>
      </trkpt>
      <trkpt lat="43.36479" lon="5.91362">
        <ele>320.27</ele>
        <time>2020-10-11T08:24:16Z</time>
      </trkpt>
      <trkpt lat="43.3648" lon="5.91391">
        <ele>319.81</ele>
        <time>2020-10-11T08:24:23Z</time>
      </trkpt>
      <trkpt lat="43.36484" lon="5.91418">
        <ele>318.78</ele>
        <time>2020-10-11T08:24:29Z</time>
      </trkpt>
      <trkpt lat="43.36489" lon="5.91445">
        <ele>317.99</ele>
        <time>2020-10-11T08:24:36Z</time>
      </trkpt>
      <trkpt lat="43.36485" lon="5.9147">
        <ele>317.41</ele>
        <time>2020-10-11T08:24:42Z</time>
      </trkpt>
      <trkpt lat="43.36483" lon="5.91499">
        <ele>316.3</ele>
        <time>2020-10-11T08:24:47Z</time>
      </trkpt>
      <trkpt lat="43.36481" lon="5.91524">
        <ele>315.4</ele>
        <time>2020-10-11T08:24:51Z</time>
      </trkpt>
      <trkpt lat="43.36473" lon="5.91547">
        <ele>314.57</ele>
        <time>2020-10-11T08:24:56Z</time>
      </trkpt>
      <trkpt lat="43.3646" lon="5.91569">
        <ele>314.27</ele>
        <time>2020-10-11T08:25:01Z</time>
      </trkpt>
      <trkpt lat="43.36454" lon="5.91596">
        <ele>314.8</ele>
        <time>2020-10-11T08:25:07Z</time>
      </trkpt>
      <trkpt lat="43.36451" lon="5.91623">
        <ele>315.5</ele>
        <time>2020-10-11T08:25:12Z</time>
      </trkpt>
      <trkpt lat="43.36445" lon="5.91647">
        <ele>315.43</ele>
        <time>2020-10-11T08:25:17Z</time>
      </trkpt>
      <trkpt lat="43.36441" lon="5.91674">
        <ele>316.17</ele>
        <time>2020-10-11T08:25:23Z</time>
      </trkpt>
      <trkpt lat="43.36434" lon="5.91699">
        <ele>316.43</ele>
        <time>2020-10-11T08:25:29Z</time>
      </trkpt>
      <trkpt lat="43.36428" lon="5.91724">
        <ele>316.07</ele>
        <time>2020-10-11T08:25:34Z</time>
      </trkpt>
      <trkpt lat="43.36426" lon="5.91749">
        <ele>314.82</ele>
        <time>2020-10-11T08:25:38Z</time>
      </trkpt>
      <trkpt lat="43.36422" lon="5.91773">
        <ele>314.55</ele>
        <time>2020-10-11T08:25:43Z</time>
      </trkpt>
      <trkpt lat="43.36417" lon="5.91797">
        <ele>314.01</ele>
        <time>2020-10-11T08:25:48Z</time>
      </trkpt>
      <trkpt lat="43.36413" lon="5.91823">
        <ele>313.65</ele>
        <time>2020-10-11T08:25:53Z</time>
      </trkpt>
      <trkpt lat="43.36408" lon="5.91851">
        <ele>313.22</ele>
        <time>2020-10-11T08:25:58Z</time>
      </trkpt>
      <trkpt lat="43.36403" lon="5.91877">
        <ele>311.99</ele>
        <time>2020-10-11T08:26:02Z</time>
      </trkpt>
      <trkpt lat="43.364" lon="5.91905">
        <ele>310.94</ele>
        <time>2020-10-11T08:26:06Z</time>
      </trkpt>
      <trkpt lat="43.36397" lon="5.91934">
        <ele>310.09</ele>
        <time>2020-10-11T08:26:10Z</time>
      </trkpt>
      <trkpt lat="43.36395" lon="5.91962">
        <ele>309.6</ele>
        <time>2020-10-11T08:26:14Z</time>
      </trkpt>
      <trkpt lat="43.36393" lon="5.91992">
        <ele>309.8</ele>
        <time>2020-10-11T08:26:19Z</time>
      </trkpt>
      <trkpt lat="43.36385" lon="5.92018">
        <ele>311.93</ele>
        <time>2020-10-11T08:26:24Z</time>
      </trkpt>
      <trkpt lat="43.3638" lon="5.92045">
        <ele>315.04</ele>
        <time>2020-10-11T08:26:30Z</time>
      </trkpt>
      <trkpt lat="43.36375" lon="5.92072">
        <ele>316.97</ele>
        <time>2020-10-11T08:26:36Z</time>
      </trkpt>
      <trkpt lat="43.36374" lon="5.92098">
        <ele>316.41</ele>
        <time>2020-10-11T08:26:41Z</time>
      </trkpt>
      <trkpt lat="43.36375" lon="5.92127">
        <ele>315.48</ele>
        <time>2020-10-11T08:26:47Z</time>
      </trkpt>
      <trkpt lat="43.36378" lon="5.92153">
        <ele>315.58</ele>
        <time>2020-10-11T08:26:53Z</time>
      </trkpt>
      <trkpt lat="43.36379" lon="5.9218">
        <ele>316.95</ele>
        <time>2020-10-11T08:27:00Z</time>
      </trkpt>
      <trkpt lat="43.36385" lon="5.92208">
        <ele>316.11</ele>
        <time>2020-10-11T08:27:07Z</time>
      </trkpt>
      <trkpt lat="43.36391" lon="5.92233">
        <ele>316.35</ele>
        <time>2020-10-11T08:27:13Z</time>
      </trkpt>
      <trkpt lat="43.36396" lon="5.92257">
        <ele>317.11</ele>
        <time>2020-10-11T08:27:19Z</time>
      </trkpt>
      <trkpt lat="43.36398" lon="5.92282">
        <ele>317</ele>
        <time>2020-10-11T08:27:25Z</time>
      </trkpt>
      <trkpt lat="43.36408" lon="5.92304">
        <ele>317.98</ele>
        <time>2020-10-11T08:27:32Z</time>
      </trkpt>
      <trkpt lat="43.36418" lon="5.92325">
        <ele>319.15</ele>
        <time>2020-10-11T08:27:39Z</time>
      </trkpt>
      <trkpt lat="43.36428" lon="5.92347">
        <ele>319.82</ele>
        <time>2020-10-11T08:27:46Z</time>
      </trkpt>
      <trkpt lat="43.36436" lon="5.92371">
        <ele>320.72</ele>
        <time>2020-10-11T08:27:53Z</time>
      </trkpt>
      <trkpt lat="43.36447" lon="5.92391">
        <ele>322.7</ele>
        <time>2020-10-11T08:28:00Z</time>
      </trkpt>
      <trkpt lat="43.36463" lon="5.92405">
        <ele>324.73</ele>
        <time>2020-10-11T08:28:08Z</time>
      </trkpt>
      <trkpt lat="43.36477" lon="5.92426">
        <ele>323.97</ele>
        <time>2020-10-11T08:28:15Z</time>
      </trkpt>
      <trkpt lat="43.36484" lon="5.92452">
        <ele>324.75</ele>
        <time>2020-10-11T08:28:22Z</time>
      </trkpt>
      <trkpt lat="43.36491" lon="5.92476">
        <ele>324.99</ele>
        <time>2020-10-11T08:28:29Z</time>
      </trkpt>
      <trkpt lat="43.36494" lon="5.92504">
        <ele>325.71</ele>
        <time>2020-10-11T08:28:37Z</time>
      </trkpt>
      <trkpt lat="43.36496" lon="5.92528">
        <ele>326.25</ele>
        <time>2020-10-11T08:28:44Z</time>
      </trkpt>
      <trkpt lat="43.365" lon="5.92554">
        <ele>326.46</ele>
        <time>2020-10-11T08:28:51Z</time>
      </trkpt>
      <trkpt lat="43.36504" lon="5.92578">
        <ele>326.35</ele>
        <time>2020-10-11T08:28:58Z</time>
      </trkpt>
      <trkpt lat="43.36514" lon="5.92602">
        <ele>327.73</ele>
        <time>2020-10-11T08:29:06Z</time>
      </trkpt>
      <trkpt lat="43.36527" lon="5.92623">
        <ele>328.67</ele>
        <time>2020-10-11T08:29:13Z</time>
      </trkpt>
      <trkpt lat="43.36541" lon="5.92641">
        <ele>330.31</ele>
        <time>2020-10-11T08:29:21Z</time>
      </trkpt>
      <trkpt lat="43.3655" lon="5.92663">
        <ele>332.57</ele>
        <time>2020-10-11T08:29:28Z</time>
      </trkpt>
      <trkpt lat="43.36553" lon="5.92689">
        <ele>332.63</ele>
        <time>2020-10-11T08:29:34Z</time>
      </trkpt>
      <trkpt lat="43.36555" lon="5.92717">
        <ele>331.57</ele>
        <time>2020-10-11T08:29:41Z</time>
      </trkpt>
      <trkpt lat="43.36556" lon="5.92744">
        <ele>332.48</ele>
        <time>2020-10-11T08:29:48Z</time>
      </trkpt>
      <trkpt lat="43.3656" lon="5.92772">
        <ele>332.39</ele>
        <time>2020-10-11T08:29:56Z</time>
      </trkpt>
      <trkpt lat="43.36566" lon="5.92796">
        <ele>332.44</ele>
        <time>2020-10-11T08:30:04Z</time>
      </trkpt>
      <trkpt lat="43.3658" lon="5.92812">
        <ele>332.5</ele>
        <time>2020-10-11T08:30:13Z</time>
      </trkpt>
      <trkpt lat="43.36597" lon="5.92824">
        <ele>334.6</ele>
        <time>2020-10-11T08:30:23Z</time>
      </trkpt>
      <trkpt lat="43.36615" lon="5.92835">
        <ele>336.49</ele>
        <time>2020-10-11T08:30:31Z</time>
      </trkpt>
      <trkpt lat="43.36628" lon="5.92854">
        <ele>337.82</ele>
        <time>2020-10-11T08:30:41Z</time>
      </trkpt>
      <trkpt lat="43.36644" lon="5.92867">
        <ele>338.84</ele>
        <time>2020-10-11T08:30:53Z</time>
      </trkpt>
      <trkpt lat="43.36659" lon="5.92882">
        <ele>341.45</ele>
        <time>2020-10-11T08:31:03Z</time>
      </trkpt>
      <trkpt lat="43.3667" lon="5.92904">
        <ele>343.12</ele>
        <time>2020-10-11T08:31:13Z</time>
      </trkpt>
      <trkpt lat="43.36685" lon="5.92921">
        <ele>345.24</ele>
        <time>2020-10-11T08:31:24Z</time>
      </trkpt>
      <trkpt lat="43.367" lon="5.92937">
        <ele>345.39</ele>
        <time>2020-10-11T08:31:33Z</time>
      </trkpt>
      <trkpt lat="43.36718" lon="5.92946">
        <ele>347.49</ele>
        <time>2020-10-11T08:31:45Z</time>
      </trkpt>
      <trkpt lat="43.36743" lon="5.92942">
        <ele>345.89</ele>
        <time>2020-10-11T08:33:50Z</time>
      </trkpt>
      <trkpt lat="43.36757" lon="5.92925">
        <ele>345.65</ele>
        <time>2020-10-11T08:34:00Z</time>
      </trkpt>
      <trkpt lat="43.36776" lon="5.92918">
        <ele>346.17</ele>
        <time>2020-10-11T08:34:08Z</time>
      </trkpt>
      <trkpt lat="43.36795" lon="5.92926">
        <ele>346.52</ele>
        <time>2020-10-11T08:34:17Z</time>
      </trkpt>
      <trkpt lat="43.36813" lon="5.92927">
        <ele>348.49</ele>
        <time>2020-10-11T08:34:25Z</time>
      </trkpt>
      <trkpt lat="43.36808" lon="5.92951">
        <ele>347.15</ele>
        <time>2020-10-11T08:35:24Z</time>
      </trkpt>
      <trkpt lat="43.36799" lon="5.92976">
        <ele>347.5</ele>
        <time>2020-10-11T08:37:51Z</time>
      </trkpt>
      <trkpt lat="43.36797" lon="5.93004">
        <ele>350.11</ele>
        <time>2020-10-11T08:37:58Z</time>
      </trkpt>
      <trkpt lat="43.36795" lon="5.93029">
        <ele>354.92</ele>
        <time>2020-10-11T08:38:07Z</time>
      </trkpt>
      <trkpt lat="43.36786" lon="5.93055">
        <ele>358.76</ele>
        <time>2020-10-11T08:38:15Z</time>
      </trkpt>
      <trkpt lat="43.36776" lon="5.9308">
        <ele>360.11</ele>
        <time>2020-10-11T08:38:23Z</time>
      </trkpt>
      <trkpt lat="43.36765" lon="5.93104">
        <ele>361.06</ele>
        <time>2020-10-11T08:38:30Z</time>
      </trkpt>
      <trkpt lat="43.36757" lon="5.93127">
        <ele>363.06</ele>
        <time>2020-10-11T08:38:36Z</time>
      </trkpt>
      <trkpt lat="43.36745" lon="5.93148">
        <ele>364.14</ele>
        <time>2020-10-11T08:38:42Z</time>
      </trkpt>
      <trkpt lat="43.36736" lon="5.9317">
        <ele>363.57</ele>
        <time>2020-10-11T08:38:48Z</time>
      </trkpt>
      <trkpt lat="43.36728" lon="5.93195">
        <ele>365.11</ele>
        <time>2020-10-11T08:38:56Z</time>
      </trkpt>
      <trkpt lat="43.36726" lon="5.93221">
        <ele>367.07</ele>
        <time>2020-10-11T08:39:03Z</time>
      </trkpt>
      <trkpt lat="43.36716" lon="5.93244">
        <ele>369.09</ele>
        <time>2020-10-11T08:39:10Z</time>
      </trkpt>
      <trkpt lat="43.36706" lon="5.93269">
        <ele>369.37</ele>
        <time>2020-10-11T08:39:15Z</time>
      </trkpt>
      <trkpt lat="43.36691" lon="5.93286">
        <ele>369.75</ele>
        <time>2020-10-11T08:39:21Z</time>
      </trkpt>
      <trkpt lat="43.36675" lon="5.93302">
        <ele>368.7</ele>
        <time>2020-10-11T08:39:28Z</time>
      </trkpt>
      <trkpt lat="43.36666" lon="5.93326">
        <ele>370.87</ele>
        <time>2020-10-11T08:39:35Z</time>
      </trkpt>
      <trkpt lat="43.36661" lon="5.93353">
        <ele>371.87</ele>
        <time>2020-10-11T08:39:41Z</time>
      </trkpt>
      <trkpt lat="43.36654" lon="5.93381">
        <ele>372.21</ele>
        <time>2020-10-11T08:39:47Z</time>
      </trkpt>
      <trkpt lat="43.36642" lon="5.93401">
        <ele>370.75</ele>
        <time>2020-10-11T08:39:52Z</time>
      </trkpt>
      <trkpt lat="43.36627" lon="5.93423">
        <ele>369</ele>
        <time>2020-10-11T08:39:58Z</time>
      </trkpt>
      <trkpt lat="43.36624" lon="5.9345">
        <ele>367.34</ele>
        <time>2020-10-11T08:40:05Z</time>
      </trkpt>
      <trkpt lat="43.36628" lon="5.93478">
        <ele>364.24</ele>
        <time>2020-10-11T08:40:11Z</time>
      </trkpt>
      <trkpt lat="43.36625" lon="5.93504">
        <ele>362.59</ele>
        <time>2020-10-11T08:40:18Z</time>
      </trkpt>
      <trkpt lat="43.36622" lon="5.93529">
        <ele>362.49</ele>
        <time>2020-10-11T08:40:24Z</time>
      </trkpt>
      <trkpt lat="43.36616" lon="5.93557">
        <ele>362.84</ele>
        <time>2020-10-11T08:40:30Z</time>
      </trkpt>
      <trkpt lat="43.3661" lon="5.93581">
        <ele>362.75</ele>
        <time>2020-10-11T08:40:35Z</time>
      </trkpt>
      <trkpt lat="43.36598" lon="5.93605">
        <ele>361.4</ele>
        <time>2020-10-11T08:40:40Z</time>
      </trkpt>
      <trkpt lat="43.36595" lon="5.93635">
        <ele>357.04</ele>
        <time>2020-10-11T08:40:45Z</time>
      </trkpt>
      <trkpt lat="43.36595" lon="5.93662">
        <ele>353.38</ele>
        <time>2020-10-11T08:40:49Z</time>
      </trkpt>
      <trkpt lat="43.36596" lon="5.9369">
        <ele>350.55</ele>
        <time>2020-10-11T08:40:54Z</time>
      </trkpt>
      <trkpt lat="43.36596" lon="5.93717">
        <ele>349.77</ele>
        <time>2020-10-11T08:41:00Z</time>
      </trkpt>
      <trkpt lat="43.36591" lon="5.93741">
        <ele>349.56</ele>
        <time>2020-10-11T08:41:07Z</time>
      </trkpt>
      <trkpt lat="43.36585" lon="5.93766">
        <ele>349.06</ele>
        <time>2020-10-11T08:41:15Z</time>
      </trkpt>
      <trkpt lat="43.36581" lon="5.93794">
        <ele>348.07</ele>
        <time>2020-10-11T08:41:23Z</time>
      </trkpt>
      <trkpt lat="43.36576" lon="5.93822">
        <ele>347.05</ele>
        <time>2020-10-11T08:41:29Z</time>
      </trkpt>
      <trkpt lat="43.36574" lon="5.93847">
        <ele>345.45</ele>
        <time>2020-10-11T08:41:34Z</time>
      </trkpt>
      <trkpt lat="43.36573" lon="5.93875">
        <ele>344.34</ele>
        <time>2020-10-11T08:41:39Z</time>
      </trkpt>
      <trkpt lat="43.36568" lon="5.93902">
        <ele>344.31</ele>
        <time>2020-10-11T08:41:44Z</time>
      </trkpt>
      <trkpt lat="43.36565" lon="5.9393">
        <ele>344.44</ele>
        <time>2020-10-11T08:41:49Z</time>
      </trkpt>
      <trkpt lat="43.36579" lon="5.93946">
        <ele>345.31</ele>
        <time>2020-10-11T08:41:54Z</time>
      </trkpt>
      <trkpt lat="43.36598" lon="5.93956">
        <ele>347.95</ele>
        <time>2020-10-11T08:42:01Z</time>
      </trkpt>
      <trkpt lat="43.36616" lon="5.93962">
        <ele>349.85</ele>
        <time>2020-10-11T08:42:09Z</time>
      </trkpt>
      <trkpt lat="43.36634" lon="5.9397">
        <ele>351.22</ele>
        <time>2020-10-11T08:42:18Z</time>
      </trkpt>
      <trkpt lat="43.36652" lon="5.93978">
        <ele>353.7</ele>
        <time>2020-10-11T08:42:29Z</time>
      </trkpt>
      <trkpt lat="43.36669" lon="5.93987">
        <ele>355.89</ele>
        <time>2020-10-11T08:42:38Z</time>
      </trkpt>
      <trkpt lat="43.36687" lon="5.93998">
        <ele>358.44</ele>
        <time>2020-10-11T08:42:49Z</time>
      </trkpt>
      <trkpt lat="43.36705" lon="5.94009">
        <ele>359.62</ele>
        <time>2020-10-11T08:42:59Z</time>
      </trkpt>
      <trkpt lat="43.36724" lon="5.94019">
        <ele>361.59</ele>
        <time>2020-10-11T08:43:08Z</time>
      </trkpt>
      <trkpt lat="43.36742" lon="5.94029">
        <ele>362.76</ele>
        <time>2020-10-11T08:43:16Z</time>
      </trkpt>
      <trkpt lat="43.36756" lon="5.94049">
        <ele>362.65</ele>
        <time>2020-10-11T08:43:24Z</time>
      </trkpt>
      <trkpt lat="43.36771" lon="5.94065">
        <ele>363.18</ele>
        <time>2020-10-11T08:43:33Z</time>
      </trkpt>
      <trkpt lat="43.36786" lon="5.94078">
        <ele>362.97</ele>
        <time>2020-10-11T08:43:40Z</time>
      </trkpt>
      <trkpt lat="43.36801" lon="5.94093">
        <ele>364.16</ele>
        <time>2020-10-11T08:43:48Z</time>
      </trkpt>
      <trkpt lat="43.36816" lon="5.94109">
        <ele>365.27</ele>
        <time>2020-10-11T08:43:56Z</time>
      </trkpt>
      <trkpt lat="43.36832" lon="5.94123">
        <ele>365.48</ele>
        <time>2020-10-11T08:44:04Z</time>
      </trkpt>
      <trkpt lat="43.3685" lon="5.94129">
        <ele>365.55</ele>
        <time>2020-10-11T08:44:11Z</time>
      </trkpt>
      <trkpt lat="43.36869" lon="5.94132">
        <ele>366.35</ele>
        <time>2020-10-11T08:44:17Z</time>
      </trkpt>
      <trkpt lat="43.36888" lon="5.94121">
        <ele>364.9</ele>
        <time>2020-10-11T08:44:23Z</time>
      </trkpt>
      <trkpt lat="43.36893" lon="5.94094">
        <ele>365.94</ele>
        <time>2020-10-11T08:44:29Z</time>
      </trkpt>
      <trkpt lat="43.36891" lon="5.94065">
        <ele>366.82</ele>
        <time>2020-10-11T08:44:35Z</time>
      </trkpt>
      <trkpt lat="43.36889" lon="5.94039">
        <ele>367.54</ele>
        <time>2020-10-11T08:44:40Z</time>
      </trkpt>
      <trkpt lat="43.36886" lon="5.94014">
        <ele>368.04</ele>
        <time>2020-10-11T08:44:45Z</time>
      </trkpt>
      <trkpt lat="43.36884" lon="5.9399">
        <ele>369.02</ele>
        <time>2020-10-11T08:44:50Z</time>
      </trkpt>
      <trkpt lat="43.36882" lon="5.93964">
        <ele>369.92</ele>
        <time>2020-10-11T08:44:55Z</time>
      </trkpt>
      <trkpt lat="43.36879" lon="5.93935">
        <ele>370.94</ele>
        <time>2020-10-11T08:45:01Z</time>
      </trkpt>
      <trkpt lat="43.36879" lon="5.93909">
        <ele>372.18</ele>
        <time>2020-10-11T08:45:06Z</time>
      </trkpt>
      <trkpt lat="43.36879" lon="5.93882">
        <ele>373.21</ele>
        <time>2020-10-11T08:45:11Z</time>
      </trkpt>
      <trkpt lat="43.36878" lon="5.93856">
        <ele>375.17</ele>
        <time>2020-10-11T08:45:16Z</time>
      </trkpt>
      <trkpt lat="43.36877" lon="5.9383">
        <ele>376.44</ele>
        <time>2020-10-11T08:45:21Z</time>
      </trkpt>
      <trkpt lat="43.36875" lon="5.93801">
        <ele>377.62</ele>
        <time>2020-10-11T08:45:27Z</time>
      </trkpt>
      <trkpt lat="43.36876" lon="5.93772">
        <ele>378.64</ele>
        <time>2020-10-11T08:45:33Z</time>
      </trkpt>
      <trkpt lat="43.36879" lon="5.93744">
        <ele>379.71</ele>
        <time>2020-10-11T08:45:38Z</time>
      </trkpt>
      <trkpt lat="43.36878" lon="5.93716">
        <ele>381.31</ele>
        <time>2020-10-11T08:45:44Z</time>
      </trkpt>
      <trkpt lat="43.36872" lon="5.9369">
        <ele>382.14</ele>
        <time>2020-10-11T08:45:50Z</time>
      </trkpt>
      <trkpt lat="43.36866" lon="5.93665">
        <ele>383.1</ele>
        <time>2020-10-11T08:45:55Z</time>
      </trkpt>
      <trkpt lat="43.36861" lon="5.93637">
        <ele>384.12</ele>
        <time>2020-10-11T08:46:01Z</time>
      </trkpt>
      <trkpt lat="43.36859" lon="5.93609">
        <ele>385.13</ele>
        <time>2020-10-11T08:46:05Z</time>
      </trkpt>
      <trkpt lat="43.36856" lon="5.93582">
        <ele>386.37</ele>
        <time>2020-10-11T08:46:09Z</time>
      </trkpt>
      <trkpt lat="43.36861" lon="5.93555">
        <ele>387.55</ele>
        <time>2020-10-11T08:46:14Z</time>
      </trkpt>
      <trkpt lat="43.36872" lon="5.93529">
        <ele>387.63</ele>
        <time>2020-10-11T08:46:19Z</time>
      </trkpt>
      <trkpt lat="43.3688" lon="5.93505">
        <ele>387.3</ele>
        <time>2020-10-11T08:46:23Z</time>
      </trkpt>
      <trkpt lat="43.36889" lon="5.93482">
        <ele>386.77</ele>
        <time>2020-10-11T08:46:27Z</time>
      </trkpt>
      <trkpt lat="43.36897" lon="5.93454">
        <ele>385.98</ele>
        <time>2020-10-11T08:46:31Z</time>
      </trkpt>
      <trkpt lat="43.36903" lon="5.93424">
        <ele>385.95</ele>
        <time>2020-10-11T08:46:36Z</time>
      </trkpt>
      <trkpt lat="43.36906" lon="5.93399">
        <ele>385.69</ele>
        <time>2020-10-11T08:46:41Z</time>
      </trkpt>
      <trkpt lat="43.36907" lon="5.93373">
        <ele>386.14</ele>
        <time>2020-10-11T08:46:46Z</time>
      </trkpt>
      <trkpt lat="43.36913" lon="5.93348">
        <ele>387.13</ele>
        <time>2020-10-11T08:46:52Z</time>
      </trkpt>
      <trkpt lat="43.36927" lon="5.93324">
        <ele>387.1</ele>
        <time>2020-10-11T08:47:00Z</time>
      </trkpt>
      <trkpt lat="43.36941" lon="5.93307">
        <ele>386.97</ele>
        <time>2020-10-11T08:47:06Z</time>
      </trkpt>
      <trkpt lat="43.3696" lon="5.93298">
        <ele>386.49</ele>
        <time>2020-10-11T08:47:13Z</time>
      </trkpt>
      <trkpt lat="43.36979" lon="5.93304">
        <ele>385.46</ele>
        <time>2020-10-11T08:47:21Z</time>
      </trkpt>
      <trkpt lat="43.36997" lon="5.93315">
        <ele>384.95</ele>
        <time>2020-10-11T08:47:30Z</time>
      </trkpt>
      <trkpt lat="43.37016" lon="5.93319">
        <ele>382.49</ele>
        <time>2020-10-11T08:47:40Z</time>
      </trkpt>
      <trkpt lat="43.3703" lon="5.93303">
        <ele>379.12</ele>
        <time>2020-10-11T08:47:50Z</time>
      </trkpt>
      <trkpt lat="43.37045" lon="5.93287">
        <ele>377.44</ele>
        <time>2020-10-11T08:47:59Z</time>
      </trkpt>
      <trkpt lat="43.37059" lon="5.93269">
        <ele>376.19</ele>
        <time>2020-10-11T08:48:07Z</time>
      </trkpt>
      <trkpt lat="43.37077" lon="5.93259">
        <ele>375.39</ele>
        <time>2020-10-11T08:48:16Z</time>
      </trkpt>
      <trkpt lat="43.37095" lon="5.93262">
        <ele>377.03</ele>
        <time>2020-10-11T08:48:24Z</time>
      </trkpt>
      <trkpt lat="43.37114" lon="5.93259">
        <ele>377.7</ele>
        <time>2020-10-11T08:48:31Z</time>
      </trkpt>
      <trkpt lat="43.37126" lon="5.93238">
        <ele>377.93</ele>
        <time>2020-10-11T08:48:41Z</time>
      </trkpt>
      <trkpt lat="43.37136" lon="5.93212">
        <ele>378.31</ele>
        <time>2020-10-11T08:48:48Z</time>
      </trkpt>
      <trkpt lat="43.37152" lon="5.93197">
        <ele>378.15</ele>
        <time>2020-10-11T08:48:53Z</time>
      </trkpt>
      <trkpt lat="43.37169" lon="5.93193">
        <ele>380.24</ele>
        <time>2020-10-11T08:49:05Z</time>
      </trkpt>
      <trkpt lat="43.37186" lon="5.93205">
        <ele>380.72</ele>
        <time>2020-10-11T08:49:18Z</time>
      </trkpt>
      <trkpt lat="43.37204" lon="5.93215">
        <ele>384.37</ele>
        <time>2020-10-11T08:49:32Z</time>
      </trkpt>
      <trkpt lat="43.37223" lon="5.93216">
        <ele>386.32</ele>
        <time>2020-10-11T08:49:41Z</time>
      </trkpt>
      <trkpt lat="43.3724" lon="5.93221">
        <ele>383.98</ele>
        <time>2020-10-11T08:49:53Z</time>
      </trkpt>
      <trkpt lat="43.37259" lon="5.93222">
        <ele>385.34</ele>
        <time>2020-10-11T08:50:05Z</time>
      </trkpt>
      <trkpt lat="43.37277" lon="5.93218">
        <ele>385.45</ele>
        <time>2020-10-11T08:50:17Z</time>
      </trkpt>
      <trkpt lat="43.37295" lon="5.93213">
        <ele>387.72</ele>
        <time>2020-10-11T08:50:29Z</time>
      </trkpt>
      <trkpt lat="43.37313" lon="5.93214">
        <ele>393.26</ele>
        <time>2020-10-11T08:50:41Z</time>
      </trkpt>
      <trkpt lat="43.37331" lon="5.93217">
        <ele>395.02</ele>
        <time>2020-10-11T08:50:53Z</time>
      </trkpt>
      <trkpt lat="43.37344" lon="5.93236">
        <ele>391.17</ele>
        <time>2020-10-11T08:51:23Z</time>
      </trkpt>
      <trkpt lat="43.37353" lon="5.93257">
        <ele>391.74</ele>
        <time>2020-10-11T08:51:38Z</time>
      </trkpt>
      <trkpt lat="43.37371" lon="5.93261">
        <ele>395.42</ele>
        <time>2020-10-11T08:51:58Z</time>
      </trkpt>
      <trkpt lat="43.37388" lon="5.93252">
        <ele>397</ele>
        <time>2020-10-11T08:52:10Z</time>
      </trkpt>
      <trkpt lat="43.37407" lon="5.93256">
        <ele>401.4</ele>
        <time>2020-10-11T08:52:22Z</time>
      </trkpt>
      <trkpt lat="43.37425" lon="5.93262">
        <ele>408.42</ele>
        <time>2020-10-11T08:52:34Z</time>
      </trkpt>
      <trkpt lat="43.37444" lon="5.93269">
        <ele>414.45</ele>
        <time>2020-10-11T08:52:45Z</time>
      </trkpt>
      <trkpt lat="43.37457" lon="5.93287">
        <ele>413.54</ele>
        <time>2020-10-11T08:52:55Z</time>
      </trkpt>
      <trkpt lat="43.37473" lon="5.93301">
        <ele>413.42</ele>
        <time>2020-10-11T08:53:07Z</time>
      </trkpt>
      <trkpt lat="43.3749" lon="5.93309">
        <ele>416.84</ele>
        <time>2020-10-11T08:53:19Z</time>
      </trkpt>
      <trkpt lat="43.37509" lon="5.93302">
        <ele>417.37</ele>
        <time>2020-10-11T08:53:31Z</time>
      </trkpt>
      <trkpt lat="43.37527" lon="5.93301">
        <ele>419.77</ele>
        <time>2020-10-11T08:53:42Z</time>
      </trkpt>
      <trkpt lat="43.37541" lon="5.93318">
        <ele>423.42</ele>
        <time>2020-10-11T08:53:54Z</time>
      </trkpt>
      <trkpt lat="43.37553" lon="5.93338">
        <ele>426.07</ele>
        <time>2020-10-11T08:54:05Z</time>
      </trkpt>
      <trkpt lat="43.37567" lon="5.93357">
        <ele>428.33</ele>
        <time>2020-10-11T08:54:14Z</time>
      </trkpt>
      <trkpt lat="43.37578" lon="5.93378">
        <ele>430.22</ele>
        <time>2020-10-11T08:54:23Z</time>
      </trkpt>
      <trkpt lat="43.37588" lon="5.934">
        <ele>430.58</ele>
        <time>2020-10-11T08:54:30Z</time>
      </trkpt>
      <trkpt lat="43.37592" lon="5.93427">
        <ele>431.99</ele>
        <time>2020-10-11T08:54:39Z</time>
      </trkpt>
      <trkpt lat="43.37598" lon="5.93452">
        <ele>433.32</ele>
        <time>2020-10-11T08:54:49Z</time>
      </trkpt>
      <trkpt lat="43.37608" lon="5.93473">
        <ele>433.24</ele>
        <time>2020-10-11T08:54:58Z</time>
      </trkpt>
      <trkpt lat="43.3761" lon="5.93499">
        <ele>433.67</ele>
        <time>2020-10-11T08:55:07Z</time>
      </trkpt>
      <trkpt lat="43.37611" lon="5.93526">
        <ele>434.61</ele>
        <time>2020-10-11T08:55:17Z</time>
      </trkpt>
      <trkpt lat="43.3761" lon="5.93552">
        <ele>435.62</ele>
        <time>2020-10-11T08:55:26Z</time>
      </trkpt>
      <trkpt lat="43.37601" lon="5.93574">
        <ele>435.47</ele>
        <time>2020-10-11T08:55:33Z</time>
      </trkpt>
      <trkpt lat="43.37584" lon="5.93581">
        <ele>433.21</ele>
        <time>2020-10-11T08:55:45Z</time>
      </trkpt>
      <trkpt lat="43.37566" lon="5.93578">
        <ele>431.37</ele>
        <time>2020-10-11T08:55:54Z</time>
      </trkpt>
      <trkpt lat="43.37554" lon="5.93598">
        <ele>430.27</ele>
        <time>2020-10-11T08:56:08Z</time>
      </trkpt>
      <trkpt lat="43.37548" lon="5.93623">
        <ele>432.34</ele>
        <time>2020-10-11T08:56:21Z</time>
      </trkpt>
      <trkpt lat="43.3754" lon="5.93647">
        <ele>432.86</ele>
        <time>2020-10-11T08:56:31Z</time>
      </trkpt>
      <trkpt lat="43.37533" lon="5.93672">
        <ele>432.47</ele>
        <time>2020-10-11T08:56:38Z</time>
      </trkpt>
      <trkpt lat="43.37525" lon="5.93696">
        <ele>432.45</ele>
        <time>2020-10-11T08:56:45Z</time>
      </trkpt>
      <trkpt lat="43.37524" lon="5.93727">
        <ele>427.45</ele>
        <time>2020-10-11T08:57:32Z</time>
      </trkpt>
      <trkpt lat="43.37542" lon="5.93732">
        <ele>423.45</ele>
        <time>2020-10-11T09:00:49Z</time>
      </trkpt>
      <trkpt lat="43.37552" lon="5.93754">
        <ele>423.37</ele>
        <time>2020-10-11T09:00:55Z</time>
      </trkpt>
      <trkpt lat="43.37564" lon="5.93776">
        <ele>423.79</ele>
        <time>2020-10-11T09:01:02Z</time>
      </trkpt>
      <trkpt lat="43.37567" lon="5.93801">
        <ele>423.34</ele>
        <time>2020-10-11T09:01:10Z</time>
      </trkpt>
      <trkpt lat="43.37577" lon="5.93821">
        <ele>424.02</ele>
        <time>2020-10-11T09:01:27Z</time>
      </trkpt>
      <trkpt lat="43.37598" lon="5.93816">
        <ele>424.22</ele>
        <time>2020-10-11T09:01:35Z</time>
      </trkpt>
      <trkpt lat="43.37617" lon="5.93811">
        <ele>422.4</ele>
        <time>2020-10-11T09:01:42Z</time>
      </trkpt>
      <trkpt lat="43.37634" lon="5.93806">
        <ele>418.19</ele>
        <time>2020-10-11T09:01:49Z</time>
      </trkpt>
      <trkpt lat="43.37652" lon="5.93794">
        <ele>413.82</ele>
        <time>2020-10-11T09:01:56Z</time>
      </trkpt>
      <trkpt lat="43.37664" lon="5.93775">
        <ele>406.89</ele>
        <time>2020-10-11T09:02:08Z</time>
      </trkpt>
      <trkpt lat="43.37676" lon="5.93756">
        <ele>402.6</ele>
        <time>2020-10-11T09:02:20Z</time>
      </trkpt>
      <trkpt lat="43.37691" lon="5.93741">
        <ele>399.32</ele>
        <time>2020-10-11T09:02:32Z</time>
      </trkpt>
      <trkpt lat="43.37706" lon="5.93724">
        <ele>396.74</ele>
        <time>2020-10-11T09:02:46Z</time>
      </trkpt>
      <trkpt lat="43.37725" lon="5.93718">
        <ele>395.07</ele>
        <time>2020-10-11T09:02:55Z</time>
      </trkpt>
      <trkpt lat="43.37744" lon="5.93713">
        <ele>392.11</ele>
        <time>2020-10-11T09:03:05Z</time>
      </trkpt>
      <trkpt lat="43.37762" lon="5.93724">
        <ele>389.56</ele>
        <time>2020-10-11T09:03:13Z</time>
      </trkpt>
      <trkpt lat="43.3778" lon="5.93728">
        <ele>388.6</ele>
        <time>2020-10-11T09:03:20Z</time>
      </trkpt>
      <trkpt lat="43.37799" lon="5.93735">
        <ele>389.32</ele>
        <time>2020-10-11T09:03:28Z</time>
      </trkpt>
      <trkpt lat="43.37818" lon="5.93744">
        <ele>389.11</ele>
        <time>2020-10-11T09:03:36Z</time>
      </trkpt>
      <trkpt lat="43.37834" lon="5.93757">
        <ele>386.32</ele>
        <time>2020-10-11T09:03:44Z</time>
      </trkpt>
      <trkpt lat="43.37853" lon="5.93762">
        <ele>380.37</ele>
        <time>2020-10-11T09:03:52Z</time>
      </trkpt>
      <trkpt lat="43.37871" lon="5.93756">
        <ele>377.09</ele>
        <time>2020-10-11T09:04:00Z</time>
      </trkpt>
      <trkpt lat="43.37885" lon="5.9374">
        <ele>372.07</ele>
        <time>2020-10-11T09:04:10Z</time>
      </trkpt>
      <trkpt lat="43.37902" lon="5.93724">
        <ele>370.1</ele>
        <time>2020-10-11T09:04:17Z</time>
      </trkpt>
      <trkpt lat="43.37916" lon="5.93706">
        <ele>366.17</ele>
        <time>2020-10-11T09:04:26Z</time>
      </trkpt>
      <trkpt lat="43.37928" lon="5.93686">
        <ele>364.23</ele>
        <time>2020-10-11T09:04:35Z</time>
      </trkpt>
      <trkpt lat="43.37942" lon="5.93664">
        <ele>358.87</ele>
        <time>2020-10-11T09:05:11Z</time>
      </trkpt>
      <trkpt lat="43.37959" lon="5.93648">
        <ele>357.67</ele>
        <time>2020-10-11T09:05:19Z</time>
      </trkpt>
      <trkpt lat="43.37976" lon="5.93656">
        <ele>357.61</ele>
        <time>2020-10-11T09:05:30Z</time>
      </trkpt>
      <trkpt lat="43.37997" lon="5.93656">
        <ele>356.07</ele>
        <time>2020-10-11T09:05:39Z</time>
      </trkpt>
      <trkpt lat="43.38017" lon="5.93656">
        <ele>354.03</ele>
        <time>2020-10-11T09:05:47Z</time>
      </trkpt>
      <trkpt lat="43.38037" lon="5.93669">
        <ele>351.63</ele>
        <time>2020-10-11T09:06:06Z</time>
      </trkpt>
      <trkpt lat="43.38052" lon="5.93685">
        <ele>349.82</ele>
        <time>2020-10-11T09:06:12Z</time>
      </trkpt>
      <trkpt lat="43.38052" lon="5.93711">
        <ele>332.22</ele>
        <time>2020-10-11T09:08:07Z</time>
      </trkpt>
      <trkpt lat="43.38054" lon="5.93736">
        <ele>328.55</ele>
        <time>2020-10-11T09:09:08Z</time>
      </trkpt>
      <trkpt lat="43.38053" lon="5.93764">
        <ele>329.04</ele>
        <time>2020-10-11T09:09:15Z</time>
      </trkpt>
      <trkpt lat="43.38053" lon="5.93791">
        <ele>330.58</ele>
        <time>2020-10-11T09:09:22Z</time>
      </trkpt>
      <trkpt lat="43.38056" lon="5.93818">
        <ele>332.02</ele>
        <time>2020-10-11T09:09:28Z</time>
      </trkpt>
      <trkpt lat="43.38053" lon="5.93844">
        <ele>332.94</ele>
        <time>2020-10-11T09:09:34Z</time>
      </trkpt>
      <trkpt lat="43.3805" lon="5.93871">
        <ele>334.3</ele>
        <time>2020-10-11T09:09:41Z</time>
      </trkpt>
      <trkpt lat="43.38061" lon="5.93895">
        <ele>337.06</ele>
        <time>2020-10-11T09:09:50Z</time>
      </trkpt>
      <trkpt lat="43.38067" lon="5.93919">
        <ele>338.6</ele>
        <time>2020-10-11T09:09:55Z</time>
      </trkpt>
      <trkpt lat="43.38069" lon="5.93944">
        <ele>338.61</ele>
        <time>2020-10-11T09:10:00Z</time>
      </trkpt>
      <trkpt lat="43.38081" lon="5.93968">
        <ele>338.86</ele>
        <time>2020-10-11T09:10:05Z</time>
      </trkpt>
      <trkpt lat="43.38089" lon="5.93997">
        <ele>338.34</ele>
        <time>2020-10-11T09:10:10Z</time>
      </trkpt>
      <trkpt lat="43.38097" lon="5.94023">
        <ele>337.55</ele>
        <time>2020-10-11T09:10:14Z</time>
      </trkpt>
      <trkpt lat="43.38111" lon="5.94043">
        <ele>336.68</ele>
        <time>2020-10-11T09:10:20Z</time>
      </trkpt>
      <trkpt lat="43.38132" lon="5.94036">
        <ele>336.09</ele>
        <time>2020-10-11T09:10:26Z</time>
      </trkpt>
      <trkpt lat="43.38152" lon="5.94025">
        <ele>335.64</ele>
        <time>2020-10-11T09:10:31Z</time>
      </trkpt>
      <trkpt lat="43.38174" lon="5.94017">
        <ele>335.55</ele>
        <time>2020-10-11T09:10:36Z</time>
      </trkpt>
      <trkpt lat="43.38195" lon="5.9401">
        <ele>335.57</ele>
        <time>2020-10-11T09:10:41Z</time>
      </trkpt>
      <trkpt lat="43.38213" lon="5.94004">
        <ele>335.9</ele>
        <time>2020-10-11T09:10:45Z</time>
      </trkpt>
      <trkpt lat="43.38233" lon="5.93996">
        <ele>336.25</ele>
        <time>2020-10-11T09:10:50Z</time>
      </trkpt>
      <trkpt lat="43.38253" lon="5.93989">
        <ele>336.31</ele>
        <time>2020-10-11T09:10:55Z</time>
      </trkpt>
      <trkpt lat="43.3827" lon="5.93982">
        <ele>335.79</ele>
        <time>2020-10-11T09:11:00Z</time>
      </trkpt>
      <trkpt lat="43.38289" lon="5.93975">
        <ele>335.55</ele>
        <time>2020-10-11T09:11:05Z</time>
      </trkpt>
      <trkpt lat="43.38309" lon="5.93967">
        <ele>335.2</ele>
        <time>2020-10-11T09:11:11Z</time>
      </trkpt>
      <trkpt lat="43.38327" lon="5.93959">
        <ele>334.08</ele>
        <time>2020-10-11T09:11:17Z</time>
      </trkpt>
      <trkpt lat="43.38346" lon="5.9395">
        <ele>333.59</ele>
        <time>2020-10-11T09:11:24Z</time>
      </trkpt>
      <trkpt lat="43.38366" lon="5.93941">
        <ele>333.45</ele>
        <time>2020-10-11T09:11:31Z</time>
      </trkpt>
      <trkpt lat="43.38382" lon="5.93931">
        <ele>333.85</ele>
        <time>2020-10-11T09:11:37Z</time>
      </trkpt>
      <trkpt lat="43.38398" lon="5.93917">
        <ele>333.86</ele>
        <time>2020-10-11T09:11:44Z</time>
      </trkpt>
      <trkpt lat="43.38413" lon="5.93901">
        <ele>333.79</ele>
        <time>2020-10-11T09:11:50Z</time>
      </trkpt>
      <trkpt lat="43.38429" lon="5.93886">
        <ele>333.2</ele>
        <time>2020-10-11T09:11:55Z</time>
      </trkpt>
      <trkpt lat="43.38445" lon="5.93872">
        <ele>331.86</ele>
        <time>2020-10-11T09:11:59Z</time>
      </trkpt>
      <trkpt lat="43.38465" lon="5.93858">
        <ele>330</ele>
        <time>2020-10-11T09:12:03Z</time>
      </trkpt>
      <trkpt lat="43.38486" lon="5.93844">
        <ele>328.64</ele>
        <time>2020-10-11T09:12:07Z</time>
      </trkpt>
      <trkpt lat="43.38507" lon="5.93835">
        <ele>327.54</ele>
        <time>2020-10-11T09:12:11Z</time>
      </trkpt>
      <trkpt lat="43.38525" lon="5.93825">
        <ele>326.55</ele>
        <time>2020-10-11T09:12:15Z</time>
      </trkpt>
      <trkpt lat="43.38541" lon="5.93809">
        <ele>325.17</ele>
        <time>2020-10-11T09:12:19Z</time>
      </trkpt>
      <trkpt lat="43.38554" lon="5.93781">
        <ele>322.57</ele>
        <time>2020-10-11T09:12:23Z</time>
      </trkpt>
      <trkpt lat="43.3856" lon="5.9375">
        <ele>320.39</ele>
        <time>2020-10-11T09:12:27Z</time>
      </trkpt>
      <trkpt lat="43.38562" lon="5.93724">
        <ele>318.82</ele>
        <time>2020-10-11T09:12:30Z</time>
      </trkpt>
      <trkpt lat="43.38565" lon="5.93692">
        <ele>317.07</ele>
        <time>2020-10-11T09:12:34Z</time>
      </trkpt>
      <trkpt lat="43.38569" lon="5.93666">
        <ele>315.57</ele>
        <time>2020-10-11T09:12:38Z</time>
      </trkpt>
      <trkpt lat="43.38585" lon="5.93644">
        <ele>313.5</ele>
        <time>2020-10-11T09:12:42Z</time>
      </trkpt>
      <trkpt lat="43.38597" lon="5.93625">
        <ele>312</ele>
        <time>2020-10-11T09:12:45Z</time>
      </trkpt>
      <trkpt lat="43.38609" lon="5.93598">
        <ele>309.95</ele>
        <time>2020-10-11T09:12:49Z</time>
      </trkpt>
      <trkpt lat="43.38623" lon="5.93579">
        <ele>307.94</ele>
        <time>2020-10-11T09:12:55Z</time>
      </trkpt>
      <trkpt lat="43.38621" lon="5.93553">
        <ele>304.74</ele>
        <time>2020-10-11T09:13:06Z</time>
      </trkpt>
      <trkpt lat="43.38614" lon="5.9353">
        <ele>302.12</ele>
        <time>2020-10-11T09:13:14Z</time>
      </trkpt>
      <trkpt lat="43.38617" lon="5.93505">
        <ele>301.39</ele>
        <time>2020-10-11T09:13:20Z</time>
      </trkpt>
      <trkpt lat="43.38633" lon="5.93489">
        <ele>299.82</ele>
        <time>2020-10-11T09:13:25Z</time>
      </trkpt>
      <trkpt lat="43.38643" lon="5.93468">
        <ele>297.65</ele>
        <time>2020-10-11T09:13:32Z</time>
      </trkpt>
      <trkpt lat="43.38653" lon="5.93446">
        <ele>296.09</ele>
        <time>2020-10-11T09:13:53Z</time>
      </trkpt>
      <trkpt lat="43.38657" lon="5.93421">
        <ele>294.59</ele>
        <time>2020-10-11T09:14:09Z</time>
      </trkpt>
      <trkpt lat="43.38657" lon="5.93396">
        <ele>292.57</ele>
        <time>2020-10-11T09:14:29Z</time>
      </trkpt>
      <trkpt lat="43.38655" lon="5.93372">
        <ele>290.89</ele>
        <time>2020-10-11T09:14:52Z</time>
      </trkpt>
      <trkpt lat="43.38663" lon="5.93349">
        <ele>289.69</ele>
        <time>2020-10-11T09:15:16Z</time>
      </trkpt>
      <trkpt lat="43.38673" lon="5.93328">
        <ele>288.99</ele>
        <time>2020-10-11T09:15:33Z</time>
      </trkpt>
      <trkpt lat="43.38679" lon="5.93303">
        <ele>287.67</ele>
        <time>2020-10-11T09:15:51Z</time>
      </trkpt>
      <trkpt lat="43.3869" lon="5.93282">
        <ele>285.61</ele>
        <time>2020-10-11T09:16:07Z</time>
      </trkpt>
      <trkpt lat="43.38692" lon="5.93257">
        <ele>284.09</ele>
        <time>2020-10-11T09:16:23Z</time>
      </trkpt>
      <trkpt lat="43.38694" lon="5.93232">
        <ele>282.19</ele>
        <time>2020-10-11T09:16:42Z</time>
      </trkpt>
      <trkpt lat="43.38695" lon="5.93207">
        <ele>280.77</ele>
        <time>2020-10-11T09:17:00Z</time>
      </trkpt>
      <trkpt lat="43.38702" lon="5.93184">
        <ele>279.59</ele>
        <time>2020-10-11T09:17:18Z</time>
      </trkpt>
      <trkpt lat="43.38712" lon="5.93163">
        <ele>278.79</ele>
        <time>2020-10-11T09:17:34Z</time>
      </trkpt>
      <trkpt lat="43.38723" lon="5.93142">
        <ele>277.49</ele>
        <time>2020-10-11T09:17:54Z</time>
      </trkpt>
      <trkpt lat="43.38738" lon="5.9312">
        <ele>275.99</ele>
        <time>2020-10-11T09:18:09Z</time>
      </trkpt>
      <trkpt lat="43.38755" lon="5.9311">
        <ele>270.16</ele>
        <time>2020-10-11T09:18:21Z</time>
      </trkpt>
      <trkpt lat="43.38773" lon="5.93102">
        <ele>266.97</ele>
        <time>2020-10-11T09:18:31Z</time>
      </trkpt>
      <trkpt lat="43.38791" lon="5.93092">
        <ele>263.29</ele>
        <time>2020-10-11T09:18:38Z</time>
      </trkpt>
      <trkpt lat="43.38809" lon="5.93084">
        <ele>259.11</ele>
        <time>2020-10-11T09:18:46Z</time>
      </trkpt>
      <trkpt lat="43.38827" lon="5.93076">
        <ele>254.76</ele>
        <time>2020-10-11T09:18:56Z</time>
      </trkpt>
      <trkpt lat="43.38833" lon="5.93072">
        <ele>238.46</ele>
        <time>2020-10-11T09:22:19Z</time>
      </trkpt>
      <trkpt lat="43.38846" lon="5.93091">
        <ele>240.32</ele>
        <time>2020-10-11T09:22:31Z</time>
      </trkpt>
      <trkpt lat="43.38862" lon="5.93104">
        <ele>241.14</ele>
        <time>2020-10-11T09:22:38Z</time>
      </trkpt>
      <trkpt lat="43.38874" lon="5.93122">
        <ele>242.32</ele>
        <time>2020-10-11T09:22:45Z</time>
      </trkpt>
      <trkpt lat="43.38889" lon="5.93139">
        <ele>244.39</ele>
        <time>2020-10-11T09:22:53Z</time>
      </trkpt>
      <trkpt lat="43.38907" lon="5.93149">
        <ele>247.47</ele>
        <time>2020-10-11T09:23:02Z</time>
      </trkpt>
      <trkpt lat="43.38928" lon="5.93155">
        <ele>246.57</ele>
        <time>2020-10-11T09:23:08Z</time>
      </trkpt>
      <trkpt lat="43.38943" lon="5.93141">
        <ele>244.43</ele>
        <time>2020-10-11T09:23:16Z</time>
      </trkpt>
      <trkpt lat="43.38962" lon="5.9314">
        <ele>247.09</ele>
        <time>2020-10-11T09:23:26Z</time>
      </trkpt>
      <trkpt lat="43.38978" lon="5.93152">
        <ele>248.42</ele>
        <time>2020-10-11T09:23:33Z</time>
      </trkpt>
      <trkpt lat="43.38995" lon="5.93166">
        <ele>249.35</ele>
        <time>2020-10-11T09:23:40Z</time>
      </trkpt>
      <trkpt lat="43.39011" lon="5.93183">
        <ele>250.62</ele>
        <time>2020-10-11T09:23:47Z</time>
      </trkpt>
      <trkpt lat="43.39027" lon="5.93196">
        <ele>251.17</ele>
        <time>2020-10-11T09:23:57Z</time>
      </trkpt>
      <trkpt lat="43.39038" lon="5.93217">
        <ele>251.64</ele>
        <time>2020-10-11T09:24:04Z</time>
      </trkpt>
      <trkpt lat="43.39052" lon="5.93235">
        <ele>252.05</ele>
        <time>2020-10-11T09:24:10Z</time>
      </trkpt>
      <trkpt lat="43.39065" lon="5.93258">
        <ele>252.48</ele>
        <time>2020-10-11T09:24:16Z</time>
      </trkpt>
      <trkpt lat="43.39073" lon="5.93285">
        <ele>253.9</ele>
        <time>2020-10-11T09:24:23Z</time>
      </trkpt>
      <trkpt lat="43.39076" lon="5.9331">
        <ele>256.01</ele>
        <time>2020-10-11T09:24:30Z</time>
      </trkpt>
      <trkpt lat="43.39075" lon="5.93336">
        <ele>259.17</ele>
        <time>2020-10-11T09:24:39Z</time>
      </trkpt>
      <trkpt lat="43.39074" lon="5.93364">
        <ele>262.45</ele>
        <time>2020-10-11T09:24:47Z</time>
      </trkpt>
      <trkpt lat="43.39074" lon="5.9339">
        <ele>265.39</ele>
        <time>2020-10-11T09:24:54Z</time>
      </trkpt>
      <trkpt lat="43.39082" lon="5.93417">
        <ele>265.76</ele>
        <time>2020-10-11T09:24:59Z</time>
      </trkpt>
      <trkpt lat="43.391" lon="5.93433">
        <ele>266.63</ele>
        <time>2020-10-11T09:25:04Z</time>
      </trkpt>
      <trkpt lat="43.39118" lon="5.93443">
        <ele>267.44</ele>
        <time>2020-10-11T09:25:08Z</time>
      </trkpt>
      <trkpt lat="43.39136" lon="5.93447">
        <ele>268.51</ele>
        <time>2020-10-11T09:25:13Z</time>
      </trkpt>
      <trkpt lat="43.39157" lon="5.93449">
        <ele>268.95</ele>
        <time>2020-10-11T09:25:19Z</time>
      </trkpt>
      <trkpt lat="43.39179" lon="5.93447">
        <ele>268.3</ele>
        <time>2020-10-11T09:25:24Z</time>
      </trkpt>
      <trkpt lat="43.39198" lon="5.93444">
        <ele>267.46</ele>
        <time>2020-10-11T09:25:29Z</time>
      </trkpt>
      <trkpt lat="43.39216" lon="5.93446">
        <ele>265.81</ele>
        <time>2020-10-11T09:25:34Z</time>
      </trkpt>
      <trkpt lat="43.39235" lon="5.93451">
        <ele>265.47</ele>
        <time>2020-10-11T09:25:39Z</time>
      </trkpt>
      <trkpt lat="43.39255" lon="5.9346">
        <ele>266.22</ele>
        <time>2020-10-11T09:25:45Z</time>
      </trkpt>
      <trkpt lat="43.39275" lon="5.93462">
        <ele>265.83</ele>
        <time>2020-10-11T09:25:50Z</time>
      </trkpt>
      <trkpt lat="43.39295" lon="5.93466">
        <ele>265.18</ele>
        <time>2020-10-11T09:25:55Z</time>
      </trkpt>
      <trkpt lat="43.39314" lon="5.93468">
        <ele>265.8</ele>
        <time>2020-10-11T09:26:00Z</time>
      </trkpt>
      <trkpt lat="43.39334" lon="5.93472">
        <ele>265.26</ele>
        <time>2020-10-11T09:26:05Z</time>
      </trkpt>
      <trkpt lat="43.39354" lon="5.93476">
        <ele>262.83</ele>
        <time>2020-10-11T09:26:10Z</time>
      </trkpt>
      <trkpt lat="43.39373" lon="5.93475">
        <ele>261.09</ele>
        <time>2020-10-11T09:26:15Z</time>
      </trkpt>
      <trkpt lat="43.39394" lon="5.9347">
        <ele>258.2</ele>
        <time>2020-10-11T09:26:20Z</time>
      </trkpt>
      <trkpt lat="43.39415" lon="5.93467">
        <ele>257.26</ele>
        <time>2020-10-11T09:26:25Z</time>
      </trkpt>
      <trkpt lat="43.39434" lon="5.93467">
        <ele>255.78</ele>
        <time>2020-10-11T09:26:29Z</time>
      </trkpt>
      <trkpt lat="43.39452" lon="5.93467">
        <ele>254.26</ele>
        <time>2020-10-11T09:26:34Z</time>
      </trkpt>
      <trkpt lat="43.39469" lon="5.93457">
        <ele>252.14</ele>
        <time>2020-10-11T09:26:39Z</time>
      </trkpt>
      <trkpt lat="43.39486" lon="5.93445">
        <ele>246.26</ele>
        <time>2020-10-11T09:26:44Z</time>
      </trkpt>
      <trkpt lat="43.39501" lon="5.93428">
        <ele>241.91</ele>
        <time>2020-10-11T09:26:49Z</time>
      </trkpt>
      <trkpt lat="43.39519" lon="5.93416">
        <ele>240.42</ele>
        <time>2020-10-11T09:26:55Z</time>
      </trkpt>
      <trkpt lat="43.39539" lon="5.93408">
        <ele>240.73</ele>
        <time>2020-10-11T09:27:01Z</time>
      </trkpt>
      <trkpt lat="43.39557" lon="5.93409">
        <ele>243.41</ele>
        <time>2020-10-11T09:27:07Z</time>
      </trkpt>
      <trkpt lat="43.39577" lon="5.93411">
        <ele>247.79</ele>
        <time>2020-10-11T09:27:14Z</time>
      </trkpt>
      <trkpt lat="43.39598" lon="5.93409">
        <ele>250.18</ele>
        <time>2020-10-11T09:27:20Z</time>
      </trkpt>
      <trkpt lat="43.39618" lon="5.9341">
        <ele>254.1</ele>
        <time>2020-10-11T09:27:26Z</time>
      </trkpt>
      <trkpt lat="43.39638" lon="5.93417">
        <ele>255.44</ele>
        <time>2020-10-11T09:27:31Z</time>
      </trkpt>
      <trkpt lat="43.39659" lon="5.93412">
        <ele>254.9</ele>
        <time>2020-10-11T09:27:37Z</time>
      </trkpt>
      <trkpt lat="43.39678" lon="5.93408">
        <ele>254.52</ele>
        <time>2020-10-11T09:27:43Z</time>
      </trkpt>
      <trkpt lat="43.39696" lon="5.93399">
        <ele>255.29</ele>
        <time>2020-10-11T09:27:50Z</time>
      </trkpt>
      <trkpt lat="43.39711" lon="5.93386">
        <ele>255.51</ele>
        <time>2020-10-11T09:27:57Z</time>
      </trkpt>
      <trkpt lat="43.39729" lon="5.93375">
        <ele>252.16</ele>
        <time>2020-10-11T09:28:02Z</time>
      </trkpt>
      <trkpt lat="43.39743" lon="5.93355">
        <ele>249.59</ele>
        <time>2020-10-11T09:28:08Z</time>
      </trkpt>
      <trkpt lat="43.39757" lon="5.93335">
        <ele>248.52</ele>
        <time>2020-10-11T09:28:14Z</time>
      </trkpt>
      <trkpt lat="43.39772" lon="5.93319">
        <ele>247.89</ele>
        <time>2020-10-11T09:28:20Z</time>
      </trkpt>
      <trkpt lat="43.39788" lon="5.93303">
        <ele>246.87</ele>
        <time>2020-10-11T09:28:27Z</time>
      </trkpt>
      <trkpt lat="43.39803" lon="5.93287">
        <ele>246.95</ele>
        <time>2020-10-11T09:28:33Z</time>
      </trkpt>
      <trkpt lat="43.39817" lon="5.9327">
        <ele>246.85</ele>
        <time>2020-10-11T09:28:39Z</time>
      </trkpt>
      <trkpt lat="43.3983" lon="5.93251">
        <ele>246.87</ele>
        <time>2020-10-11T09:28:47Z</time>
      </trkpt>
      <trkpt lat="43.39845" lon="5.9323">
        <ele>247.04</ele>
        <time>2020-10-11T09:28:53Z</time>
      </trkpt>
      <trkpt lat="43.39859" lon="5.93213">
        <ele>247.42</ele>
        <time>2020-10-11T09:28:58Z</time>
      </trkpt>
      <trkpt lat="43.39875" lon="5.93195">
        <ele>247.51</ele>
        <time>2020-10-11T09:29:02Z</time>
      </trkpt>
      <trkpt lat="43.39889" lon="5.93177">
        <ele>246.88</ele>
        <time>2020-10-11T09:29:06Z</time>
      </trkpt>
      <trkpt lat="43.399" lon="5.93155">
        <ele>247.05</ele>
        <time>2020-10-11T09:29:11Z</time>
      </trkpt>
      <trkpt lat="43.39909" lon="5.93131">
        <ele>246.78</ele>
        <time>2020-10-11T09:29:16Z</time>
      </trkpt>
      <trkpt lat="43.3992" lon="5.93106">
        <ele>245.94</ele>
        <time>2020-10-11T09:29:22Z</time>
      </trkpt>
      <trkpt lat="43.39936" lon="5.93086">
        <ele>245.49</ele>
        <time>2020-10-11T09:29:28Z</time>
      </trkpt>
      <trkpt lat="43.3995" lon="5.93069">
        <ele>245.68</ele>
        <time>2020-10-11T09:29:34Z</time>
      </trkpt>
      <trkpt lat="43.39965" lon="5.93049">
        <ele>245.74</ele>
        <time>2020-10-11T09:29:40Z</time>
      </trkpt>
      <trkpt lat="43.39981" lon="5.93034">
        <ele>245.87</ele>
        <time>2020-10-11T09:29:45Z</time>
      </trkpt>
      <trkpt lat="43.39998" lon="5.93018">
        <ele>246.36</ele>
        <time>2020-10-11T09:29:51Z</time>
      </trkpt>
      <trkpt lat="43.40015" lon="5.92999">
        <ele>246.29</ele>
        <time>2020-10-11T09:29:57Z</time>
      </trkpt>
      <trkpt lat="43.40028" lon="5.92982">
        <ele>245.91</ele>
        <time>2020-10-11T09:30:02Z</time>
      </trkpt>
      <trkpt lat="43.40045" lon="5.92962">
        <ele>244.75</ele>
        <time>2020-10-11T09:30:08Z</time>
      </trkpt>
      <trkpt lat="43.40063" lon="5.92943">
        <ele>243.87</ele>
        <time>2020-10-11T09:30:13Z</time>
      </trkpt>
      <trkpt lat="43.40077" lon="5.92924">
        <ele>243.29</ele>
        <time>2020-10-11T09:30:17Z</time>
      </trkpt>
      <trkpt lat="43.40094" lon="5.92904">
        <ele>242.62</ele>
        <time>2020-10-11T09:30:22Z</time>
      </trkpt>
      <trkpt lat="43.40111" lon="5.92885">
        <ele>241.46</ele>
        <time>2020-10-11T09:30:27Z</time>
      </trkpt>
      <trkpt lat="43.40125" lon="5.92867">
        <ele>240.42</ele>
        <time>2020-10-11T09:30:31Z</time>
      </trkpt>
      <trkpt lat="43.40138" lon="5.9285">
        <ele>239.91</ele>
        <time>2020-10-11T09:30:35Z</time>
      </trkpt>
      <trkpt lat="43.40152" lon="5.92834">
        <ele>239.14</ele>
        <time>2020-10-11T09:30:39Z</time>
      </trkpt>
      <trkpt lat="43.40167" lon="5.92812">
        <ele>237.6</ele>
        <time>2020-10-11T09:30:44Z</time>
      </trkpt>
      <trkpt lat="43.40178" lon="5.92792">
        <ele>236.91</ele>
        <time>2020-10-11T09:30:48Z</time>
      </trkpt>
      <trkpt lat="43.40191" lon="5.92773">
        <ele>236.41</ele>
        <time>2020-10-11T09:30:52Z</time>
      </trkpt>
      <trkpt lat="43.40204" lon="5.92755">
        <ele>235.62</ele>
        <time>2020-10-11T09:30:56Z</time>
      </trkpt>
      <trkpt lat="43.40217" lon="5.92736">
        <ele>235.55</ele>
        <time>2020-10-11T09:31:00Z</time>
      </trkpt>
      <trkpt lat="43.4023" lon="5.92718">
        <ele>235.47</ele>
        <time>2020-10-11T09:31:04Z</time>
      </trkpt>
      <trkpt lat="43.40245" lon="5.92697">
        <ele>234.91</ele>
        <time>2020-10-11T09:31:09Z</time>
      </trkpt>
      <trkpt lat="43.40261" lon="5.9268">
        <ele>234.49</ele>
        <time>2020-10-11T09:31:14Z</time>
      </trkpt>
      <trkpt lat="43.40278" lon="5.92666">
        <ele>234.19</ele>
        <time>2020-10-11T09:31:19Z</time>
      </trkpt>
      <trkpt lat="43.40293" lon="5.92653">
        <ele>233.99</ele>
        <time>2020-10-11T09:31:24Z</time>
      </trkpt>
      <trkpt lat="43.4031" lon="5.92644">
        <ele>234.52</ele>
        <time>2020-10-11T09:31:30Z</time>
      </trkpt>
      <trkpt lat="43.40329" lon="5.92654">
        <ele>236.47</ele>
        <time>2020-10-11T09:31:37Z</time>
      </trkpt>
      <trkpt lat="43.40347" lon="5.92665">
        <ele>237.9</ele>
        <time>2020-10-11T09:31:42Z</time>
      </trkpt>
      <trkpt lat="43.40366" lon="5.92676">
        <ele>238.97</ele>
        <time>2020-10-11T09:31:47Z</time>
      </trkpt>
      <trkpt lat="43.40384" lon="5.92688">
        <ele>240.49</ele>
        <time>2020-10-11T09:31:52Z</time>
      </trkpt>
      <trkpt lat="43.40405" lon="5.92698">
        <ele>242.11</ele>
        <time>2020-10-11T09:31:57Z</time>
      </trkpt>
      <trkpt lat="43.4042" lon="5.92685">
        <ele>241.85</ele>
        <time>2020-10-11T09:32:02Z</time>
      </trkpt>
      <trkpt lat="43.40435" lon="5.9267">
        <ele>241.27</ele>
        <time>2020-10-11T09:32:07Z</time>
      </trkpt>
      <trkpt lat="43.40447" lon="5.92645">
        <ele>241.05</ele>
        <time>2020-10-11T09:32:13Z</time>
      </trkpt>
      <trkpt lat="43.40457" lon="5.9262">
        <ele>241.23</ele>
        <time>2020-10-11T09:32:19Z</time>
      </trkpt>
      <trkpt lat="43.40465" lon="5.92595">
        <ele>239.92</ele>
        <time>2020-10-11T09:32:25Z</time>
      </trkpt>
      <trkpt lat="43.40473" lon="5.92568">
        <ele>239.75</ele>
        <time>2020-10-11T09:32:31Z</time>
      </trkpt>
      <trkpt lat="43.40483" lon="5.92544">
        <ele>239.37</ele>
        <time>2020-10-11T09:32:37Z</time>
      </trkpt>
      <trkpt lat="43.40492" lon="5.92521">
        <ele>228.06</ele>
        <time>2020-10-11T09:38:33Z</time>
      </trkpt>
      <trkpt lat="43.40504" lon="5.92499">
        <ele>229.79</ele>
        <time>2020-10-11T09:38:43Z</time>
      </trkpt>
      <trkpt lat="43.40518" lon="5.92482">
        <ele>232.51</ele>
        <time>2020-10-11T09:38:51Z</time>
      </trkpt>
      <trkpt lat="43.40531" lon="5.92465">
        <ele>234.27</ele>
        <time>2020-10-11T09:38:59Z</time>
      </trkpt>
      <trkpt lat="43.40543" lon="5.92444">
        <ele>236.54</ele>
        <time>2020-10-11T09:39:06Z</time>
      </trkpt>
      <trkpt lat="43.40546" lon="5.92417">
        <ele>240.09</ele>
        <time>2020-10-11T09:39:13Z</time>
      </trkpt>
      <trkpt lat="43.40559" lon="5.92396">
        <ele>242.97</ele>
        <time>2020-10-11T09:39:21Z</time>
      </trkpt>
      <trkpt lat="43.40581" lon="5.924">
        <ele>243.82</ele>
        <time>2020-10-11T09:39:28Z</time>
      </trkpt>
      <trkpt lat="43.40599" lon="5.92391">
        <ele>245.37</ele>
        <time>2020-10-11T09:39:34Z</time>
      </trkpt>
      <trkpt lat="43.40615" lon="5.9238">
        <ele>247.1</ele>
        <time>2020-10-11T09:39:39Z</time>
      </trkpt>
      <trkpt lat="43.40634" lon="5.92386">
        <ele>249.36</ele>
        <time>2020-10-11T09:39:46Z</time>
      </trkpt>
      <trkpt lat="43.40654" lon="5.92377">
        <ele>251.39</ele>
        <time>2020-10-11T09:39:53Z</time>
      </trkpt>
      <trkpt lat="43.40671" lon="5.92362">
        <ele>252.78</ele>
        <time>2020-10-11T09:39:59Z</time>
      </trkpt>
      <trkpt lat="43.40684" lon="5.92345">
        <ele>255.02</ele>
        <time>2020-10-11T09:40:08Z</time>
      </trkpt>
      <trkpt lat="43.40695" lon="5.9232">
        <ele>257.21</ele>
        <time>2020-10-11T09:40:17Z</time>
      </trkpt>
      <trkpt lat="43.40705" lon="5.923">
        <ele>259.8</ele>
        <time>2020-10-11T09:40:23Z</time>
      </trkpt>
      <trkpt lat="43.40707" lon="5.92273">
        <ele>262.37</ele>
        <time>2020-10-11T09:40:30Z</time>
      </trkpt>
      <trkpt lat="43.40709" lon="5.92248">
        <ele>266.86</ele>
        <time>2020-10-11T09:40:40Z</time>
      </trkpt>
      <trkpt lat="43.40709" lon="5.92232">
        <ele>295.5</ele>
      </trkpt>
      <trkpt lat="43.40707" lon="5.92221">
        <ele>258.79</ele>
        <time>2020-10-11T09:41:47Z</time>
      </trkpt>
      <trkpt lat="43.40691" lon="5.92204">
        <ele>259.24</ele>
        <time>2020-10-11T09:41:53Z</time>
      </trkpt>
      <trkpt lat="43.40675" lon="5.92187">
        <ele>260.34</ele>
        <time>2020-10-11T09:42:01Z</time>
      </trkpt>
      <trkpt lat="43.4067" lon="5.92162">
        <ele>261.52</ele>
        <time>2020-10-11T09:42:06Z</time>
      </trkpt>
      <trkpt lat="43.40662" lon="5.92139">
        <ele>262.08</ele>
        <time>2020-10-11T09:42:12Z</time>
      </trkpt>
      <trkpt lat="43.40659" lon="5.92113">
        <ele>263.6</ele>
        <time>2020-10-11T09:42:18Z</time>
      </trkpt>
      <trkpt lat="43.40658" lon="5.92085">
        <ele>265.12</ele>
        <time>2020-10-11T09:42:25Z</time>
      </trkpt>
      <trkpt lat="43.40657" lon="5.92058">
        <ele>266.72</ele>
        <time>2020-10-11T09:42:32Z</time>
      </trkpt>
      <trkpt lat="43.40658" lon="5.92031">
        <ele>268.37</ele>
        <time>2020-10-11T09:42:39Z</time>
      </trkpt>
      <trkpt lat="43.40655" lon="5.92005">
        <ele>270.42</ele>
        <time>2020-10-11T09:42:48Z</time>
      </trkpt>
      <trkpt lat="43.4064" lon="5.9199">
        <ele>274.91</ele>
        <time>2020-10-11T09:43:03Z</time>
      </trkpt>
      <trkpt lat="43.40634" lon="5.91966">
        <ele>274.13</ele>
        <time>2020-10-11T09:43:06Z</time>
      </trkpt>
      <trkpt lat="43.40626" lon="5.91939">
        <ele>271.98</ele>
        <time>2020-10-11T09:43:09Z</time>
      </trkpt>
      <trkpt lat="43.40609" lon="5.91922">
        <ele>270.05</ele>
        <time>2020-10-11T09:43:13Z</time>
      </trkpt>
      <trkpt lat="43.40591" lon="5.91905">
        <ele>268.58</ele>
        <time>2020-10-11T09:43:18Z</time>
      </trkpt>
      <trkpt lat="43.4058" lon="5.91884">
        <ele>267.23</ele>
        <time>2020-10-11T09:43:24Z</time>
      </trkpt>
      <trkpt lat="43.40574" lon="5.91859">
        <ele>266.05</ele>
        <time>2020-10-11T09:43:31Z</time>
      </trkpt>
      <trkpt lat="43.40574" lon="5.91832">
        <ele>267.22</ele>
        <time>2020-10-11T09:43:40Z</time>
      </trkpt>
      <trkpt lat="43.40575" lon="5.91805">
        <ele>270.13</ele>
        <time>2020-10-11T09:43:49Z</time>
      </trkpt>
      <trkpt lat="43.40581" lon="5.91778">
        <ele>274.71</ele>
        <time>2020-10-11T09:43:59Z</time>
      </trkpt>
      <trkpt lat="43.40586" lon="5.91754">
        <ele>276.8</ele>
        <time>2020-10-11T09:44:08Z</time>
      </trkpt>
      <trkpt lat="43.40588" lon="5.91729">
        <ele>279.89</ele>
        <time>2020-10-11T09:44:17Z</time>
      </trkpt>
      <trkpt lat="43.40586" lon="5.91703">
        <ele>283.77</ele>
        <time>2020-10-11T09:44:27Z</time>
      </trkpt>
      <trkpt lat="43.40585" lon="5.91678">
        <ele>288.9</ele>
        <time>2020-10-11T09:44:37Z</time>
      </trkpt>
      <trkpt lat="43.40587" lon="5.9165">
        <ele>294.05</ele>
        <time>2020-10-11T09:44:45Z</time>
      </trkpt>
      <trkpt lat="43.40586" lon="5.91622">
        <ele>300.02</ele>
        <time>2020-10-11T09:44:53Z</time>
      </trkpt>
      <trkpt lat="43.40589" lon="5.91597">
        <ele>305.35</ele>
        <time>2020-10-11T09:45:00Z</time>
      </trkpt>
      <trkpt lat="43.40593" lon="5.91569">
        <ele>310.23</ele>
        <time>2020-10-11T09:45:07Z</time>
      </trkpt>
      <trkpt lat="43.40595" lon="5.91542">
        <ele>312.4</ele>
        <time>2020-10-11T09:45:13Z</time>
      </trkpt>
      <trkpt lat="43.40596" lon="5.91517">
        <ele>314.2</ele>
        <time>2020-10-11T09:45:18Z</time>
      </trkpt>
      <trkpt lat="43.40597" lon="5.91489">
        <ele>315.46</ele>
        <time>2020-10-11T09:45:24Z</time>
      </trkpt>
      <trkpt lat="43.40592" lon="5.91462">
        <ele>314.72</ele>
        <time>2020-10-11T09:45:30Z</time>
      </trkpt>
      <trkpt lat="43.40584" lon="5.91434">
        <ele>312.65</ele>
        <time>2020-10-11T09:45:35Z</time>
      </trkpt>
      <trkpt lat="43.40576" lon="5.91412">
        <ele>310.29</ele>
        <time>2020-10-11T09:45:39Z</time>
      </trkpt>
      <trkpt lat="43.40565" lon="5.91387">
        <ele>306.12</ele>
        <time>2020-10-11T09:45:44Z</time>
      </trkpt>
      <trkpt lat="43.40556" lon="5.91358">
        <ele>302.42</ele>
        <time>2020-10-11T09:45:49Z</time>
      </trkpt>
      <trkpt lat="43.40548" lon="5.9133">
        <ele>298.98</ele>
        <time>2020-10-11T09:45:54Z</time>
      </trkpt>
      <trkpt lat="43.40544" lon="5.91302">
        <ele>296.08</ele>
        <time>2020-10-11T09:45:59Z</time>
      </trkpt>
      <trkpt lat="43.40542" lon="5.91273">
        <ele>293.76</ele>
        <time>2020-10-11T09:46:05Z</time>
      </trkpt>
      <trkpt lat="43.40538" lon="5.91247">
        <ele>288.47</ele>
        <time>2020-10-11T09:46:09Z</time>
      </trkpt>
      <trkpt lat="43.40533" lon="5.9122">
        <ele>281.57</ele>
        <time>2020-10-11T09:46:13Z</time>
      </trkpt>
      <trkpt lat="43.40525" lon="5.91193">
        <ele>277.97</ele>
        <time>2020-10-11T09:46:19Z</time>
      </trkpt>
      <trkpt lat="43.40519" lon="5.91166">
        <ele>276.7</ele>
        <time>2020-10-11T09:46:25Z</time>
      </trkpt>
      <trkpt lat="43.40507" lon="5.91145">
        <ele>273.13</ele>
        <time>2020-10-11T09:46:30Z</time>
      </trkpt>
      <trkpt lat="43.4049" lon="5.91135">
        <ele>271.05</ele>
        <time>2020-10-11T09:46:35Z</time>
      </trkpt>
      <trkpt lat="43.40477" lon="5.91116">
        <ele>270.31</ele>
        <time>2020-10-11T09:46:41Z</time>
      </trkpt>
      <trkpt lat="43.40466" lon="5.91095">
        <ele>270.55</ele>
        <time>2020-10-11T09:46:47Z</time>
      </trkpt>
      <trkpt lat="43.40457" lon="5.91072">
        <ele>271.07</ele>
        <time>2020-10-11T09:46:53Z</time>
      </trkpt>
      <trkpt lat="43.40449" lon="5.91049">
        <ele>269.83</ele>
        <time>2020-10-11T09:46:59Z</time>
      </trkpt>
      <trkpt lat="43.40441" lon="5.91024">
        <ele>268.5</ele>
        <time>2020-10-11T09:47:05Z</time>
      </trkpt>
      <trkpt lat="43.40432" lon="5.91">
        <ele>267.78</ele>
        <time>2020-10-11T09:47:11Z</time>
      </trkpt>
      <trkpt lat="43.4042" lon="5.90978">
        <ele>266.69</ele>
        <time>2020-10-11T09:47:18Z</time>
      </trkpt>
      <trkpt lat="43.40402" lon="5.90969">
        <ele>269.91</ele>
        <time>2020-10-11T09:47:27Z</time>
      </trkpt>
      <trkpt lat="43.40385" lon="5.90958">
        <ele>272.14</ele>
        <time>2020-10-11T09:47:36Z</time>
      </trkpt>
      <trkpt lat="43.40367" lon="5.90946">
        <ele>273.96</ele>
        <time>2020-10-11T09:47:47Z</time>
      </trkpt>
      <trkpt lat="43.40351" lon="5.90929">
        <ele>274.65</ele>
        <time>2020-10-11T09:47:58Z</time>
      </trkpt>
      <trkpt lat="43.40344" lon="5.90906">
        <ele>277.67</ele>
        <time>2020-10-11T09:48:11Z</time>
      </trkpt>
      <trkpt lat="43.40338" lon="5.90882">
        <ele>280.52</ele>
        <time>2020-10-11T09:48:23Z</time>
      </trkpt>
      <trkpt lat="43.40333" lon="5.90858">
        <ele>281.92</ele>
        <time>2020-10-11T09:48:34Z</time>
      </trkpt>
      <trkpt lat="43.40323" lon="5.90836">
        <ele>283.26</ele>
        <time>2020-10-11T09:48:45Z</time>
      </trkpt>
      <trkpt lat="43.40307" lon="5.90821">
        <ele>284.92</ele>
        <time>2020-10-11T09:48:56Z</time>
      </trkpt>
      <trkpt lat="43.40289" lon="5.90816">
        <ele>288.51</ele>
        <time>2020-10-11T09:49:11Z</time>
      </trkpt>
      <trkpt lat="43.40276" lon="5.90799">
        <ele>291.71</ele>
        <time>2020-10-11T09:49:25Z</time>
      </trkpt>
      <trkpt lat="43.40276" lon="5.90774">
        <ele>299.12</ele>
        <time>2020-10-11T09:49:43Z</time>
      </trkpt>
      <trkpt lat="43.40271" lon="5.90748">
        <ele>305.94</ele>
        <time>2020-10-11T09:49:56Z</time>
      </trkpt>
      <trkpt lat="43.40268" lon="5.90723">
        <ele>308</ele>
        <time>2020-10-11T09:50:04Z</time>
      </trkpt>
      <trkpt lat="43.40262" lon="5.90698">
        <ele>310.95</ele>
        <time>2020-10-11T09:50:12Z</time>
      </trkpt>
      <trkpt lat="43.40257" lon="5.90672">
        <ele>313.04</ele>
        <time>2020-10-11T09:50:20Z</time>
      </trkpt>
      <trkpt lat="43.40254" lon="5.90643">
        <ele>309.65</ele>
        <time>2020-10-11T09:50:26Z</time>
      </trkpt>
      <trkpt lat="43.40245" lon="5.90616">
        <ele>307.14</ele>
        <time>2020-10-11T09:50:31Z</time>
      </trkpt>
      <trkpt lat="43.40237" lon="5.90593">
        <ele>306.32</ele>
        <time>2020-10-11T09:50:37Z</time>
      </trkpt>
      <trkpt lat="43.40229" lon="5.90567">
        <ele>306.19</ele>
        <time>2020-10-11T09:50:42Z</time>
      </trkpt>
      <trkpt lat="43.40219" lon="5.90544">
        <ele>304.11</ele>
        <time>2020-10-11T09:50:46Z</time>
      </trkpt>
      <trkpt lat="43.4021" lon="5.90518">
        <ele>302.07</ele>
        <time>2020-10-11T09:50:51Z</time>
      </trkpt>
      <trkpt lat="43.40202" lon="5.90495">
        <ele>300.41</ele>
        <time>2020-10-11T09:50:55Z</time>
      </trkpt>
      <trkpt lat="43.40196" lon="5.90468">
        <ele>298.31</ele>
        <time>2020-10-11T09:50:59Z</time>
      </trkpt>
      <trkpt lat="43.40191" lon="5.90444">
        <ele>296.93</ele>
        <time>2020-10-11T09:51:03Z</time>
      </trkpt>
      <trkpt lat="43.40187" lon="5.90415">
        <ele>296.08</ele>
        <time>2020-10-11T09:51:08Z</time>
      </trkpt>
      <trkpt lat="43.40185" lon="5.90387">
        <ele>295.02</ele>
        <time>2020-10-11T09:51:13Z</time>
      </trkpt>
      <trkpt lat="43.40183" lon="5.90359">
        <ele>294.32</ele>
        <time>2020-10-11T09:51:19Z</time>
      </trkpt>
      <trkpt lat="43.40178" lon="5.90333">
        <ele>293.46</ele>
        <time>2020-10-11T09:51:24Z</time>
      </trkpt>
      <trkpt lat="43.40173" lon="5.90307">
        <ele>292.37</ele>
        <time>2020-10-11T09:51:28Z</time>
      </trkpt>
      <trkpt lat="43.40168" lon="5.90282">
        <ele>290.32</ele>
        <time>2020-10-11T09:51:32Z</time>
      </trkpt>
      <trkpt lat="43.4016" lon="5.90257">
        <ele>288.54</ele>
        <time>2020-10-11T09:51:37Z</time>
      </trkpt>
      <trkpt lat="43.40153" lon="5.90231">
        <ele>287.3</ele>
        <time>2020-10-11T09:51:42Z</time>
      </trkpt>
      <trkpt lat="43.40145" lon="5.90205">
        <ele>286.67</ele>
        <time>2020-10-11T09:51:47Z</time>
      </trkpt>
      <trkpt lat="43.40137" lon="5.90178">
        <ele>286.37</ele>
        <time>2020-10-11T09:51:53Z</time>
      </trkpt>
      <trkpt lat="43.40129" lon="5.90155">
        <ele>286.66</ele>
        <time>2020-10-11T09:51:58Z</time>
      </trkpt>
      <trkpt lat="43.40122" lon="5.90131">
        <ele>286.75</ele>
        <time>2020-10-11T09:52:03Z</time>
      </trkpt>
      <trkpt lat="43.40113" lon="5.90105">
        <ele>286.48</ele>
        <time>2020-10-11T09:52:09Z</time>
      </trkpt>
      <trkpt lat="43.40107" lon="5.90081">
        <ele>285.97</ele>
        <time>2020-10-11T09:52:14Z</time>
      </trkpt>
      <trkpt lat="43.40098" lon="5.90055">
        <ele>285.09</ele>
        <time>2020-10-11T09:52:20Z</time>
      </trkpt>
      <trkpt lat="43.40087" lon="5.90032">
        <ele>285.05</ele>
        <time>2020-10-11T09:52:26Z</time>
      </trkpt>
      <trkpt lat="43.40078" lon="5.9001">
        <ele>285.5</ele>
        <time>2020-10-11T09:52:33Z</time>
      </trkpt>
      <trkpt lat="43.40066" lon="5.89986">
        <ele>286.24</ele>
        <time>2020-10-11T09:52:39Z</time>
      </trkpt>
      <trkpt lat="43.40054" lon="5.89964">
        <ele>287.18</ele>
        <time>2020-10-11T09:52:46Z</time>
      </trkpt>
      <trkpt lat="43.40055" lon="5.89938">
        <ele>290.88</ele>
        <time>2020-10-11T09:52:55Z</time>
      </trkpt>
      <trkpt lat="43.40067" lon="5.89919">
        <ele>294.23</ele>
        <time>2020-10-11T09:53:02Z</time>
      </trkpt>
      <trkpt lat="43.4008" lon="5.89902">
        <ele>296.54</ele>
        <time>2020-10-11T09:53:09Z</time>
      </trkpt>
      <trkpt lat="43.40093" lon="5.89883">
        <ele>297.6</ele>
        <time>2020-10-11T09:53:15Z</time>
      </trkpt>
      <trkpt lat="43.40103" lon="5.89858">
        <ele>300.54</ele>
        <time>2020-10-11T09:53:22Z</time>
      </trkpt>
      <trkpt lat="43.40108" lon="5.89834">
        <ele>302.88</ele>
        <time>2020-10-11T09:53:28Z</time>
      </trkpt>
      <trkpt lat="43.40113" lon="5.89808">
        <ele>308.61</ele>
        <time>2020-10-11T09:53:36Z</time>
      </trkpt>
      <trkpt lat="43.40112" lon="5.89782">
        <ele>312.82</ele>
        <time>2020-10-11T09:53:43Z</time>
      </trkpt>
      <trkpt lat="43.40108" lon="5.89755">
        <ele>316.23</ele>
        <time>2020-10-11T09:53:50Z</time>
      </trkpt>
      <trkpt lat="43.40107" lon="5.89727">
        <ele>318.76</ele>
        <time>2020-10-11T09:53:57Z</time>
      </trkpt>
      <trkpt lat="43.4011" lon="5.89701">
        <ele>321.09</ele>
        <time>2020-10-11T09:54:03Z</time>
      </trkpt>
      <trkpt lat="43.40106" lon="5.89677">
        <ele>324.26</ele>
        <time>2020-10-11T09:54:09Z</time>
      </trkpt>
      <trkpt lat="43.40099" lon="5.89648">
        <ele>326.18</ele>
        <time>2020-10-11T09:54:14Z</time>
      </trkpt>
      <trkpt lat="43.40096" lon="5.89619">
        <ele>327.88</ele>
        <time>2020-10-11T09:54:19Z</time>
      </trkpt>
      <trkpt lat="43.40093" lon="5.89593">
        <ele>329.2</ele>
        <time>2020-10-11T09:54:24Z</time>
      </trkpt>
      <trkpt lat="43.40092" lon="5.89563">
        <ele>329.87</ele>
        <time>2020-10-11T09:54:29Z</time>
      </trkpt>
      <trkpt lat="43.40089" lon="5.89536">
        <ele>331.15</ele>
        <time>2020-10-11T09:54:34Z</time>
      </trkpt>
      <trkpt lat="43.40086" lon="5.89507">
        <ele>330.59</ele>
        <time>2020-10-11T09:54:38Z</time>
      </trkpt>
      <trkpt lat="43.40083" lon="5.8948">
        <ele>330.55</ele>
        <time>2020-10-11T09:54:43Z</time>
      </trkpt>
      <trkpt lat="43.40082" lon="5.8945">
        <ele>331.88</ele>
        <time>2020-10-11T09:54:48Z</time>
      </trkpt>
      <trkpt lat="43.40082" lon="5.89423">
        <ele>333.55</ele>
        <time>2020-10-11T09:54:52Z</time>
      </trkpt>
      <trkpt lat="43.40077" lon="5.89392">
        <ele>334.59</ele>
        <time>2020-10-11T09:54:56Z</time>
      </trkpt>
      <trkpt lat="43.40074" lon="5.89359">
        <ele>336.26</ele>
        <time>2020-10-11T09:55:00Z</time>
      </trkpt>
      <trkpt lat="43.40072" lon="5.89328">
        <ele>338.07</ele>
        <time>2020-10-11T09:55:04Z</time>
      </trkpt>
      <trkpt lat="43.4007" lon="5.89302">
        <ele>338.97</ele>
        <time>2020-10-11T09:55:07Z</time>
      </trkpt>
      <trkpt lat="43.40068" lon="5.8927">
        <ele>340.55</ele>
        <time>2020-10-11T09:55:11Z</time>
      </trkpt>
      <trkpt lat="43.40056" lon="5.89245">
        <ele>341.88</ele>
        <time>2020-10-11T09:55:14Z</time>
      </trkpt>
      <trkpt lat="43.40043" lon="5.89218">
        <ele>341.39</ele>
        <time>2020-10-11T09:55:17Z</time>
      </trkpt>
      <trkpt lat="43.40033" lon="5.89195">
        <ele>340.98</ele>
        <time>2020-10-11T09:55:20Z</time>
      </trkpt>
      <trkpt lat="43.40028" lon="5.8917">
        <ele>340.02</ele>
        <time>2020-10-11T09:55:23Z</time>
      </trkpt>
      <trkpt lat="43.40026" lon="5.89142">
        <ele>340.34</ele>
        <time>2020-10-11T09:55:27Z</time>
      </trkpt>
      <trkpt lat="43.40022" lon="5.89117">
        <ele>340.29</ele>
        <time>2020-10-11T09:55:31Z</time>
      </trkpt>
      <trkpt lat="43.40014" lon="5.89095">
        <ele>341.19</ele>
        <time>2020-10-11T09:55:35Z</time>
      </trkpt>
      <trkpt lat="43.40004" lon="5.89065">
        <ele>340.2</ele>
        <time>2020-10-11T09:55:39Z</time>
      </trkpt>
      <trkpt lat="43.39997" lon="5.8904">
        <ele>337.34</ele>
        <time>2020-10-11T09:55:42Z</time>
      </trkpt>
      <trkpt lat="43.39992" lon="5.89016">
        <ele>335.28</ele>
        <time>2020-10-11T09:55:45Z</time>
      </trkpt>
      <trkpt lat="43.39988" lon="5.88989">
        <ele>334.41</ele>
        <time>2020-10-11T09:55:49Z</time>
      </trkpt>
      <trkpt lat="43.39983" lon="5.88963">
        <ele>332.79</ele>
        <time>2020-10-11T09:55:53Z</time>
      </trkpt>
      <trkpt lat="43.39981" lon="5.88938">
        <ele>331.28</ele>
        <time>2020-10-11T09:55:57Z</time>
      </trkpt>
      <trkpt lat="43.39976" lon="5.88911">
        <ele>330.87</ele>
        <time>2020-10-11T09:56:01Z</time>
      </trkpt>
      <trkpt lat="43.3997" lon="5.88884">
        <ele>330.59</ele>
        <time>2020-10-11T09:56:05Z</time>
      </trkpt>
      <trkpt lat="43.39965" lon="5.88857">
        <ele>330.31</ele>
        <time>2020-10-11T09:56:09Z</time>
      </trkpt>
      <trkpt lat="43.3996" lon="5.88832">
        <ele>329.78</ele>
        <time>2020-10-11T09:56:14Z</time>
      </trkpt>
      <trkpt lat="43.39958" lon="5.88803">
        <ele>319.78</ele>
        <time>2020-10-11T09:56:19Z</time>
      </trkpt>
      <trkpt lat="43.39957" lon="5.88773">
        <ele>301.23</ele>
        <time>2020-10-11T09:56:43Z</time>
      </trkpt>
      <trkpt lat="43.39962" lon="5.88748">
        <ele>295.22</ele>
        <time>2020-10-11T09:56:49Z</time>
      </trkpt>
      <trkpt lat="43.39954" lon="5.88722">
        <ele>291.41</ele>
        <time>2020-10-11T09:56:54Z</time>
      </trkpt>
      <trkpt lat="43.39956" lon="5.88692">
        <ele>288.27</ele>
        <time>2020-10-11T09:56:59Z</time>
      </trkpt>
      <trkpt lat="43.39963" lon="5.88667">
        <ele>286.11</ele>
        <time>2020-10-11T09:57:03Z</time>
      </trkpt>
      <trkpt lat="43.39969" lon="5.88642">
        <ele>284.53</ele>
        <time>2020-10-11T09:57:07Z</time>
      </trkpt>
      <trkpt lat="43.39978" lon="5.88616">
        <ele>282.47</ele>
        <time>2020-10-11T09:57:12Z</time>
      </trkpt>
      <trkpt lat="43.39986" lon="5.88593">
        <ele>281.32</ele>
        <time>2020-10-11T09:57:18Z</time>
      </trkpt>
      <trkpt lat="43.39995" lon="5.88572">
        <ele>280.97</ele>
        <time>2020-10-11T09:57:27Z</time>
      </trkpt>
      <trkpt lat="43.40004" lon="5.88549">
        <ele>280.85</ele>
        <time>2020-10-11T09:57:35Z</time>
      </trkpt>
      <trkpt lat="43.40011" lon="5.88526">
        <ele>278.07</ele>
        <time>2020-10-11T09:58:01Z</time>
      </trkpt>
      <trkpt lat="43.40022" lon="5.88504">
        <ele>279.62</ele>
        <time>2020-10-11T09:58:10Z</time>
      </trkpt>
      <trkpt lat="43.40033" lon="5.88484">
        <ele>280.24</ele>
        <time>2020-10-11T09:58:16Z</time>
      </trkpt>
      <trkpt lat="43.40045" lon="5.88464">
        <ele>281.67</ele>
        <time>2020-10-11T09:58:23Z</time>
      </trkpt>
      <trkpt lat="43.40056" lon="5.88443">
        <ele>282.18</ele>
        <time>2020-10-11T09:58:29Z</time>
      </trkpt>
      <trkpt lat="43.40068" lon="5.88424">
        <ele>283.23</ele>
        <time>2020-10-11T09:58:35Z</time>
      </trkpt>
      <trkpt lat="43.40081" lon="5.88406">
        <ele>284.86</ele>
        <time>2020-10-11T09:58:42Z</time>
      </trkpt>
      <trkpt lat="43.40094" lon="5.88383">
        <ele>285.13</ele>
        <time>2020-10-11T09:58:49Z</time>
      </trkpt>
      <trkpt lat="43.40107" lon="5.88362">
        <ele>284.98</ele>
        <time>2020-10-11T09:58:56Z</time>
      </trkpt>
      <trkpt lat="43.4012" lon="5.88341">
        <ele>285.43</ele>
        <time>2020-10-11T09:59:03Z</time>
      </trkpt>
      <trkpt lat="43.40133" lon="5.88321">
        <ele>284.97</ele>
        <time>2020-10-11T09:59:09Z</time>
      </trkpt>
      <trkpt lat="43.40145" lon="5.88299">
        <ele>285.13</ele>
        <time>2020-10-11T09:59:15Z</time>
      </trkpt>
      <trkpt lat="43.40159" lon="5.88277">
        <ele>284.96</ele>
        <time>2020-10-11T09:59:22Z</time>
      </trkpt>
      <trkpt lat="43.4017" lon="5.88257">
        <ele>284.08</ele>
        <time>2020-10-11T09:59:27Z</time>
      </trkpt>
      <trkpt lat="43.40181" lon="5.88237">
        <ele>283.78</ele>
        <time>2020-10-11T09:59:33Z</time>
      </trkpt>
      <trkpt lat="43.40194" lon="5.88218">
        <ele>283.4</ele>
        <time>2020-10-11T09:59:39Z</time>
      </trkpt>
      <trkpt lat="43.40206" lon="5.88199">
        <ele>282.67</ele>
        <time>2020-10-11T09:59:45Z</time>
      </trkpt>
      <trkpt lat="43.40218" lon="5.88178">
        <ele>282.35</ele>
        <time>2020-10-11T09:59:51Z</time>
      </trkpt>
      <trkpt lat="43.4023" lon="5.88157">
        <ele>282.06</ele>
        <time>2020-10-11T09:59:57Z</time>
      </trkpt>
      <trkpt lat="43.40243" lon="5.88134">
        <ele>282.38</ele>
        <time>2020-10-11T10:00:03Z</time>
      </trkpt>
      <trkpt lat="43.40256" lon="5.88116">
        <ele>282.82</ele>
        <time>2020-10-11T10:00:09Z</time>
      </trkpt>
      <trkpt lat="43.40268" lon="5.88096">
        <ele>283.14</ele>
        <time>2020-10-11T10:00:14Z</time>
      </trkpt>
      <trkpt lat="43.40283" lon="5.88075">
        <ele>282.2</ele>
        <time>2020-10-11T10:00:19Z</time>
      </trkpt>
      <trkpt lat="43.40298" lon="5.88054">
        <ele>281.87</ele>
        <time>2020-10-11T10:00:24Z</time>
      </trkpt>
      <trkpt lat="43.40312" lon="5.88033">
        <ele>282.68</ele>
        <time>2020-10-11T10:00:29Z</time>
      </trkpt>
      <trkpt lat="43.40325" lon="5.88012">
        <ele>283.16</ele>
        <time>2020-10-11T10:00:34Z</time>
      </trkpt>
      <trkpt lat="43.40335" lon="5.87986">
        <ele>283.62</ele>
        <time>2020-10-11T10:00:40Z</time>
      </trkpt>
      <trkpt lat="43.40345" lon="5.87959">
        <ele>281.84</ele>
        <time>2020-10-11T10:00:45Z</time>
      </trkpt>
      <trkpt lat="43.40352" lon="5.87935">
        <ele>281.64</ele>
        <time>2020-10-11T10:00:50Z</time>
      </trkpt>
      <trkpt lat="43.40358" lon="5.87907">
        <ele>281.27</ele>
        <time>2020-10-11T10:00:56Z</time>
      </trkpt>
      <trkpt lat="43.40362" lon="5.87882">
        <ele>280.34</ele>
        <time>2020-10-11T10:01:01Z</time>
      </trkpt>
      <trkpt lat="43.40366" lon="5.87854">
        <ele>280.64</ele>
        <time>2020-10-11T10:01:07Z</time>
      </trkpt>
      <trkpt lat="43.40368" lon="5.87827">
        <ele>280.95</ele>
        <time>2020-10-11T10:01:14Z</time>
      </trkpt>
      <trkpt lat="43.40368" lon="5.878">
        <ele>281.94</ele>
        <time>2020-10-11T10:01:27Z</time>
      </trkpt>
      <trkpt lat="43.40368" lon="5.87775">
        <ele>283.81</ele>
        <time>2020-10-11T10:01:35Z</time>
      </trkpt>
      <trkpt lat="43.40367" lon="5.87749">
        <ele>284.1</ele>
        <time>2020-10-11T10:01:43Z</time>
      </trkpt>
      <trkpt lat="43.40372" lon="5.87724">
        <ele>284.04</ele>
        <time>2020-10-11T10:01:51Z</time>
      </trkpt>
      <trkpt lat="43.40385" lon="5.87704">
        <ele>285.29</ele>
        <time>2020-10-11T10:02:02Z</time>
      </trkpt>
      <trkpt lat="43.40401" lon="5.87688">
        <ele>286.73</ele>
        <time>2020-10-11T10:02:12Z</time>
      </trkpt>
      <trkpt lat="43.40382" lon="5.87691">
        <ele>285.96</ele>
        <time>2020-10-11T10:04:02Z</time>
      </trkpt>
      <trkpt lat="43.40363" lon="5.87687">
        <ele>286.75</ele>
        <time>2020-10-11T10:04:10Z</time>
      </trkpt>
      <trkpt lat="43.40359" lon="5.8766">
        <ele>287.16</ele>
        <time>2020-10-11T10:04:16Z</time>
      </trkpt>
      <trkpt lat="43.40353" lon="5.87633">
        <ele>287.56</ele>
        <time>2020-10-11T10:04:22Z</time>
      </trkpt>
      <trkpt lat="43.40349" lon="5.87604">
        <ele>288.15</ele>
        <time>2020-10-11T10:04:29Z</time>
      </trkpt>
      <trkpt lat="43.40344" lon="5.87576">
        <ele>289.81</ele>
        <time>2020-10-11T10:04:35Z</time>
      </trkpt>
      <trkpt lat="43.4034" lon="5.87548">
        <ele>290.23</ele>
        <time>2020-10-11T10:04:41Z</time>
      </trkpt>
      <trkpt lat="43.40335" lon="5.87522">
        <ele>290.82</ele>
        <time>2020-10-11T10:04:46Z</time>
      </trkpt>
      <trkpt lat="43.40331" lon="5.87494">
        <ele>292.31</ele>
        <time>2020-10-11T10:04:52Z</time>
      </trkpt>
      <trkpt lat="43.40326" lon="5.87466">
        <ele>293.95</ele>
        <time>2020-10-11T10:04:58Z</time>
      </trkpt>
      <trkpt lat="43.40321" lon="5.87439">
        <ele>296.68</ele>
        <time>2020-10-11T10:05:04Z</time>
      </trkpt>
      <trkpt lat="43.40319" lon="5.87414">
        <ele>296.64</ele>
        <time>2020-10-11T10:05:09Z</time>
      </trkpt>
      <trkpt lat="43.40317" lon="5.87388">
        <ele>299.27</ele>
        <time>2020-10-11T10:05:16Z</time>
      </trkpt>
      <trkpt lat="43.40314" lon="5.87363">
        <ele>300.68</ele>
        <time>2020-10-11T10:05:22Z</time>
      </trkpt>
      <trkpt lat="43.40312" lon="5.87332">
        <ele>300.69</ele>
        <time>2020-10-11T10:05:28Z</time>
      </trkpt>
      <trkpt lat="43.40312" lon="5.87305">
        <ele>300.51</ele>
        <time>2020-10-11T10:05:33Z</time>
      </trkpt>
      <trkpt lat="43.40313" lon="5.87278">
        <ele>299.9</ele>
        <time>2020-10-11T10:05:38Z</time>
      </trkpt>
      <trkpt lat="43.40311" lon="5.87252">
        <ele>299.36</ele>
        <time>2020-10-11T10:05:43Z</time>
      </trkpt>
      <trkpt lat="43.40309" lon="5.87225">
        <ele>297.79</ele>
        <time>2020-10-11T10:05:48Z</time>
      </trkpt>
      <trkpt lat="43.40309" lon="5.87197">
        <ele>294.41</ele>
        <time>2020-10-11T10:05:53Z</time>
      </trkpt>
      <trkpt lat="43.4031" lon="5.8717">
        <ele>289.63</ele>
        <time>2020-10-11T10:05:57Z</time>
      </trkpt>
      <trkpt lat="43.40309" lon="5.87142">
        <ele>286.94</ele>
        <time>2020-10-11T10:06:01Z</time>
      </trkpt>
      <trkpt lat="43.40308" lon="5.87109">
        <ele>284.32</ele>
        <time>2020-10-11T10:06:05Z</time>
      </trkpt>
      <trkpt lat="43.40308" lon="5.87084">
        <ele>282.96</ele>
        <time>2020-10-11T10:06:08Z</time>
      </trkpt>
      <trkpt lat="43.4031" lon="5.87053">
        <ele>281.45</ele>
        <time>2020-10-11T10:06:12Z</time>
      </trkpt>
      <trkpt lat="43.40308" lon="5.87024">
        <ele>280.08</ele>
        <time>2020-10-11T10:06:16Z</time>
      </trkpt>
      <trkpt lat="43.40307" lon="5.86996">
        <ele>279.97</ele>
        <time>2020-10-11T10:06:20Z</time>
      </trkpt>
      <trkpt lat="43.40309" lon="5.8697">
        <ele>281.06</ele>
        <time>2020-10-11T10:06:27Z</time>
      </trkpt>
      <trkpt lat="43.40309" lon="5.86945">
        <ele>285.25</ele>
        <time>2020-10-11T10:06:42Z</time>
      </trkpt>
      <trkpt lat="43.40305" lon="5.86946">
        <ele>289.24</ele>
        <time>2020-10-11T10:08:15Z</time>
      </trkpt>
      <trkpt lat="43.40285" lon="5.86951">
        <ele>288.85</ele>
        <time>2020-10-11T10:08:36Z</time>
      </trkpt>
      <trkpt lat="43.40284" lon="5.86924">
        <ele>287.75</ele>
        <time>2020-10-11T10:08:52Z</time>
      </trkpt>
      <trkpt lat="43.40286" lon="5.86899">
        <ele>287.44</ele>
        <time>2020-10-11T10:08:58Z</time>
      </trkpt>
      <trkpt lat="43.4029" lon="5.86872">
        <ele>285.99</ele>
        <time>2020-10-11T10:09:04Z</time>
      </trkpt>
      <trkpt lat="43.40294" lon="5.86844">
        <ele>286.26</ele>
        <time>2020-10-11T10:09:10Z</time>
      </trkpt>
      <trkpt lat="43.403" lon="5.8682">
        <ele>285.82</ele>
        <time>2020-10-11T10:09:15Z</time>
      </trkpt>
      <trkpt lat="43.40306" lon="5.86795">
        <ele>285.16</ele>
        <time>2020-10-11T10:09:20Z</time>
      </trkpt>
      <trkpt lat="43.40314" lon="5.8677">
        <ele>284.61</ele>
        <time>2020-10-11T10:09:25Z</time>
      </trkpt>
      <trkpt lat="43.40322" lon="5.86745">
        <ele>283.67</ele>
        <time>2020-10-11T10:09:30Z</time>
      </trkpt>
      <trkpt lat="43.4033" lon="5.86722">
        <ele>284.2</ele>
        <time>2020-10-11T10:09:35Z</time>
      </trkpt>
      <trkpt lat="43.4034" lon="5.86701">
        <ele>284.08</ele>
        <time>2020-10-11T10:09:40Z</time>
      </trkpt>
      <trkpt lat="43.40351" lon="5.8668">
        <ele>284.37</ele>
        <time>2020-10-11T10:09:45Z</time>
      </trkpt>
      <trkpt lat="43.40363" lon="5.86659">
        <ele>283.99</ele>
        <time>2020-10-11T10:09:50Z</time>
      </trkpt>
      <trkpt lat="43.40376" lon="5.86638">
        <ele>283.35</ele>
        <time>2020-10-11T10:09:55Z</time>
      </trkpt>
      <trkpt lat="43.4039" lon="5.86619">
        <ele>283.18</ele>
        <time>2020-10-11T10:10:00Z</time>
      </trkpt>
      <trkpt lat="43.40404" lon="5.86601">
        <ele>283.02</ele>
        <time>2020-10-11T10:10:05Z</time>
      </trkpt>
      <trkpt lat="43.40418" lon="5.86585">
        <ele>282.19</ele>
        <time>2020-10-11T10:10:10Z</time>
      </trkpt>
      <trkpt lat="43.40432" lon="5.86565">
        <ele>282.04</ele>
        <time>2020-10-11T10:10:16Z</time>
      </trkpt>
      <trkpt lat="43.40443" lon="5.86545">
        <ele>283.17</ele>
        <time>2020-10-11T10:10:53Z</time>
      </trkpt>
      <trkpt lat="43.40461" lon="5.86533">
        <ele>285.27</ele>
        <time>2020-10-11T10:11:29Z</time>
      </trkpt>
      <trkpt lat="43.40475" lon="5.86517">
        <ele>284.87</ele>
        <time>2020-10-11T10:11:34Z</time>
      </trkpt>
      <trkpt lat="43.40489" lon="5.86498">
        <ele>284.3</ele>
        <time>2020-10-11T10:11:39Z</time>
      </trkpt>
      <trkpt lat="43.40502" lon="5.86481">
        <ele>283.5</ele>
        <time>2020-10-11T10:11:44Z</time>
      </trkpt>
      <trkpt lat="43.40518" lon="5.86461">
        <ele>282.98</ele>
        <time>2020-10-11T10:11:50Z</time>
      </trkpt>
      <trkpt lat="43.40533" lon="5.86443">
        <ele>282.92</ele>
        <time>2020-10-11T10:11:56Z</time>
      </trkpt>
      <trkpt lat="43.40545" lon="5.86425">
        <ele>282.67</ele>
        <time>2020-10-11T10:12:03Z</time>
      </trkpt>
      <trkpt lat="43.40561" lon="5.86407">
        <ele>283.74</ele>
        <time>2020-10-11T10:12:12Z</time>
      </trkpt>
      <trkpt lat="43.40575" lon="5.8639">
        <ele>282.81</ele>
        <time>2020-10-11T10:12:18Z</time>
      </trkpt>
      <trkpt lat="43.40589" lon="5.86369">
        <ele>282</ele>
        <time>2020-10-11T10:12:24Z</time>
      </trkpt>
      <trkpt lat="43.40602" lon="5.86348">
        <ele>281.28</ele>
        <time>2020-10-11T10:12:30Z</time>
      </trkpt>
      <trkpt lat="43.40616" lon="5.86327">
        <ele>280.92</ele>
        <time>2020-10-11T10:12:36Z</time>
      </trkpt>
      <trkpt lat="43.40629" lon="5.86303">
        <ele>281.23</ele>
        <time>2020-10-11T10:12:42Z</time>
      </trkpt>
      <trkpt lat="43.40642" lon="5.86281">
        <ele>281.92</ele>
        <time>2020-10-11T10:12:48Z</time>
      </trkpt>
      <trkpt lat="43.40655" lon="5.86257">
        <ele>281.85</ele>
        <time>2020-10-11T10:12:54Z</time>
      </trkpt>
      <trkpt lat="43.40666" lon="5.86238">
        <ele>281.13</ele>
        <time>2020-10-11T10:12:59Z</time>
      </trkpt>
      <trkpt lat="43.40677" lon="5.86217">
        <ele>280.4</ele>
        <time>2020-10-11T10:13:04Z</time>
      </trkpt>
      <trkpt lat="43.40689" lon="5.86193">
        <ele>280.71</ele>
        <time>2020-10-11T10:13:10Z</time>
      </trkpt>
      <trkpt lat="43.40702" lon="5.86171">
        <ele>280.55</ele>
        <time>2020-10-11T10:13:16Z</time>
      </trkpt>
      <trkpt lat="43.40715" lon="5.86149">
        <ele>279.57</ele>
        <time>2020-10-11T10:13:22Z</time>
      </trkpt>
      <trkpt lat="43.40727" lon="5.86128">
        <ele>279.43</ele>
        <time>2020-10-11T10:13:28Z</time>
      </trkpt>
      <trkpt lat="43.40739" lon="5.86104">
        <ele>279.54</ele>
        <time>2020-10-11T10:13:34Z</time>
      </trkpt>
      <trkpt lat="43.40753" lon="5.86083">
        <ele>279.39</ele>
        <time>2020-10-11T10:13:40Z</time>
      </trkpt>
      <trkpt lat="43.40765" lon="5.86064">
        <ele>279.36</ele>
        <time>2020-10-11T10:13:46Z</time>
      </trkpt>
      <trkpt lat="43.40778" lon="5.86045">
        <ele>280.3</ele>
        <time>2020-10-11T10:13:52Z</time>
      </trkpt>
      <trkpt lat="43.40789" lon="5.86026">
        <ele>279.32</ele>
        <time>2020-10-11T10:13:58Z</time>
      </trkpt>
      <trkpt lat="43.40802" lon="5.86006">
        <ele>280.55</ele>
        <time>2020-10-11T10:14:22Z</time>
      </trkpt>
      <trkpt lat="43.40819" lon="5.86016">
        <ele>281.36</ele>
        <time>2020-10-11T10:14:37Z</time>
      </trkpt>
      <trkpt lat="43.40837" lon="5.86024">
        <ele>282.32</ele>
        <time>2020-10-11T10:14:48Z</time>
      </trkpt>
      <trkpt lat="43.40852" lon="5.86009">
        <ele>284.92</ele>
        <time>2020-10-11T10:14:58Z</time>
      </trkpt>
      <trkpt lat="43.40868" lon="5.85994">
        <ele>289.12</ele>
        <time>2020-10-11T10:15:09Z</time>
      </trkpt>
      <trkpt lat="43.40885" lon="5.85981">
        <ele>294.72</ele>
        <time>2020-10-11T10:15:18Z</time>
      </trkpt>
      <trkpt lat="43.40901" lon="5.85968">
        <ele>298.42</ele>
        <time>2020-10-11T10:15:28Z</time>
      </trkpt>
      <trkpt lat="43.40918" lon="5.8596">
        <ele>299.03</ele>
        <time>2020-10-11T10:15:41Z</time>
      </trkpt>
      <trkpt lat="43.40935" lon="5.85943">
        <ele>297.09</ele>
        <time>2020-10-11T10:15:48Z</time>
      </trkpt>
      <trkpt lat="43.40953" lon="5.85941">
        <ele>296.73</ele>
        <time>2020-10-11T10:15:54Z</time>
      </trkpt>
      <trkpt lat="43.40973" lon="5.85944">
        <ele>295.8</ele>
        <time>2020-10-11T10:15:59Z</time>
      </trkpt>
      <trkpt lat="43.40993" lon="5.85942">
        <ele>296.3</ele>
        <time>2020-10-11T10:16:05Z</time>
      </trkpt>
      <trkpt lat="43.41011" lon="5.8594">
        <ele>302.44</ele>
        <time>2020-10-11T10:16:11Z</time>
      </trkpt>
      <trkpt lat="43.4103" lon="5.85945">
        <ele>304.39</ele>
        <time>2020-10-11T10:16:17Z</time>
      </trkpt>
      <trkpt lat="43.41048" lon="5.85955">
        <ele>308.55</ele>
        <time>2020-10-11T10:16:23Z</time>
      </trkpt>
      <trkpt lat="43.41069" lon="5.85958">
        <ele>303.55</ele>
        <time>2020-10-11T10:16:37Z</time>
      </trkpt>
      <trkpt lat="43.41088" lon="5.85967">
        <ele>290.39</ele>
        <time>2020-10-11T10:18:45Z</time>
      </trkpt>
      <trkpt lat="43.41105" lon="5.85977">
        <ele>290.36</ele>
        <time>2020-10-11T10:18:52Z</time>
      </trkpt>
      <trkpt lat="43.41118" lon="5.85994">
        <ele>290.53</ele>
        <time>2020-10-11T10:18:58Z</time>
      </trkpt>
      <trkpt lat="43.41133" lon="5.8601">
        <ele>290.18</ele>
        <time>2020-10-11T10:19:14Z</time>
      </trkpt>
      <trkpt lat="43.41152" lon="5.86018">
        <ele>289.19</ele>
        <time>2020-10-11T10:19:22Z</time>
      </trkpt>
      <trkpt lat="43.41169" lon="5.8603">
        <ele>288.24</ele>
        <time>2020-10-11T10:19:32Z</time>
      </trkpt>
      <trkpt lat="43.41186" lon="5.8604">
        <ele>287.37</ele>
        <time>2020-10-11T10:19:41Z</time>
      </trkpt>
      <trkpt lat="43.41202" lon="5.86055">
        <ele>288.41</ele>
        <time>2020-10-11T10:19:50Z</time>
      </trkpt>
      <trkpt lat="43.41216" lon="5.8607">
        <ele>290.87</ele>
        <time>2020-10-11T10:20:00Z</time>
      </trkpt>
      <trkpt lat="43.41222" lon="5.86095">
        <ele>295.62</ele>
        <time>2020-10-11T10:20:09Z</time>
      </trkpt>
      <trkpt lat="43.41226" lon="5.8612">
        <ele>299.72</ele>
        <time>2020-10-11T10:20:17Z</time>
      </trkpt>
      <trkpt lat="43.41239" lon="5.86144">
        <ele>301.85</ele>
        <time>2020-10-11T10:20:23Z</time>
      </trkpt>
      <trkpt lat="43.41251" lon="5.86168">
        <ele>301.24</ele>
        <time>2020-10-11T10:20:29Z</time>
      </trkpt>
      <trkpt lat="43.41266" lon="5.86182">
        <ele>301.19</ele>
        <time>2020-10-11T10:20:34Z</time>
      </trkpt>
      <trkpt lat="43.41283" lon="5.86192">
        <ele>301.84</ele>
        <time>2020-10-11T10:20:39Z</time>
      </trkpt>
      <trkpt lat="43.41301" lon="5.862">
        <ele>302.18</ele>
        <time>2020-10-11T10:20:45Z</time>
      </trkpt>
      <trkpt lat="43.41318" lon="5.86209">
        <ele>302.02</ele>
        <time>2020-10-11T10:20:50Z</time>
      </trkpt>
      <trkpt lat="43.41337" lon="5.86219">
        <ele>302.7</ele>
        <time>2020-10-11T10:20:56Z</time>
      </trkpt>
      <trkpt lat="43.41357" lon="5.86226">
        <ele>302.9</ele>
        <time>2020-10-11T10:21:02Z</time>
      </trkpt>
      <trkpt lat="43.41378" lon="5.86236">
        <ele>302.94</ele>
        <time>2020-10-11T10:21:07Z</time>
      </trkpt>
      <trkpt lat="43.41395" lon="5.86243">
        <ele>303.66</ele>
        <time>2020-10-11T10:21:12Z</time>
      </trkpt>
      <trkpt lat="43.41415" lon="5.86253">
        <ele>302.25</ele>
        <time>2020-10-11T10:21:17Z</time>
      </trkpt>
      <trkpt lat="43.41433" lon="5.86263">
        <ele>301.88</ele>
        <time>2020-10-11T10:21:21Z</time>
      </trkpt>
      <trkpt lat="43.41451" lon="5.86271">
        <ele>301.54</ele>
        <time>2020-10-11T10:21:24Z</time>
      </trkpt>
      <trkpt lat="43.41469" lon="5.86275">
        <ele>300.76</ele>
        <time>2020-10-11T10:21:27Z</time>
      </trkpt>
      <trkpt lat="43.41488" lon="5.8626">
        <ele>297.36</ele>
        <time>2020-10-11T10:21:32Z</time>
      </trkpt>
      <trkpt lat="43.41503" lon="5.86243">
        <ele>294.14</ele>
        <time>2020-10-11T10:21:36Z</time>
      </trkpt>
      <trkpt lat="43.41513" lon="5.86223">
        <ele>291.12</ele>
        <time>2020-10-11T10:21:40Z</time>
      </trkpt>
      <trkpt lat="43.41522" lon="5.86196">
        <ele>286.25</ele>
        <time>2020-10-11T10:21:44Z</time>
      </trkpt>
      <trkpt lat="43.4153" lon="5.86171">
        <ele>282.81</ele>
        <time>2020-10-11T10:21:48Z</time>
      </trkpt>
      <trkpt lat="43.41539" lon="5.86144">
        <ele>279.98</ele>
        <time>2020-10-11T10:21:52Z</time>
      </trkpt>
      <trkpt lat="43.41546" lon="5.86119">
        <ele>277.39</ele>
        <time>2020-10-11T10:21:56Z</time>
      </trkpt>
      <trkpt lat="43.41555" lon="5.86095">
        <ele>274.76</ele>
        <time>2020-10-11T10:22:00Z</time>
      </trkpt>
      <trkpt lat="43.41562" lon="5.86072">
        <ele>271.09</ele>
        <time>2020-10-11T10:22:04Z</time>
      </trkpt>
      <trkpt lat="43.41567" lon="5.86046">
        <ele>268</ele>
        <time>2020-10-11T10:22:09Z</time>
      </trkpt>
      <trkpt lat="43.4157" lon="5.86018">
        <ele>266.42</ele>
        <time>2020-10-11T10:22:14Z</time>
      </trkpt>
      <trkpt lat="43.41576" lon="5.85993">
        <ele>263.45</ele>
        <time>2020-10-11T10:22:21Z</time>
      </trkpt>
      <trkpt lat="43.41585" lon="5.85967">
        <ele>261.41</ele>
        <time>2020-10-11T10:22:44Z</time>
      </trkpt>
      <trkpt lat="43.41587" lon="5.85938">
        <ele>259.3</ele>
        <time>2020-10-11T10:22:49Z</time>
      </trkpt>
      <trkpt lat="43.41596" lon="5.85917">
        <ele>257.82</ele>
        <time>2020-10-11T10:22:57Z</time>
      </trkpt>
      <trkpt lat="43.41613" lon="5.85904">
        <ele>255.59</ele>
        <time>2020-10-11T10:23:10Z</time>
      </trkpt>
      <trkpt lat="43.41632" lon="5.85895">
        <ele>254.65</ele>
        <time>2020-10-11T10:23:19Z</time>
      </trkpt>
      <trkpt lat="43.41649" lon="5.85887">
        <ele>256.28</ele>
        <time>2020-10-11T10:23:28Z</time>
      </trkpt>
      <trkpt lat="43.41667" lon="5.85894">
        <ele>260.93</ele>
        <time>2020-10-11T10:23:42Z</time>
      </trkpt>
      <trkpt lat="43.41684" lon="5.85904">
        <ele>262.16</ele>
        <time>2020-10-11T10:23:50Z</time>
      </trkpt>
      <trkpt lat="43.41702" lon="5.85913">
        <ele>263.37</ele>
        <time>2020-10-11T10:23:57Z</time>
      </trkpt>
      <trkpt lat="43.4172" lon="5.8591">
        <ele>264.73</ele>
        <time>2020-10-11T10:24:07Z</time>
      </trkpt>
      <trkpt lat="43.4174" lon="5.85907">
        <ele>265.87</ele>
        <time>2020-10-11T10:24:19Z</time>
      </trkpt>
      <trkpt lat="43.4176" lon="5.85905">
        <ele>267.55</ele>
        <time>2020-10-11T10:24:31Z</time>
      </trkpt>
      <trkpt lat="43.41778" lon="5.85903">
        <ele>267.79</ele>
        <time>2020-10-11T10:24:43Z</time>
      </trkpt>
      <trkpt lat="43.41797" lon="5.85903">
        <ele>268.77</ele>
        <time>2020-10-11T10:24:54Z</time>
      </trkpt>
      <trkpt lat="43.41815" lon="5.85906">
        <ele>269.3</ele>
        <time>2020-10-11T10:25:06Z</time>
      </trkpt>
      <trkpt lat="43.41834" lon="5.85911">
        <ele>271.97</ele>
        <time>2020-10-11T10:25:19Z</time>
      </trkpt>
      <trkpt lat="43.41852" lon="5.8591">
        <ele>276.46</ele>
        <time>2020-10-11T10:25:31Z</time>
      </trkpt>
      <trkpt lat="43.41855" lon="5.85885">
        <ele>281.8</ele>
        <time>2020-10-11T10:25:46Z</time>
      </trkpt>
      <trkpt lat="43.4185" lon="5.85861">
        <ele>284.59</ele>
        <time>2020-10-11T10:26:00Z</time>
      </trkpt>
      <trkpt lat="43.41855" lon="5.85836">
        <ele>288.72</ele>
        <time>2020-10-11T10:26:18Z</time>
      </trkpt>
      <trkpt lat="43.41874" lon="5.85833">
        <ele>283.15</ele>
        <time>2020-10-11T10:27:19Z</time>
      </trkpt>
      <trkpt lat="43.41892" lon="5.85832">
        <ele>281.37</ele>
        <time>2020-10-11T10:27:38Z</time>
      </trkpt>
      <trkpt lat="43.41911" lon="5.85834">
        <ele>283.6</ele>
        <time>2020-10-11T10:27:52Z</time>
      </trkpt>
      <trkpt lat="43.41929" lon="5.85838">
        <ele>283.67</ele>
        <time>2020-10-11T10:28:06Z</time>
      </trkpt>
      <trkpt lat="43.41947" lon="5.85845">
        <ele>285.02</ele>
        <time>2020-10-11T10:28:20Z</time>
      </trkpt>
      <trkpt lat="43.41962" lon="5.85859">
        <ele>282.25</ele>
        <time>2020-10-11T10:30:59Z</time>
      </trkpt>
      <trkpt lat="43.4198" lon="5.85868">
        <ele>282.67</ele>
        <time>2020-10-11T10:31:11Z</time>
      </trkpt>
      <trkpt lat="43.42" lon="5.85877">
        <ele>283.06</ele>
        <time>2020-10-11T10:31:17Z</time>
      </trkpt>
      <trkpt lat="43.42021" lon="5.85884">
        <ele>282.66</ele>
        <time>2020-10-11T10:31:22Z</time>
      </trkpt>
      <trkpt lat="43.4204" lon="5.85888">
        <ele>283.28</ele>
        <time>2020-10-11T10:31:28Z</time>
      </trkpt>
      <trkpt lat="43.42059" lon="5.85893">
        <ele>286.59</ele>
        <time>2020-10-11T10:31:35Z</time>
      </trkpt>
      <trkpt lat="43.42077" lon="5.859">
        <ele>288.97</ele>
        <time>2020-10-11T10:31:42Z</time>
      </trkpt>
      <trkpt lat="43.42095" lon="5.85905">
        <ele>289.68</ele>
        <time>2020-10-11T10:31:47Z</time>
      </trkpt>
      <trkpt lat="43.42113" lon="5.85913">
        <ele>287.83</ele>
        <time>2020-10-11T10:31:51Z</time>
      </trkpt>
      <trkpt lat="43.42131" lon="5.85919">
        <ele>287.47</ele>
        <time>2020-10-11T10:31:56Z</time>
      </trkpt>
      <trkpt lat="43.42149" lon="5.85921">
        <ele>288.86</ele>
        <time>2020-10-11T10:32:01Z</time>
      </trkpt>
      <trkpt lat="43.42166" lon="5.85926">
        <ele>289.67</ele>
        <time>2020-10-11T10:32:06Z</time>
      </trkpt>
      <trkpt lat="43.42184" lon="5.85928">
        <ele>289.22</ele>
        <time>2020-10-11T10:32:11Z</time>
      </trkpt>
      <trkpt lat="43.42203" lon="5.85926">
        <ele>288.08</ele>
        <time>2020-10-11T10:32:16Z</time>
      </trkpt>
      <trkpt lat="43.42222" lon="5.85925">
        <ele>286.25</ele>
        <time>2020-10-11T10:32:21Z</time>
      </trkpt>
      <trkpt lat="43.42243" lon="5.85914">
        <ele>285.75</ele>
        <time>2020-10-11T10:32:26Z</time>
      </trkpt>
      <trkpt lat="43.42263" lon="5.85905">
        <ele>284.52</ele>
        <time>2020-10-11T10:32:31Z</time>
      </trkpt>
      <trkpt lat="43.42283" lon="5.85898">
        <ele>283</ele>
        <time>2020-10-11T10:32:36Z</time>
      </trkpt>
      <trkpt lat="43.42303" lon="5.85886">
        <ele>282.67</ele>
        <time>2020-10-11T10:32:41Z</time>
      </trkpt>
      <trkpt lat="43.42322" lon="5.85874">
        <ele>282.87</ele>
        <time>2020-10-11T10:32:46Z</time>
      </trkpt>
      <trkpt lat="43.42339" lon="5.85864">
        <ele>282.76</ele>
        <time>2020-10-11T10:32:51Z</time>
      </trkpt>
      <trkpt lat="43.42358" lon="5.85852">
        <ele>282.28</ele>
        <time>2020-10-11T10:32:56Z</time>
      </trkpt>
      <trkpt lat="43.42374" lon="5.85842">
        <ele>283.38</ele>
        <time>2020-10-11T10:33:01Z</time>
      </trkpt>
      <trkpt lat="43.42391" lon="5.85832">
        <ele>283.58</ele>
        <time>2020-10-11T10:33:06Z</time>
      </trkpt>
      <trkpt lat="43.42409" lon="5.85828">
        <ele>281.6</ele>
        <time>2020-10-11T10:33:21Z</time>
      </trkpt>
      <trkpt lat="43.42421" lon="5.85849">
        <ele>281.07</ele>
        <time>2020-10-11T10:33:49Z</time>
      </trkpt>
      <trkpt lat="43.42429" lon="5.85874">
        <ele>280.99</ele>
        <time>2020-10-11T10:33:54Z</time>
      </trkpt>
      <trkpt lat="43.42439" lon="5.85904">
        <ele>280.67</ele>
        <time>2020-10-11T10:33:58Z</time>
      </trkpt>
      <trkpt lat="43.42444" lon="5.85932">
        <ele>281.06</ele>
        <time>2020-10-11T10:34:01Z</time>
      </trkpt>
      <trkpt lat="43.42447" lon="5.85961">
        <ele>281.54</ele>
        <time>2020-10-11T10:34:04Z</time>
      </trkpt>
      <trkpt lat="43.42446" lon="5.85994">
        <ele>281.3</ele>
        <time>2020-10-11T10:34:07Z</time>
      </trkpt>
      <trkpt lat="43.42446" lon="5.86027">
        <ele>280.91</ele>
        <time>2020-10-11T10:34:10Z</time>
      </trkpt>
      <trkpt lat="43.42453" lon="5.86059">
        <ele>280.31</ele>
        <time>2020-10-11T10:34:13Z</time>
      </trkpt>
      <trkpt lat="43.42455" lon="5.86092">
        <ele>279.56</ele>
        <time>2020-10-11T10:34:16Z</time>
      </trkpt>
      <trkpt lat="43.42455" lon="5.86127">
        <ele>278.07</ele>
        <time>2020-10-11T10:34:19Z</time>
      </trkpt>
      <trkpt lat="43.42457" lon="5.86161">
        <ele>276.85</ele>
        <time>2020-10-11T10:34:22Z</time>
      </trkpt>
      <trkpt lat="43.42459" lon="5.86195">
        <ele>275.4</ele>
        <time>2020-10-11T10:34:25Z</time>
      </trkpt>
      <trkpt lat="43.42461" lon="5.86228">
        <ele>273.68</ele>
        <time>2020-10-11T10:34:28Z</time>
      </trkpt>
      <trkpt lat="43.4246" lon="5.86262">
        <ele>272</ele>
        <time>2020-10-11T10:34:31Z</time>
      </trkpt>
      <trkpt lat="43.42456" lon="5.86295">
        <ele>271.03</ele>
        <time>2020-10-11T10:34:34Z</time>
      </trkpt>
      <trkpt lat="43.4245" lon="5.86328">
        <ele>269.85</ele>
        <time>2020-10-11T10:34:37Z</time>
      </trkpt>
      <trkpt lat="43.42449" lon="5.86358">
        <ele>268.59</ele>
        <time>2020-10-11T10:34:40Z</time>
      </trkpt>
      <trkpt lat="43.42458" lon="5.8638">
        <ele>267.43</ele>
        <time>2020-10-11T10:34:43Z</time>
      </trkpt>
      <trkpt lat="43.42469" lon="5.86403">
        <ele>267.76</ele>
        <time>2020-10-11T10:34:48Z</time>
      </trkpt>
      <trkpt lat="43.4248" lon="5.86426">
        <ele>268.98</ele>
        <time>2020-10-11T10:34:54Z</time>
      </trkpt>
      <trkpt lat="43.42484" lon="5.86451">
        <ele>271.34</ele>
        <time>2020-10-11T10:34:58Z</time>
      </trkpt>
      <trkpt lat="43.4248" lon="5.86476">
        <ele>273.14</ele>
        <time>2020-10-11T10:35:03Z</time>
      </trkpt>
      <trkpt lat="43.42475" lon="5.86504">
        <ele>273.69</ele>
        <time>2020-10-11T10:35:08Z</time>
      </trkpt>
      <trkpt lat="43.42475" lon="5.86529">
        <ele>272.39</ele>
        <time>2020-10-11T10:35:11Z</time>
      </trkpt>
      <trkpt lat="43.42476" lon="5.86559">
        <ele>270.11</ele>
        <time>2020-10-11T10:35:15Z</time>
      </trkpt>
      <trkpt lat="43.42494" lon="5.86567">
        <ele>268.4</ele>
        <time>2020-10-11T10:35:20Z</time>
      </trkpt>
      <trkpt lat="43.42513" lon="5.86565">
        <ele>267.06</ele>
        <time>2020-10-11T10:35:25Z</time>
      </trkpt>
      <trkpt lat="43.42531" lon="5.86564">
        <ele>266.98</ele>
        <time>2020-10-11T10:35:30Z</time>
      </trkpt>
      <trkpt lat="43.42551" lon="5.86559">
        <ele>267.35</ele>
        <time>2020-10-11T10:35:36Z</time>
      </trkpt>
      <trkpt lat="43.4257" lon="5.86553">
        <ele>267.57</ele>
        <time>2020-10-11T10:35:42Z</time>
      </trkpt>
      <trkpt lat="43.4259" lon="5.86549">
        <ele>267.52</ele>
        <time>2020-10-11T10:35:49Z</time>
      </trkpt>
      <trkpt lat="43.42608" lon="5.86544">
        <ele>268.61</ele>
        <time>2020-10-11T10:35:56Z</time>
      </trkpt>
      <trkpt lat="43.42627" lon="5.86542">
        <ele>271.29</ele>
        <time>2020-10-11T10:36:03Z</time>
      </trkpt>
      <trkpt lat="43.42646" lon="5.86539">
        <ele>272.82</ele>
        <time>2020-10-11T10:36:10Z</time>
      </trkpt>
      <trkpt lat="43.42664" lon="5.86534">
        <ele>275.41</ele>
        <time>2020-10-11T10:36:17Z</time>
      </trkpt>
      <trkpt lat="43.42684" lon="5.86532">
        <ele>276.74</ele>
        <time>2020-10-11T10:36:24Z</time>
      </trkpt>
      <trkpt lat="43.42703" lon="5.86529">
        <ele>276.95</ele>
        <time>2020-10-11T10:36:30Z</time>
      </trkpt>
      <trkpt lat="43.42721" lon="5.86522">
        <ele>277.08</ele>
        <time>2020-10-11T10:36:36Z</time>
      </trkpt>
      <trkpt lat="43.42742" lon="5.86517">
        <ele>276.76</ele>
        <time>2020-10-11T10:36:42Z</time>
      </trkpt>
      <trkpt lat="43.42762" lon="5.86511">
        <ele>274.26</ele>
        <time>2020-10-11T10:36:47Z</time>
      </trkpt>
      <trkpt lat="43.4278" lon="5.86505">
        <ele>273.88</ele>
        <time>2020-10-11T10:36:51Z</time>
      </trkpt>
      <trkpt lat="43.42797" lon="5.86497">
        <ele>272.33</ele>
        <time>2020-10-11T10:36:55Z</time>
      </trkpt>
      <trkpt lat="43.42816" lon="5.8649">
        <ele>270.91</ele>
        <time>2020-10-11T10:36:59Z</time>
      </trkpt>
      <trkpt lat="43.42834" lon="5.86488">
        <ele>270.76</ele>
        <time>2020-10-11T10:37:03Z</time>
      </trkpt>
      <trkpt lat="43.42854" lon="5.86498">
        <ele>272.35</ele>
        <time>2020-10-11T10:37:08Z</time>
      </trkpt>
      <trkpt lat="43.42872" lon="5.86508">
        <ele>273.69</ele>
        <time>2020-10-11T10:37:13Z</time>
      </trkpt>
      <trkpt lat="43.4289" lon="5.86519">
        <ele>276.73</ele>
        <time>2020-10-11T10:37:19Z</time>
      </trkpt>
      <trkpt lat="43.42909" lon="5.86529">
        <ele>278.27</ele>
        <time>2020-10-11T10:37:24Z</time>
      </trkpt>
      <trkpt lat="43.42928" lon="5.86537">
        <ele>280.66</ele>
        <time>2020-10-11T10:37:29Z</time>
      </trkpt>
      <trkpt lat="43.42948" lon="5.86547">
        <ele>281.73</ele>
        <time>2020-10-11T10:37:34Z</time>
      </trkpt>
      <trkpt lat="43.42966" lon="5.86552">
        <ele>283.53</ele>
        <time>2020-10-11T10:37:40Z</time>
      </trkpt>
      <trkpt lat="43.42986" lon="5.86554">
        <ele>286.61</ele>
        <time>2020-10-11T10:37:47Z</time>
      </trkpt>
      <trkpt lat="43.43005" lon="5.86555">
        <ele>291.45</ele>
        <time>2020-10-11T10:37:54Z</time>
      </trkpt>
      <trkpt lat="43.43024" lon="5.86554">
        <ele>296.85</ele>
        <time>2020-10-11T10:38:01Z</time>
      </trkpt>
      <trkpt lat="43.43045" lon="5.86554">
        <ele>292.98</ele>
        <time>2020-10-11T10:38:06Z</time>
      </trkpt>
      <trkpt lat="43.43065" lon="5.86557">
        <ele>292.6</ele>
        <time>2020-10-11T10:38:12Z</time>
      </trkpt>
      <trkpt lat="43.43084" lon="5.86561">
        <ele>290.72</ele>
        <time>2020-10-11T10:38:17Z</time>
      </trkpt>
      <trkpt lat="43.43105" lon="5.86561">
        <ele>288.12</ele>
        <time>2020-10-11T10:38:22Z</time>
      </trkpt>
      <trkpt lat="43.43126" lon="5.86558">
        <ele>287.76</ele>
        <time>2020-10-11T10:38:27Z</time>
      </trkpt>
      <trkpt lat="43.43144" lon="5.86556">
        <ele>288.27</ele>
        <time>2020-10-11T10:38:32Z</time>
      </trkpt>
      <trkpt lat="43.43164" lon="5.86549">
        <ele>287.29</ele>
        <time>2020-10-11T10:38:37Z</time>
      </trkpt>
      <trkpt lat="43.43183" lon="5.86539">
        <ele>287.5</ele>
        <time>2020-10-11T10:38:42Z</time>
      </trkpt>
      <trkpt lat="43.432" lon="5.86527">
        <ele>287.5</ele>
        <time>2020-10-11T10:38:47Z</time>
      </trkpt>
      <trkpt lat="43.43217" lon="5.86515">
        <ele>287.39</ele>
        <time>2020-10-11T10:38:52Z</time>
      </trkpt>
      <trkpt lat="43.43233" lon="5.86503">
        <ele>287.06</ele>
        <time>2020-10-11T10:38:57Z</time>
      </trkpt>
      <trkpt lat="43.43245" lon="5.86485">
        <ele>287.77</ele>
        <time>2020-10-11T10:39:05Z</time>
      </trkpt>
      <trkpt lat="43.43256" lon="5.86478">
        <ele>280.62</ele>
        <time>2020-10-11T11:17:39Z</time>
      </trkpt>
      <trkpt lat="43.43274" lon="5.86467">
        <ele>280.34</ele>
        <time>2020-10-11T11:17:45Z</time>
      </trkpt>
      <trkpt lat="43.43291" lon="5.86458">
        <ele>280.03</ele>
        <time>2020-10-11T11:17:50Z</time>
      </trkpt>
      <trkpt lat="43.4331" lon="5.86452">
        <ele>279.62</ele>
        <time>2020-10-11T11:17:55Z</time>
      </trkpt>
      <trkpt lat="43.4333" lon="5.8645">
        <ele>280.43</ele>
        <time>2020-10-11T11:18:00Z</time>
      </trkpt>
      <trkpt lat="43.4335" lon="5.86446">
        <ele>281.81</ele>
        <time>2020-10-11T11:18:05Z</time>
      </trkpt>
      <trkpt lat="43.43372" lon="5.86443">
        <ele>281.98</ele>
        <time>2020-10-11T11:18:10Z</time>
      </trkpt>
      <trkpt lat="43.43391" lon="5.8644">
        <ele>282.35</ele>
        <time>2020-10-11T11:18:15Z</time>
      </trkpt>
      <trkpt lat="43.4341" lon="5.8643">
        <ele>281.22</ele>
        <time>2020-10-11T11:18:20Z</time>
      </trkpt>
      <trkpt lat="43.43428" lon="5.86418">
        <ele>281.8</ele>
        <time>2020-10-11T11:18:25Z</time>
      </trkpt>
      <trkpt lat="43.43444" lon="5.86407">
        <ele>282.56</ele>
        <time>2020-10-11T11:18:30Z</time>
      </trkpt>
      <trkpt lat="43.43463" lon="5.86392">
        <ele>283.21</ele>
        <time>2020-10-11T11:18:36Z</time>
      </trkpt>
      <trkpt lat="43.43479" lon="5.86379">
        <ele>283.18</ele>
        <time>2020-10-11T11:18:41Z</time>
      </trkpt>
      <trkpt lat="43.43498" lon="5.86366">
        <ele>282.27</ele>
        <time>2020-10-11T11:18:46Z</time>
      </trkpt>
      <trkpt lat="43.43518" lon="5.86355">
        <ele>281.49</ele>
        <time>2020-10-11T11:18:51Z</time>
      </trkpt>
      <trkpt lat="43.43539" lon="5.86348">
        <ele>281.3</ele>
        <time>2020-10-11T11:18:55Z</time>
      </trkpt>
      <trkpt lat="43.43557" lon="5.86343">
        <ele>281.14</ele>
        <time>2020-10-11T11:18:58Z</time>
      </trkpt>
      <trkpt lat="43.43579" lon="5.86338">
        <ele>280.4</ele>
        <time>2020-10-11T11:19:01Z</time>
      </trkpt>
      <trkpt lat="43.43605" lon="5.86331">
        <ele>278.94</ele>
        <time>2020-10-11T11:19:04Z</time>
      </trkpt>
      <trkpt lat="43.4363" lon="5.86325">
        <ele>277.89</ele>
        <time>2020-10-11T11:19:07Z</time>
      </trkpt>
      <trkpt lat="43.43645" lon="5.86309">
        <ele>276.37</ele>
        <time>2020-10-11T11:19:10Z</time>
      </trkpt>
      <trkpt lat="43.43659" lon="5.86286">
        <ele>276.78</ele>
        <time>2020-10-11T11:19:14Z</time>
      </trkpt>
      <trkpt lat="43.43672" lon="5.86265">
        <ele>277.45</ele>
        <time>2020-10-11T11:19:19Z</time>
      </trkpt>
      <trkpt lat="43.43684" lon="5.86244">
        <ele>278.88</ele>
        <time>2020-10-11T11:19:25Z</time>
      </trkpt>
      <trkpt lat="43.43698" lon="5.86224">
        <ele>279.92</ele>
        <time>2020-10-11T11:19:31Z</time>
      </trkpt>
      <trkpt lat="43.43712" lon="5.86205">
        <ele>282.29</ele>
        <time>2020-10-11T11:19:37Z</time>
      </trkpt>
      <trkpt lat="43.43725" lon="5.86186">
        <ele>283.73</ele>
        <time>2020-10-11T11:19:43Z</time>
      </trkpt>
      <trkpt lat="43.43739" lon="5.86163">
        <ele>285.21</ele>
        <time>2020-10-11T11:19:49Z</time>
      </trkpt>
      <trkpt lat="43.4375" lon="5.86141">
        <ele>286.71</ele>
        <time>2020-10-11T11:19:55Z</time>
      </trkpt>
      <trkpt lat="43.43762" lon="5.86116">
        <ele>287.37</ele>
        <time>2020-10-11T11:20:01Z</time>
      </trkpt>
      <trkpt lat="43.43774" lon="5.86091">
        <ele>288.56</ele>
        <time>2020-10-11T11:20:07Z</time>
      </trkpt>
      <trkpt lat="43.43785" lon="5.86067">
        <ele>288.37</ele>
        <time>2020-10-11T11:20:13Z</time>
      </trkpt>
      <trkpt lat="43.43797" lon="5.86044">
        <ele>289.47</ele>
        <time>2020-10-11T11:20:19Z</time>
      </trkpt>
      <trkpt lat="43.4381" lon="5.86023">
        <ele>290.75</ele>
        <time>2020-10-11T11:20:25Z</time>
      </trkpt>
      <trkpt lat="43.43821" lon="5.86003">
        <ele>291.5</ele>
        <time>2020-10-11T11:20:30Z</time>
      </trkpt>
      <trkpt lat="43.43833" lon="5.85981">
        <ele>292.17</ele>
        <time>2020-10-11T11:20:36Z</time>
      </trkpt>
      <trkpt lat="43.43846" lon="5.85961">
        <ele>291.71</ele>
        <time>2020-10-11T11:20:43Z</time>
      </trkpt>
      <trkpt lat="43.43853" lon="5.85935">
        <ele>291.29</ele>
        <time>2020-10-11T11:20:54Z</time>
      </trkpt>
      <trkpt lat="43.43867" lon="5.85912">
        <ele>348.8</ele>
      </trkpt>
      <trkpt lat="43.4388" lon="5.85888">
        <ele>349</ele>
      </trkpt>
      <trkpt lat="43.43895" lon="5.85863">
        <ele>349.2</ele>
      </trkpt>
      <trkpt lat="43.43905" lon="5.85847">
        <ele>349.2</ele>
      </trkpt>
      <trkpt lat="43.4391" lon="5.85831">
        <ele>349.1</ele>
      </trkpt>
      <trkpt lat="43.43923" lon="5.85804">
        <ele>346.7</ele>
      </trkpt>
      <trkpt lat="43.43925" lon="5.85796">
        <ele>346.4</ele>
      </trkpt>
      <trkpt lat="43.43927" lon="5.85784">
        <ele>346.2</ele>
      </trkpt>
      <trkpt lat="43.43933" lon="5.85774">
        <ele>346</ele>
      </trkpt>
      <trkpt lat="43.43933" lon="5.85764">
        <ele>346</ele>
      </trkpt>
    </trkseg>
  </trk>
</gpx>